GFSCGP_850_thetae_000.txt.gz
Theta_e
334 333 332 333 335 337 339 339 342 341 344 345 344 343 345 343 344 347 348 347 347 346 350 350 351 354 353 353 350 353 350 355 353 353 349 348 349 347 345 345 346 349 347 343
333 332 333 334 335 335 336 337 338 340 340 342 345 346 345 343 343 345 347 347 346 347 346 346 347 347 349 354 354 353 353 349 353 350 349 345 344 349 346 347 344 345 346 346
332 332 333 333 333 333 334 334 335 339 340 339 341 347 344 344 343 343 344 346 346 345 346 347 348 348 350 351 352 352 353 351 351 351 347 347 347 346 343 347 345 346 345 341
331 332 333 333 332 332 332 333 333 334 337 338 340 342 347 345 344 344 343 344 345 344 345 347 348 349 350 351 353 353 352 354 353 350 345 342 336 332 338 339 338 337 335 329
330 331 332 332 333 333 332 333 332 333 333 334 336 340 347 346 345 343 343 342 343 344 344 344 345 347 348 351 353 355 356 352 349 325 323 330 332 336 334 335 336 331 336 336
330 330 331 331 332 332 332 335 334 333 333 336 336 340 345 348 351 343 341 342 342 343 344 343 343 343 345 349 351 355 356 339 323 321 331 335 336 333 327 334 336 338 336 334
330 331 332 332 332 333 333 335 337 337 337 337 336 338 345 344 344 346 345 342 342 343 344 344 343 343 344 349 350 354 349 331 319 324 338 336 335 335 336 338 337 336 333 334
330 330 332 332 332 333 333 334 336 341 338 337 338 340 344 338 341 346 345 346 342 341 345 345 345 344 346 348 350 352 346 325 320 331 338 335 332 336 338 336 337 332 332 334
331 333 333 332 333 334 334 335 334 336 335 335 336 337 336 336 336 334 337 335 343 342 342 345 346 347 348 349 349 349 345 324 323 338 340 338 340 334 327 333 330 328 336 334
333 335 333 332 333 333 334 334 334 334 338 339 336 335 337 342 337 336 334 335 337 344 343 343 345 349 351 351 350 348 344 330 327 340 338 340 336 336 336 333 326 328 328 329
333 335 334 333 332 332 333 334 333 333 334 336 337 338 340 343 338 335 335 335 335 337 345 346 346 349 353 352 351 347 344 339 338 338 340 339 333 335 336 335 334 335 335 335
333 333 335 334 334 333 333 334 335 337 339 338 339 336 337 336 335 334 334 334 336 339 340 348 347 350 355 352 351 346 343 342 340 340 339 337 334 331 335 335 335 335 334 333
333 334 334 335 334 333 333 334 333 334 335 342 338 337 339 335 335 335 335 336 338 339 347 350 349 348 353 352 351 345 341 341 341 339 338 334 335 335 333 335 335 334 334 331
333 332 335 332 335 335 334 332 332 333 338 338 337 339 338 338 339 340 337 337 337 341 342 351 350 348 350 351 350 344 340 338 338 338 339 337 336 336 334 336 337 335 334 334
332 338 332 331 331 332 333 333 332 332 335 336 338 340 340 340 339 336 336 334 334 337 344 349 349 349 350 350 348 343 339 336 337 336 336 335 336 337 335 336 335 333 333 334
331 335 332 332 332 331 331 332 334 333 332 332 334 338 338 338 335 334 334 333 333 333 334 341 350 348 351 350 346 343 338 336 336 336 336 336 337 337 337 337 336 335 335 333
337 333 337 335 333 333 334 333 332 333 335 334 337 340 340 339 335 334 333 334 334 334 334 334 342 349 350 351 346 342 338 336 334 335 332 334 336 335 336 336 335 335 334 331
340 344 339 336 339 339 334 335 333 333 333 334 336 338 339 335 333 332 333 333 333 334 335 335 339 346 347 350 346 343 340 336 336 336 330 331 333 336 337 337 335 335 334 331
333 344 339 340 336 336 336 336 336 336 339 336 335 337 336 334 332 336 335 333 335 336 338 338 336 342 349 348 346 343 341 336 336 335 331 331 332 336 337 337 336 335 334 329
335 339 343 338 337 337 339 336 335 336 338 337 335 337 336 334 334 342 338 337 337 337 339 340 340 342 348 347 347 344 339 336 337 334 332 332 335 338 337 337 336 336 333 332
335 337 336 335 336 333 335 335 334 338 339 336 335 334 334 338 336 332 337 337 337 337 340 344 344 344 348 346 346 343 336 336 334 333 335 337 337 337 336 336 335 335 332 328
340 338 337 339 338 339 336 337 338 343 336 336 336 335 335 334 333 331 330 336 337 337 338 342 344 347 346 346 343 337 334 333 336 335 336 337 337 337 336 335 333 330 326 331
336 339 346 343 342 338 336 337 335 335 335 334 334 334 333 333 332 331 330 329 337 338 337 341 343 344 342 342 337 338 339 341 341 340 339 337 337 336 335 334 331 329 329 329
338 335 337 337 337 334 334 332 331 332 332 331 331 332 331 332 332 333 332 333 339 339 339 340 341 342 339 339 340 341 343 344 341 338 342 340 338 336 337 331 330 332 331 331
336 335 334 337 334 335 331 330 330 330 331 331 331 330 331 332 333 334 334 339 341 341 340 340 342 343 343 342 343 336 338 331 326 345 344 340 338 336 331 332 333 331 328 326
330 334 335 335 331 333 329 328 327 327 327 329 331 330 330 332 333 338 342 342 342 341 340 340 339 339 334 333 330 326 322 331 340 338 337 335 334 331 328 329 328 326 326 326

GFSCGP_850_thetae_003.txt.gz
Theta_e
327 330 330 329 328 329 335 336 341 341 338 338 341 348 347 347 347 347 350 350 350 351 352 352 351 349 349 351 349 350 351 348 349 350 351 348 345 344 342 344 345 346 348 344
326 331 332 332 331 332 332 340 341 341 340 339 339 345 344 343 345 347 348 348 350 350 352 352 351 348 352 351 349 349 348 349 351 347 341 340 338 335 339 342 344 343 345 342
326 332 333 332 330 332 331 332 339 342 342 341 342 343 344 342 342 345 348 348 348 347 350 353 353 352 352 353 353 346 337 338 337 342 339 346 344 341 343 344 345 344 338 337
328 330 331 330 330 331 329 331 332 339 343 342 341 346 343 340 339 343 347 347 347 349 348 348 349 350 350 355 352 344 339 347 345 343 350 347 338 333 337 341 339 338 334 328
329 329 330 330 330 331 329 330 331 330 336 334 338 335 343 339 339 341 343 347 347 347 346 345 346 347 351 350 351 347 344 348 349 347 335 338 326 335 338 337 337 332 333 334
328 330 328 329 331 331 332 330 329 328 327 329 332 335 345 342 341 341 342 344 345 346 346 345 345 346 351 350 347 352 351 351 352 347 319 321 321 320 333 334 333 329 336 334
328 328 328 329 328 329 330 327 332 331 330 330 329 330 342 342 341 339 339 341 343 345 346 346 345 347 350 350 349 353 353 352 335 321 326 327 332 324 319 322 328 334 333 335
327 326 327 329 326 326 327 326 333 338 335 334 332 335 337 343 342 340 341 339 341 344 344 345 344 346 347 348 349 349 352 352 329 321 330 329 327 327 340 340 338 335 328 330
326 327 329 329 331 329 329 331 330 331 333 332 333 337 339 342 341 341 343 341 339 342 344 344 344 344 344 348 348 346 350 348 326 324 332 331 331 324 335 332 333 333 323 331
326 328 328 330 329 329 329 331 330 327 333 336 333 340 337 336 337 340 341 339 340 339 344 344 343 343 343 346 347 347 350 347 327 324 333 332 332 333 325 321 320 320 323 326
326 325 330 329 328 329 331 330 330 329 329 330 333 336 340 338 335 332 331 335 340 341 342 345 344 342 343 345 347 348 349 348 337 326 333 337 339 333 325 323 321 323 328 331
327 327 330 330 330 330 329 328 332 331 334 333 333 337 335 335 333 335 337 336 336 337 342 344 346 344 345 347 347 349 349 348 345 328 335 338 338 330 331 333 327 329 330 328
327 328 329 334 329 329 329 329 329 331 329 332 337 335 336 333 332 335 335 336 335 336 338 342 345 347 348 349 350 351 350 347 345 331 335 337 337 328 327 327 325 327 327 326
330 327 331 329 333 330 330 331 330 327 328 329 333 336 335 336 339 337 337 336 337 337 338 343 345 348 349 351 353 352 350 347 344 336 335 335 334 330 328 324 323 324 324 325
329 331 331 329 330 330 333 332 330 329 328 331 332 339 334 334 335 336 336 335 336 340 345 346 346 350 351 353 354 353 351 347 341 338 337 336 335 334 332 327 324 324 327 329
328 334 332 333 332 330 330 331 332 332 330 329 329 331 335 335 336 336 335 334 334 335 334 346 349 348 353 353 354 353 350 344 339 337 337 336 335 334 329 328 324 326 330 333
331 333 331 330 332 332 332 333 332 331 331 330 330 333 336 336 337 336 334 334 334 333 334 334 337 350 349 352 353 352 345 341 338 337 336 337 337 334 330 327 327 330 334 335
338 337 331 330 334 334 333 333 333 336 337 335 335 336 336 333 332 332 332 333 333 333 334 333 333 337 349 350 351 350 344 342 337 337 336 334 332 331 326 329 332 335 335 334
336 336 339 334 331 333 336 334 337 337 338 335 335 336 334 333 336 337 335 333 333 335 336 334 334 339 350 349 350 347 343 339 337 336 334 330 327 326 327 330 335 336 337 335
332 336 339 337 337 340 332 336 336 335 339 336 336 335 337 333 340 338 336 337 337 338 339 333 335 341 346 349 350 347 344 339 337 336 331 328 329 327 331 336 338 338 337 336
335 335 335 336 336 334 336 336 334 338 338 336 334 333 335 333 333 335 335 335 335 336 338 334 333 344 348 350 349 347 344 341 341 339 329 331 332 332 334 337 339 338 337 335
338 338 334 336 335 334 335 339 343 339 337 335 334 334 333 333 332 331 330 328 328 337 337 339 337 340 346 349 347 346 345 343 343 332 333 335 336 337 338 338 336 337 335 332
340 339 344 343 340 336 333 331 332 332 332 332 332 332 332 332 332 332 332 331 328 335 336 340 342 341 349 350 349 346 343 343 343 344 341 341 341 340 338 337 335 334 330 329
336 334 338 337 336 333 330 329 330 331 332 332 332 332 332 333 333 333 333 333 333 336 336 340 345 346 349 349 347 345 342 336 332 330 334 328 336 338 336 335 334 333 329 322
333 335 334 339 337 333 330 330 330 329 328 331 331 330 330 331 332 334 338 340 340 341 338 340 345 347 348 345 344 340 332 331 325 323 324 325 324 332 334 332 330 329 327 324
332 332 336 335 332 332 330 328 326 326 325 325 325 327 330 330 335 341 344 343 341 341 341 343 344 344 344 341 336 329 325 325 328 327 330 333 334 334 331 329 328 327 326 326

GFSCGP_850_thetae_006.txt.gz
Theta_e
323 322 323 327 326 327 330 336 338 337 334 346 347 348 348 346 347 347 347 347 347 347 347 347 346 346 346 345 347 348 347 347 348 347 347 346 344 345 345 345 346 348 347 348
321 323 325 329 330 329 328 334 338 339 335 335 347 349 347 347 348 348 348 350 348 349 347 347 347 347 346 346 348 347 347 343 344 345 342 340 337 333 340 342 342 342 342 342
320 323 329 331 331 331 328 336 337 339 339 338 345 347 346 347 347 347 348 350 351 351 350 349 349 347 348 349 346 346 345 345 345 341 338 338 341 337 340 342 342 344 341 337
321 324 327 331 331 330 325 329 337 340 341 341 339 348 342 344 343 341 346 348 350 350 350 351 351 347 348 350 346 347 347 336 332 336 334 338 343 341 334 341 344 340 336 327
322 325 325 327 330 328 327 327 328 340 339 336 342 341 345 337 337 336 342 346 348 349 349 351 351 348 347 351 352 351 335 335 334 331 321 333 341 331 333 338 338 337 329 332
322 326 326 327 329 327 328 329 324 326 326 333 338 336 337 341 340 338 337 346 346 347 349 349 350 348 349 352 353 351 334 333 336 323 327 335 334 327 333 336 335 334 328 328
323 324 325 327 325 325 327 322 323 325 325 325 322 339 337 339 339 336 337 346 346 346 348 349 349 350 350 350 351 348 340 335 335 330 345 322 323 317 318 329 332 327 322 331
321 323 325 325 324 324 323 322 323 328 331 328 325 328 329 338 339 337 338 344 346 346 347 348 346 345 344 348 349 346 341 345 337 338 349 325 323 320 321 322 322 326 334 329
320 322 325 325 326 323 325 325 324 327 328 329 328 331 336 337 338 337 337 340 344 345 346 346 345 344 343 345 347 347 341 340 340 340 328 325 327 320 321 327 332 336 336 328
319 321 323 326 325 325 325 324 327 322 329 331 329 333 334 341 339 338 337 336 339 343 345 345 345 344 344 343 344 346 345 339 341 338 325 324 329 325 320 322 329 327 322 324
320 321 323 325 324 324 328 327 324 323 324 327 328 329 330 339 338 339 338 339 338 341 343 345 345 345 344 344 346 345 347 346 346 345 326 325 331 329 325 325 320 320 322 324
319 318 322 323 324 324 325 325 324 325 327 325 325 330 333 333 333 338 339 341 342 339 342 343 344 345 345 345 347 345 347 347 347 349 329 325 331 329 327 325 322 320 320 322
322 318 323 323 323 325 327 326 326 322 322 326 329 331 331 329 330 333 334 340 341 340 339 341 343 343 344 345 345 345 346 348 349 350 333 326 332 329 326 322 321 319 319 320
325 318 321 324 324 325 326 326 326 325 325 325 328 331 332 332 331 331 333 335 338 338 340 340 342 343 343 343 344 344 346 348 349 349 341 330 330 329 327 322 321 320 320 321
321 321 323 323 326 328 328 328 326 326 325 328 326 330 329 332 332 332 335 335 335 338 340 340 342 344 343 344 345 346 346 347 348 348 345 335 330 333 330 325 323 322 321 323
319 322 323 326 327 327 327 329 328 329 328 329 327 332 329 333 335 334 336 336 337 337 337 341 341 342 345 345 345 345 345 347 350 348 346 336 331 335 333 326 323 323 322 325
322 322 323 325 327 328 330 330 329 331 334 329 327 326 330 332 331 332 333 333 334 333 333 334 342 346 346 347 346 348 348 348 351 349 346 339 335 334 334 328 322 322 323 326
324 322 321 325 325 329 326 330 333 335 334 333 330 331 332 332 334 334 334 333 333 333 332 332 331 333 340 346 350 350 351 351 351 348 343 338 336 333 335 330 322 323 326 328
329 330 332 325 323 326 332 331 334 333 335 335 334 332 330 332 333 333 332 332 331 331 332 332 332 331 333 342 348 352 352 352 351 347 340 337 336 335 335 330 322 324 330 333
328 328 334 334 330 330 331 334 333 331 334 332 333 332 331 333 333 332 333 331 332 335 334 332 331 329 330 336 345 350 352 351 349 346 342 338 335 335 334 324 324 330 335 334
332 332 332 333 333 330 332 335 333 332 332 333 332 332 333 332 333 335 336 336 335 334 333 333 332 330 327 339 345 350 351 351 349 346 340 336 336 335 332 330 331 336 335 335
338 338 335 333 332 333 332 334 339 334 333 333 333 332 332 332 332 331 331 330 330 334 337 336 333 330 334 338 347 349 348 344 342 338 337 337 337 337 339 336 338 335 334 334
338 335 339 338 336 332 331 330 331 331 332 331 332 332 332 332 333 332 332 331 331 327 326 336 338 333 339 345 348 348 343 341 340 339 338 333 334 330 332 334 333 332 334 333
333 333 335 335 333 334 331 329 330 330 330 330 330 330 331 331 332 333 333 334 335 334 328 331 339 338 339 348 348 346 344 342 341 339 334 332 328 325 326 328 333 333 333 332
332 331 334 335 335 331 329 329 328 327 329 329 330 329 329 328 333 336 335 338 337 336 338 340 342 341 346 349 347 345 342 339 336 333 325 325 325 324 324 327 334 332 330 329
330 330 332 333 333 329 328 326 324 324 323 323 323 325 324 326 331 335 334 341 341 341 341 347 348 348 347 345 342 337 327 325 324 325 322 321 322 325 327 330 329 328 327 326

GFSCGP_850_thetae_009.txt.gz
Theta_e
320 319 320 320 325 325 329 333 342 341 337 345 345 346 345 346 345 345 346 347 347 347 347 347 347 347 348 346 345 345 347 347 346 347 350 350 349 348 347 347 347 347 346 347
318 319 320 322 326 326 327 331 336 336 340 343 345 347 344 343 344 345 345 345 346 347 347 347 346 347 347 346 345 345 347 346 344 344 346 346 344 341 341 346 343 339 341 341
317 319 322 327 329 330 326 328 331 337 337 344 346 348 347 345 345 344 345 345 345 346 347 347 346 346 346 346 345 346 347 344 339 341 343 342 339 335 336 340 340 339 344 339
319 320 323 328 329 329 329 327 331 336 337 344 344 350 343 345 346 345 347 347 347 346 346 347 347 346 346 346 346 346 345 342 342 344 342 333 334 339 338 336 338 343 342 335
319 322 322 325 328 328 329 326 326 333 336 339 341 342 343 342 344 345 345 345 348 348 347 347 347 349 349 345 346 341 342 343 340 342 336 331 330 337 339 332 336 342 337 331
319 322 323 323 325 327 328 326 321 324 329 339 342 338 337 345 346 345 343 344 348 349 349 350 349 349 350 342 342 345 343 340 336 330 329 323 328 331 329 332 337 337 333 329
321 321 322 326 326 325 323 321 322 329 335 338 330 337 336 338 343 343 342 341 346 348 350 350 350 350 350 342 341 344 342 333 332 329 325 322 323 329 323 329 334 334 333 328
318 320 321 323 323 324 321 320 322 324 327 331 325 340 339 335 338 341 341 341 344 346 348 350 349 349 350 343 339 335 343 336 333 332 326 327 326 323 317 318 327 328 324 321
317 318 321 323 323 323 323 321 320 321 324 325 324 327 328 334 334 338 338 337 342 345 346 349 349 348 350 347 340 332 336 338 334 328 328 328 335 325 319 319 318 319 324 331
317 320 320 322 323 322 323 321 324 320 326 329 326 329 329 334 335 336 335 335 340 344 345 347 348 348 348 347 341 338 338 340 336 331 331 328 336 326 322 321 321 322 331 334
315 317 319 322 321 322 325 322 321 320 321 324 326 327 325 331 334 335 335 337 339 343 344 345 346 347 347 347 345 339 342 345 342 336 337 334 334 325 326 319 319 320 321 320
316 316 320 319 320 322 321 322 322 324 323 321 323 326 327 329 333 335 335 336 338 341 343 344 345 346 347 347 346 342 342 344 345 344 341 341 339 325 329 324 320 319 319 321
316 314 317 319 320 322 323 322 321 319 320 325 328 328 328 329 331 336 336 337 338 340 341 343 344 345 345 346 345 344 343 343 345 347 345 347 344 326 329 328 323 322 319 319
321 313 319 322 321 321 325 324 323 323 323 323 325 328 332 329 331 330 336 337 339 339 339 339 342 343 344 344 345 345 345 345 345 347 348 349 348 335 327 330 326 322 320 319
318 320 316 320 321 322 324 325 325 325 324 328 326 327 329 329 329 331 337 337 337 339 340 339 339 340 341 342 344 345 345 346 346 346 348 349 349 339 328 332 327 322 321 320
317 319 320 321 321 322 323 324 325 326 323 326 324 327 325 329 330 330 334 335 335 336 337 338 338 339 340 340 341 342 344 345 346 347 347 351 347 334 332 332 328 323 322 321
318 320 317 323 322 324 326 325 325 328 328 327 327 325 327 330 330 330 332 333 334 336 337 337 337 338 338 339 341 342 343 345 346 347 350 350 347 340 334 332 335 327 320 322
325 318 318 323 323 327 325 329 328 333 334 333 332 326 328 329 333 333 332 333 334 336 336 336 334 333 332 334 341 344 345 345 346 348 350 351 345 340 337 336 336 332 322 321
322 319 325 323 323 327 332 333 331 330 333 332 332 331 329 331 332 331 333 334 335 333 332 331 328 328 328 328 332 335 345 348 348 348 349 350 346 341 338 335 333 334 330 325
325 323 327 325 326 329 333 333 333 331 333 330 331 331 330 331 332 328 331 331 332 331 331 330 330 330 329 328 330 334 342 348 350 350 349 349 346 343 337 335 334 335 335 331
332 331 330 330 334 332 331 331 331 334 331 332 330 330 331 328 328 329 333 332 334 335 334 331 332 331 329 331 329 332 343 349 350 349 348 348 345 340 339 339 338 337 336 332
336 337 339 334 332 335 330 332 334 330 330 331 331 331 331 332 332 331 331 331 331 330 330 334 335 331 334 333 332 334 344 348 348 347 346 345 340 339 339 339 338 330 329 334
335 335 336 334 330 328 331 329 330 329 330 330 330 332 334 334 335 335 334 333 330 328 329 328 327 329 333 336 334 341 346 347 345 343 342 341 338 336 336 334 331 327 324 326
332 330 332 334 331 331 330 329 329 329 329 329 328 327 330 328 329 330 329 329 334 334 330 329 326 329 337 337 340 343 347 345 342 341 339 337 336 331 332 329 328 323 326 333
330 332 333 333 333 330 328 327 326 325 329 330 329 328 329 331 332 332 332 330 331 331 330 332 331 342 344 344 345 343 341 340 339 338 338 328 330 328 327 327 326 324 327 332
327 331 333 333 332 329 327 324 323 322 322 322 322 322 320 321 324 329 334 340 341 340 339 337 339 344 345 343 342 340 336 334 333 335 327 327 328 325 326 323 322 327 332 331

GFSCGP_850_thetae_012.txt.gz
Theta_e
318 318 318 321 323 332 331 339 341 341 339 342 344 344 347 346 345 345 345 346 348 349 349 350 350 350 349 348 349 348 348 347 346 346 346 347 348 350 350 347 346 345 346 345
317 317 318 321 324 326 332 336 338 337 339 342 345 346 346 346 345 345 345 345 346 347 348 349 349 350 349 347 347 346 345 345 346 346 346 348 351 350 348 346 346 345 343 342
316 319 319 325 325 326 326 328 333 339 341 343 345 347 344 345 345 345 345 345 345 345 346 346 346 347 348 347 347 345 344 345 346 346 346 349 350 343 337 336 341 335 337 342
317 318 321 323 327 326 327 325 328 336 342 342 341 341 344 343 344 343 344 344 345 345 345 345 346 346 347 346 346 345 343 344 345 346 345 345 340 336 335 332 335 336 338 336
320 319 320 324 326 326 327 326 328 334 336 339 345 339 338 344 345 344 343 343 344 344 345 346 346 346 346 346 346 345 344 344 345 345 344 345 340 337 340 339 337 335 342 339
320 321 320 321 324 327 324 322 322 323 329 337 339 341 336 345 347 345 343 344 345 345 345 345 345 346 346 346 346 345 342 338 340 343 342 340 334 332 336 336 329 331 340 335
320 319 321 323 323 324 320 321 323 327 334 336 331 340 338 336 343 343 342 344 345 346 346 347 346 346 346 346 348 344 334 330 334 338 333 329 327 326 328 331 324 332 335 333
318 319 319 321 322 322 321 321 322 326 327 335 331 343 341 337 335 341 342 343 344 345 347 347 348 347 348 348 348 341 333 327 329 332 328 325 326 323 323 324 320 326 332 332
316 317 318 320 321 321 321 321 320 319 320 323 325 326 328 329 330 335 339 341 343 343 345 347 348 348 348 349 348 342 333 327 327 328 325 325 324 325 323 321 317 319 324 322
316 318 317 319 322 321 320 318 323 317 324 327 324 326 328 330 332 330 333 339 341 342 344 346 347 348 349 349 348 347 336 325 326 329 326 327 326 324 325 323 319 317 317 321
314 315 318 319 319 320 320 320 317 317 318 322 323 324 322 326 328 331 332 337 338 340 342 344 345 346 348 349 348 348 344 333 327 329 330 329 332 329 332 325 320 319 320 322
314 316 318 317 318 318 319 319 319 322 320 319 320 323 324 326 326 331 332 335 337 338 340 341 343 345 346 348 348 348 347 343 334 329 334 334 332 336 337 329 324 319 319 319
315 313 318 317 316 319 320 319 317 316 317 321 324 324 324 324 327 332 333 335 336 336 338 340 342 343 345 346 347 348 348 347 343 339 338 343 342 340 339 329 327 322 319 318
320 312 318 321 319 318 321 322 319 319 320 320 323 325 326 328 329 330 334 336 336 337 338 339 341 341 342 343 345 346 347 348 347 344 342 344 346 343 343 335 328 328 322 320
315 317 315 321 318 320 321 322 321 321 321 324 325 325 326 327 328 329 336 337 336 336 337 339 339 340 341 342 343 344 345 346 347 347 344 342 345 349 348 337 332 331 330 325
316 317 314 321 320 320 321 321 322 323 323 322 323 324 323 326 329 330 333 335 337 337 338 338 338 339 339 339 340 342 344 344 345 346 345 347 348 350 346 336 331 334 336 321
319 316 315 320 318 317 319 321 321 322 323 324 325 326 324 328 328 329 331 334 338 339 339 339 339 339 338 338 338 339 339 341 343 345 347 349 349 349 345 340 334 334 330 328
326 317 314 319 319 322 321 322 322 324 328 328 328 325 326 327 331 331 332 333 335 337 337 339 337 336 336 335 333 336 338 340 341 343 346 348 349 349 345 342 336 333 337 329
322 318 319 319 318 322 332 332 332 332 332 331 331 331 328 329 330 330 330 331 332 333 335 335 336 328 326 326 329 332 335 339 343 344 346 348 349 349 345 342 339 334 338 333
326 322 324 320 322 329 330 331 331 330 332 329 330 329 328 329 329 328 330 331 333 335 335 334 329 329 329 329 329 329 329 333 340 345 348 348 349 349 345 342 340 337 337 336
330 332 333 328 332 331 330 330 331 333 330 328 328 328 328 328 328 331 331 332 332 332 333 333 332 332 332 332 332 332 331 330 341 346 348 348 347 346 346 342 339 337 337 337
333 334 335 334 332 335 328 331 331 329 328 329 329 329 329 332 333 334 332 331 331 330 329 328 328 327 326 330 332 334 339 343 337 345 347 346 343 342 341 339 338 337 335 329
335 335 335 333 330 327 329 328 328 328 330 331 331 330 330 330 330 330 330 331 330 328 327 327 328 329 328 332 335 334 342 343 344 346 345 343 342 341 339 337 336 333 332 329
331 329 332 331 330 330 328 328 327 327 327 327 327 328 329 329 330 331 331 332 332 331 331 331 331 330 331 333 340 342 344 344 344 342 341 340 340 337 333 330 330 331 328 327
328 331 332 332 331 328 326 325 324 323 325 326 327 327 325 328 328 329 331 335 337 338 336 333 330 333 336 339 343 343 344 342 337 336 333 333 334 335 330 327 328 326 327 324
322 329 332 333 330 329 327 322 321 322 323 323 325 323 321 321 322 323 326 329 337 337 338 337 334 336 333 337 339 339 337 337 335 332 330 336 335 330 327 326 326 326 325 325

GFSCGP_850_thetae_015.txt.gz
Theta_e
321 322 322 327 334 336 339 342 344 345 344 345 346 346 349 348 348 349 350 351 350 350 350 351 348 349 348 349 348 348 347 348 348 347 347 345 345 344 347 347 347 346 344 343
321 322 323 326 328 335 340 342 344 344 344 345 346 347 347 348 348 347 348 350 350 350 351 352 351 349 350 350 349 348 348 347 348 347 346 345 345 346 348 347 345 345 345 345
322 321 322 325 327 330 338 342 343 344 343 345 347 346 347 348 348 347 347 347 347 348 349 349 350 349 349 349 350 348 347 345 346 347 346 346 347 347 348 343 341 341 342 336
320 321 322 324 328 329 333 336 342 343 344 346 345 347 348 348 350 349 347 346 346 346 347 347 347 347 348 347 348 348 347 345 343 345 347 347 346 349 347 338 332 336 335 337
324 321 322 324 327 329 332 332 337 341 345 343 347 346 343 348 350 350 348 347 346 345 346 346 346 347 345 345 346 348 347 345 343 345 346 346 345 346 341 337 335 336 336 337
325 321 322 324 327 329 328 331 332 338 340 343 342 345 340 349 349 348 346 346 346 345 345 345 346 344 345 345 346 346 346 345 344 344 345 345 342 344 338 334 337 339 333 339
326 324 323 322 325 329 329 331 334 336 339 337 336 346 343 341 344 345 345 345 345 345 345 345 346 345 345 345 346 346 346 346 343 343 343 341 340 339 331 327 330 328 328 331
327 326 324 323 325 327 329 330 333 336 337 335 335 341 341 341 339 340 344 344 345 345 345 346 345 345 346 345 346 346 346 346 340 336 338 339 340 335 327 325 326 324 325 328
327 326 321 322 324 327 329 329 331 332 327 334 336 339 335 338 338 338 340 343 344 345 345 346 346 345 346 347 346 347 346 346 336 329 332 336 339 334 326 323 323 319 322 327
324 325 323 322 324 324 326 327 328 329 337 334 332 334 333 339 340 341 340 341 342 345 346 347 347 345 346 347 347 348 346 342 329 329 328 331 334 330 325 325 325 320 318 322
325 325 323 322 323 324 325 326 327 330 331 335 334 333 335 338 340 340 341 339 341 344 345 346 347 345 345 345 348 348 348 347 339 325 326 329 332 330 325 329 325 322 319 318
323 325 327 325 323 323 325 326 328 331 333 329 331 332 331 334 336 336 338 338 338 342 343 346 348 347 345 346 346 347 348 348 346 336 325 327 330 328 329 328 328 325 321 319
322 324 327 326 325 323 323 324 326 327 328 336 331 331 334 332 333 332 334 337 337 338 342 345 346 347 344 344 345 346 347 348 348 347 341 330 329 332 329 334 337 328 324 327
323 327 328 329 329 326 325 324 324 325 329 328 330 331 332 333 336 337 336 335 337 337 341 343 344 342 341 341 343 344 346 348 349 349 348 344 334 331 341 343 343 331 327 324
329 330 327 328 329 327 326 323 324 326 328 330 329 331 333 335 337 338 335 338 338 338 340 338 338 338 339 340 340 342 345 346 347 348 348 348 346 343 345 348 345 334 326 328
324 328 325 326 326 326 326 326 325 325 325 327 327 333 333 334 334 335 337 338 340 338 336 336 336 338 338 339 339 341 343 344 345 347 348 349 349 349 348 349 346 338 329 329
333 328 328 330 327 325 326 327 326 326 327 327 330 331 336 333 334 335 335 337 336 337 337 336 337 338 338 339 339 340 340 342 343 344 345 346 347 348 349 348 344 336 331 333
334 332 328 332 326 326 326 326 326 326 327 328 328 331 334 333 333 334 335 337 335 337 338 337 337 337 337 338 338 338 338 338 339 341 342 345 346 347 348 347 346 334 335 335
332 330 334 333 332 330 330 332 326 325 329 329 329 331 333 330 332 334 330 330 332 334 335 336 337 338 337 335 334 331 329 330 335 339 342 343 345 347 348 348 344 336 333 335
330 332 333 333 330 330 337 334 333 334 331 335 335 336 336 332 334 338 329 331 331 332 333 335 336 334 330 328 327 327 328 331 333 335 340 346 347 348 348 347 344 337 338 336
336 341 339 340 338 335 334 332 333 335 335 333 334 335 333 336 335 332 333 334 333 335 337 334 332 331 331 330 331 332 332 331 332 336 342 347 348 348 348 346 344 340 340 335
337 338 343 341 339 340 331 333 338 335 332 332 332 333 334 336 337 337 337 333 330 330 330 330 329 329 328 328 329 329 331 334 338 336 341 346 346 343 343 344 342 342 338 337
336 336 340 339 338 332 330 330 330 333 333 333 334 334 333 334 335 336 336 331 331 331 330 330 330 330 330 330 331 331 330 335 337 340 345 345 342 341 341 341 341 339 338 337
335 333 335 338 335 332 330 329 328 328 327 328 329 330 329 333 337 340 337 335 335 334 333 332 331 332 334 334 334 333 332 340 342 342 340 341 340 339 339 337 337 337 336 335
331 333 334 335 333 330 330 325 325 325 324 323 324 326 325 325 327 332 336 337 337 336 333 329 327 325 326 329 334 339 342 342 338 338 339 339 339 338 334 335 333 332 329 328
321 331 336 335 332 333 330 324 322 324 323 323 323 322 323 323 322 322 322 323 324 328 334 335 335 332 331 332 334 334 338 338 337 338 338 336 336 334 332 331 329 327 326 325

GFSCGP_850_thetae_018.txt.gz
Theta_e
323 325 326 328 332 335 338 339 340 340 345 347 346 345 349 349 348 348 348 349 347 346 346 349 350 351 351 353 355 354 354 354 354 353 353 351 350 350 349 348 350 349 348 346
324 324 326 329 331 334 336 338 340 342 346 347 346 347 346 347 349 348 348 349 349 347 347 349 351 351 352 353 355 356 356 354 353 355 352 352 351 350 351 353 350 348 349 348
325 324 326 327 330 333 337 338 339 344 347 347 345 348 348 346 347 348 347 346 349 348 347 348 349 351 352 353 355 356 356 355 353 353 355 354 353 351 352 349 348 348 349 348
325 325 325 325 327 332 336 336 338 342 347 348 346 346 344 345 347 349 349 347 346 348 349 348 349 349 351 352 354 356 352 348 352 352 354 354 352 348 347 347 345 345 347 346
324 324 324 325 326 330 334 335 337 340 345 345 347 348 344 345 348 348 349 348 345 345 346 347 347 347 349 351 352 354 353 349 349 352 348 354 353 349 348 348 347 345 346 344
327 324 324 325 326 328 332 334 337 339 343 346 344 347 344 344 347 345 346 348 346 343 343 343 344 345 348 350 351 352 353 348 347 346 342 346 353 351 349 349 345 344 345 344
327 326 324 324 325 327 331 335 340 341 342 343 343 344 343 339 340 342 341 346 347 344 343 343 343 344 346 348 349 350 352 346 347 346 343 342 345 353 353 352 345 342 343 341
328 327 326 325 326 328 330 335 338 342 339 339 341 342 341 340 338 337 339 341 345 346 343 343 343 344 346 348 350 351 351 346 346 346 344 343 343 352 352 351 344 342 339 340
329 328 327 325 325 328 330 335 335 337 337 338 337 339 338 338 338 338 339 341 344 346 345 343 344 345 347 349 351 349 345 345 346 346 343 341 341 342 350 351 338 342 339 339
329 330 328 327 326 327 330 332 335 336 342 339 337 338 340 339 338 338 338 340 342 344 346 345 344 346 347 349 351 348 346 345 345 346 342 337 337 337 338 340 332 334 329 329
329 329 328 327 326 326 327 330 333 335 336 338 339 337 336 336 336 336 336 338 340 342 345 346 346 345 348 350 351 353 353 347 345 344 338 335 331 332 332 333 339 326 325 321
330 331 330 325 326 326 328 329 332 336 338 336 337 337 335 336 335 334 334 334 334 338 342 346 347 348 348 350 351 353 354 354 346 340 337 330 330 329 331 331 338 328 326 322
330 331 332 331 327 325 325 328 329 332 334 342 338 337 335 334 335 334 336 335 336 342 342 345 347 348 350 351 351 352 354 354 354 354 351 343 330 331 330 332 335 328 332 323
326 330 331 331 330 329 327 325 326 328 333 333 334 336 335 335 335 334 334 336 337 341 344 345 346 349 351 351 351 351 353 353 354 355 356 355 350 345 338 337 335 334 331 326
327 331 332 330 330 330 329 328 326 326 327 331 332 334 335 335 334 333 333 332 335 343 344 345 347 349 352 353 353 355 354 355 354 355 356 357 357 356 352 345 338 337 338 330
329 335 334 333 332 331 331 330 329 327 326 327 328 330 333 332 332 333 332 333 335 341 345 345 348 350 353 354 355 355 355 355 355 356 357 357 358 355 351 349 344 342 346 338
331 332 336 335 333 332 332 332 331 330 328 326 328 329 330 331 333 334 334 335 336 339 344 345 347 349 352 354 356 356 355 354 355 352 356 357 357 352 350 348 347 346 346 341
335 336 336 336 336 337 332 331 330 330 329 327 327 328 329 331 331 332 335 336 337 339 342 345 346 348 352 352 353 352 349 344 348 346 354 356 354 351 347 347 347 346 345 344
331 337 336 336 336 334 333 336 336 332 331 330 329 329 330 328 330 335 336 338 339 340 342 346 346 347 350 349 350 344 346 345 344 344 349 349 343 343 345 347 346 345 343 343
330 334 335 336 336 336 342 337 335 337 338 332 330 330 330 330 332 336 339 337 336 339 343 343 344 345 346 347 342 336 343 337 337 336 331 336 340 344 346 347 347 346 345 343
335 337 334 338 338 336 337 335 336 340 337 339 338 329 329 334 334 339 339 339 340 341 344 345 346 346 347 346 339 335 335 343 341 331 334 337 342 346 347 346 347 347 346 341
337 337 334 337 339 339 334 336 341 340 339 338 337 338 336 339 339 341 342 342 343 343 344 345 346 346 342 333 334 339 340 333 331 332 340 342 345 347 348 346 345 345 343 339
336 334 335 336 336 336 333 334 334 336 338 339 339 338 339 339 340 342 343 343 342 342 341 342 341 337 343 338 330 328 328 329 330 333 336 341 345 347 343 345 344 344 342 341
338 337 338 337 336 335 333 330 330 331 333 334 338 338 339 339 339 340 341 341 341 341 341 342 339 332 332 332 332 332 332 333 337 339 344 346 346 342 342 342 341 342 342 340
334 337 338 337 335 334 331 329 329 329 329 330 330 332 336 340 342 343 344 343 342 341 340 337 327 325 326 329 332 335 340 343 345 347 345 344 342 341 342 342 340 339 338 338
326 333 337 336 333 335 329 326 326 325 326 328 329 330 330 330 331 331 335 339 338 342 337 333 331 331 333 336 337 340 340 343 343 343 343 343 339 340 342 337 336 334 332 330

GFSCGP_850_thetae_021.txt.gz
Theta_e
325 326 327 329 332 335 339 340 340 340 340 343 345 345 346 347 347 344 342 343 344 344 346 347 348 348 348 349 352 353 353 352 353 354 355 353 353 352 350 351 351 350 354 349
327 326 327 330 332 334 336 340 341 340 341 341 343 345 347 348 348 347 345 343 343 343 344 346 348 348 349 351 353 354 354 354 353 356 353 351 349 348 350 353 352 356 352 352
326 326 327 329 331 334 335 338 340 340 343 344 344 346 345 345 347 347 346 345 344 343 343 344 348 349 350 351 353 355 355 354 355 355 353 352 353 349 351 347 349 351 350 350
326 328 327 328 330 332 335 336 338 339 345 349 343 348 347 345 345 348 348 347 345 344 343 343 347 349 350 351 354 355 357 356 356 355 356 352 352 349 347 346 347 346 348 347
328 327 327 327 329 332 333 336 338 339 341 345 343 344 345 344 345 345 347 347 347 344 344 344 345 347 349 351 353 356 357 357 356 356 353 354 351 348 348 347 348 346 348 347
328 327 328 327 329 330 332 336 337 338 339 344 345 346 346 345 345 345 344 346 348 346 345 346 345 346 348 349 351 354 356 358 356 356 354 351 354 350 350 349 350 346 347 346
329 328 328 328 327 329 330 334 339 340 341 341 345 344 350 343 344 344 343 342 345 348 345 344 346 346 347 348 350 352 354 356 354 355 357 353 351 355 352 355 349 346 346 346
331 330 329 327 327 328 330 332 337 341 341 340 340 345 345 344 341 341 340 339 342 347 347 344 344 344 345 347 349 351 353 354 352 357 355 355 353 355 353 350 351 345 344 344
332 332 330 328 328 327 330 333 334 337 338 340 340 340 340 342 342 340 340 338 338 345 347 345 344 343 344 345 348 350 351 354 348 354 350 349 346 346 352 350 348 350 343 342
331 332 331 329 328 327 328 331 335 338 344 344 340 340 341 342 341 340 339 338 338 339 345 346 344 344 344 344 346 349 350 354 348 349 349 349 344 341 342 349 351 350 344 340
329 331 331 331 330 328 327 331 333 335 338 340 341 341 339 341 341 340 339 337 337 338 343 346 346 345 345 344 345 348 352 353 353 351 352 349 345 351 341 344 349 350 344 344
329 330 333 332 330 329 328 328 331 341 340 338 339 339 339 338 338 338 337 337 337 336 338 342 345 346 346 346 346 348 351 355 357 356 350 346 344 342 343 337 346 348 340 336
329 330 333 333 331 330 329 329 329 331 335 343 340 339 338 338 338 336 336 335 335 335 337 338 343 346 347 348 348 348 351 351 355 357 356 353 347 341 341 336 340 350 338 332
330 330 331 334 333 330 329 328 328 329 335 335 337 338 338 338 338 337 335 335 336 335 340 341 340 344 348 349 350 351 352 353 355 356 357 357 355 350 347 346 341 341 339 333
330 332 332 332 333 332 330 327 327 328 330 333 333 336 337 338 338 337 335 334 334 334 337 343 344 343 349 351 352 352 354 354 354 356 357 357 357 356 354 352 352 349 345 340
330 332 333 333 331 331 331 331 329 328 327 329 330 332 335 336 335 336 335 334 334 334 334 340 346 347 350 352 354 356 355 355 355 356 357 358 360 358 358 355 352 353 351 345
329 331 333 333 333 333 333 331 332 332 331 330 329 330 331 334 336 337 338 335 335 334 334 334 346 348 350 353 356 357 357 356 356 357 358 358 360 359 359 358 356 354 352 348
329 333 333 335 335 337 333 333 332 331 332 332 332 331 330 331 330 332 333 335 334 334 334 334 343 348 352 354 356 357 359 358 358 357 358 359 360 360 359 358 355 353 351 348
329 331 332 334 336 336 335 337 337 338 337 332 332 332 332 329 328 331 330 331 332 334 334 335 341 347 350 354 356 358 359 359 360 359 359 359 359 360 358 350 346 345 346 347
330 334 336 336 337 339 336 339 338 338 336 333 335 336 333 330 331 334 330 329 331 335 337 339 340 347 350 353 356 359 358 358 359 359 359 356 355 352 348 350 351 350 348 347
327 331 334 337 337 335 340 337 337 339 339 343 341 340 340 340 332 330 332 331 333 338 340 345 348 348 352 354 354 357 357 357 356 356 356 358 358 357 354 350 349 348 347 348
328 331 331 335 337 338 339 338 339 344 342 341 342 340 338 339 336 330 342 343 342 341 342 346 347 349 352 352 354 355 354 353 353 353 355 354 352 354 352 350 350 349 347 346
331 331 332 332 335 341 338 339 337 338 340 341 342 340 340 341 341 343 344 345 346 346 347 348 352 352 352 351 352 353 355 352 355 356 356 355 350 352 353 350 349 349 346 343
331 331 336 340 341 339 336 334 335 336 337 341 341 342 341 343 345 346 346 346 346 347 349 351 352 353 355 355 357 360 358 356 355 357 353 353 349 351 348 349 348 344 344 343
331 333 336 342 340 336 334 333 333 333 334 338 341 344 344 344 344 344 344 344 344 345 345 346 349 350 352 353 349 345 347 347 348 344 344 345 347 346 343 345 345 345 342 342
326 330 335 345 337 337 332 330 330 331 332 333 334 335 335 336 340 340 343 345 342 341 342 343 346 348 350 351 349 348 348 346 344 346 347 346 346 345 342 342 341 340 338 337

GFSCGP_850_thetae_024.txt.gz
Theta_e
328 328 327 328 329 332 334 337 338 340 342 341 345 348 345 344 343 340 343 342 343 344 345 346 347 347 348 349 350 350 351 351 354 353 354 350 352 350 345 352 352 353 350 349
327 327 327 328 330 331 333 336 339 340 343 345 342 350 347 348 346 342 341 342 342 343 344 346 347 348 348 349 350 351 351 352 351 353 353 351 348 352 351 351 347 348 347 349
327 327 327 327 329 332 333 335 339 341 341 341 341 342 343 346 346 345 344 342 341 341 342 346 347 348 349 349 350 351 352 352 353 351 352 350 354 352 353 352 352 348 347 347
328 328 327 327 328 331 333 335 336 338 342 344 343 345 348 346 349 346 344 344 343 342 342 343 347 349 349 349 350 353 353 352 352 350 357 349 352 352 346 346 347 349 351 349
328 327 327 327 327 331 333 335 335 336 339 345 347 345 347 347 349 349 346 344 344 344 343 343 345 347 349 350 352 354 354 354 351 351 355 356 352 349 349 348 347 347 348 346
328 329 328 328 328 329 332 333 335 336 338 344 345 345 348 349 346 346 346 345 346 345 345 343 343 345 348 350 352 353 355 355 354 354 350 354 357 350 349 349 348 347 346 346
329 328 329 328 328 328 329 331 336 338 342 341 343 349 349 347 346 345 344 343 346 346 345 345 344 345 349 350 351 354 356 356 356 354 355 349 355 355 349 350 350 349 344 348
330 330 328 329 328 328 328 330 336 340 341 340 340 342 348 346 344 342 341 342 344 346 347 346 346 345 348 349 350 353 357 356 355 354 354 351 347 354 348 352 354 350 347 347
332 331 331 329 329 328 328 329 331 333 337 340 340 340 341 345 343 345 343 342 342 346 347 347 347 347 347 349 349 351 354 356 355 354 351 351 347 344 347 348 353 351 345 346
330 332 331 331 330 328 328 330 330 331 338 343 341 343 345 348 345 345 344 342 340 344 346 348 346 347 348 349 350 350 351 353 355 354 351 347 343 338 341 347 348 349 351 344
328 332 331 332 331 330 328 328 329 330 334 339 342 343 343 346 348 346 344 341 340 338 344 347 347 345 346 347 350 350 352 352 355 355 352 345 343 339 340 345 348 348 347 347
329 329 333 331 332 331 329 329 329 331 338 336 339 342 339 341 344 346 343 340 339 338 338 342 347 346 346 345 348 350 353 354 354 354 353 345 343 339 339 340 344 343 342 345
332 330 333 331 331 332 331 330 328 328 330 339 339 339 339 342 340 339 341 339 338 338 339 340 344 347 347 346 346 349 350 353 357 357 353 352 345 343 338 334 335 339 338 340
333 330 333 333 334 332 334 331 330 329 330 333 337 340 339 342 343 343 340 337 338 337 337 338 342 347 346 347 346 347 349 350 354 359 357 349 344 338 337 340 335 336 339 338
330 335 334 331 330 333 332 331 330 331 332 333 333 338 340 339 343 342 338 338 337 337 340 339 339 338 348 348 347 347 349 351 353 357 358 356 348 346 349 351 349 344 344 342
331 333 333 333 330 331 333 331 331 330 330 331 331 333 336 338 338 340 336 337 338 337 337 342 340 338 340 351 349 349 350 351 351 354 355 356 357 358 356 355 354 354 353 351
331 331 336 335 332 332 332 333 333 330 330 329 331 333 336 336 336 339 341 337 340 338 335 335 342 341 343 346 352 351 350 353 352 354 355 356 356 358 359 358 356 355 355 353
333 333 333 336 336 336 334 333 332 332 332 331 332 333 333 333 332 331 331 332 335 338 336 336 335 343 346 347 355 356 354 354 356 355 358 359 359 360 361 359 358 357 356 355
330 333 332 336 334 333 332 333 333 332 336 334 332 335 334 332 331 332 330 330 332 332 336 336 336 335 343 349 352 356 359 357 356 358 358 361 361 364 363 360 359 359 358 357
327 335 335 333 335 337 337 333 336 338 338 338 340 338 337 338 339 340 331 330 330 330 332 336 334 333 334 346 353 355 357 361 360 360 358 363 364 365 362 360 360 360 357 355
329 333 332 333 334 332 339 338 337 341 342 344 343 342 340 341 342 341 339 337 329 331 329 330 336 339 347 347 354 357 360 362 362 363 363 362 363 362 361 361 359 353 353 353
329 330 332 336 337 338 338 337 338 343 343 342 342 342 342 341 340 339 338 336 341 340 336 337 340 347 352 351 354 360 362 363 362 364 363 364 362 359 359 356 352 352 351 349
327 327 331 335 336 343 340 342 341 341 342 341 341 339 340 339 339 337 345 345 344 346 346 344 346 351 356 357 357 361 362 363 362 362 361 361 360 360 356 354 350 351 349 347
329 330 327 333 340 341 339 338 338 339 340 344 344 344 344 341 346 347 347 347 347 350 352 353 354 356 358 359 361 361 360 358 358 359 361 360 358 356 355 354 350 349 347 345
334 333 335 332 342 338 336 337 336 339 342 343 342 346 345 348 348 348 348 348 349 352 353 354 354 356 359 359 360 361 359 359 361 360 357 355 353 352 350 347 346 345 343 343
327 333 338 344 336 338 337 335 336 335 335 337 338 339 339 338 338 340 345 344 344 347 350 352 354 355 357 357 356 356 357 357 354 356 354 350 349 347 346 345 344 343 343 342

GFSCGP_850_thetae_030.txt.gz
Theta_e
323 320 322 322 320 322 322 324 324 326 330 339 338 338 338 345 346 347 347 347 347 346 346 345 345 346 349 347 346 346 349 349 350 350 348 343 343 345 344 345 347 347 347 347
320 321 321 322 322 322 322 323 324 325 328 337 339 340 337 341 343 345 345 346 346 346 346 346 346 346 348 348 348 348 348 349 350 349 350 350 348 341 342 347 349 348 349 349
319 320 322 324 324 324 323 323 323 325 328 340 341 343 342 338 341 343 344 344 345 345 345 346 346 346 347 347 348 348 348 349 350 350 351 351 350 344 345 348 348 345 350 350
319 322 323 323 325 324 321 324 325 326 328 337 339 343 344 340 336 336 342 343 344 344 344 344 346 346 346 346 347 347 348 348 349 349 350 352 351 347 346 346 346 346 349 350
323 324 324 324 325 325 323 324 325 326 327 333 340 340 338 340 341 337 338 342 343 344 344 344 344 345 345 346 346 347 347 348 348 348 349 351 351 349 344 351 349 348 348 350
324 325 323 324 325 324 324 322 322 325 324 333 331 341 337 341 342 341 340 340 342 343 344 344 344 344 345 346 346 346 347 348 348 349 349 348 348 348 343 350 347 347 345 350
325 324 322 324 322 322 322 319 320 323 324 327 329 337 338 337 341 342 341 341 341 342 343 343 344 345 345 346 346 346 347 348 348 349 349 349 348 346 344 350 348 345 345 348
325 326 324 323 324 323 318 320 320 322 324 325 325 336 337 336 339 342 342 343 341 340 342 343 343 344 344 345 346 346 347 348 348 349 349 350 348 343 345 347 348 346 348 347
322 324 325 325 324 323 321 319 319 319 323 325 326 330 331 336 337 342 343 343 341 340 340 342 342 343 344 345 346 346 347 348 348 348 348 350 350 342 347 346 350 348 349 348
320 323 324 326 324 323 323 318 320 315 320 322 324 328 331 332 338 338 343 343 343 341 340 340 341 343 343 344 344 346 347 347 347 347 348 349 350 346 342 347 350 351 350 350
321 319 322 325 325 325 323 320 318 318 318 322 321 324 324 327 331 336 341 342 342 341 341 340 341 341 341 342 345 345 346 348 348 348 349 349 351 349 343 343 347 349 349 350
319 319 321 322 322 325 325 323 318 322 319 319 322 324 328 325 330 336 339 341 341 342 342 343 343 341 342 345 346 345 346 347 348 348 349 349 350 351 347 343 342 345 348 348
321 319 320 320 321 322 323 323 323 314 316 322 323 323 323 323 333 338 338 340 340 341 341 341 343 342 342 343 345 347 345 345 346 349 349 349 350 350 349 343 339 340 343 348
316 321 320 324 323 322 322 324 322 321 322 321 322 323 323 324 332 336 340 341 341 341 340 341 342 344 343 343 344 346 345 345 345 347 350 350 349 349 344 343 341 336 337 339
314 316 320 320 323 324 325 326 325 322 323 322 322 320 320 320 328 334 339 340 339 341 340 340 340 343 345 344 345 345 346 346 345 347 349 349 349 347 346 344 341 339 337 337
312 317 316 322 325 324 324 325 326 325 324 322 320 320 319 321 325 330 336 337 338 339 340 338 339 341 345 345 346 345 345 345 347 348 347 347 348 348 347 344 341 341 338 338
314 315 316 320 324 324 325 326 326 326 326 324 322 322 321 324 329 330 335 336 338 338 338 338 339 344 345 345 345 346 346 346 347 347 347 347 347 347 346 344 344 341 341 340
316 316 316 319 320 325 325 325 325 324 325 325 324 323 323 324 326 329 332 337 339 337 335 336 340 344 345 347 347 346 347 347 347 349 348 347 347 346 347 345 342 342 342 343
316 317 319 320 325 326 330 325 325 323 324 327 325 324 324 326 328 336 330 329 329 332 334 334 336 342 345 345 346 347 348 348 349 350 350 348 346 346 346 346 344 343 346 346
316 317 320 321 324 328 327 329 329 328 327 339 326 327 329 326 324 328 337 334 330 329 331 334 332 335 338 343 346 345 345 346 347 347 347 348 347 346 346 347 349 349 350 351
328 326 323 322 323 324 328 331 330 330 329 340 336 335 333 334 330 337 336 334 333 333 331 332 332 335 336 338 342 344 345 345 344 345 345 347 348 347 346 348 352 354 354 356
327 329 328 326 329 328 332 337 329 329 339 340 339 339 339 339 340 342 340 337 334 332 332 333 334 331 331 334 337 342 345 343 343 346 348 349 351 351 350 351 354 357 358 357
326 326 328 329 332 328 329 340 344 345 346 347 343 342 344 346 350 348 347 345 346 343 339 336 332 332 331 331 332 334 340 343 344 348 349 349 352 352 352 354 358 359 357 359
326 325 329 330 328 332 329 335 341 343 343 345 347 347 349 351 353 353 350 349 347 347 351 347 339 334 333 331 331 331 332 338 349 352 353 353 353 355 356 358 359 359 358 356
325 327 329 330 330 331 329 329 340 341 342 342 344 345 347 351 352 354 355 355 353 351 352 356 355 353 352 346 345 339 343 351 357 355 357 358 359 361 363 364 364 359 354 352
323 325 329 334 328 329 326 327 330 332 333 333 337 342 344 348 349 351 352 353 353 354 355 356 358 359 360 363 362 363 361 357 359 358 362 363 364 362 361 363 357 352 350 348

GFSCGP_850_thetae_033.txt.gz
Theta_e
321 320 321 322 319 321 322 322 323 324 331 337 336 337 348 347 346 345 345 346 348 350 349 350 350 349 348 349 346 347 347 349 350 347 348 349 351 350 348 348 346 347 347 347
319 321 320 321 321 321 320 322 322 322 325 329 332 338 347 346 346 346 345 345 345 346 347 350 350 349 349 349 347 347 347 348 349 350 348 347 345 347 348 347 345 345 346 347
321 321 320 321 321 322 320 320 322 322 325 331 336 339 344 347 347 347 346 346 345 345 345 345 346 347 348 349 347 347 347 346 347 348 349 348 347 345 343 343 345 348 348 347
317 319 321 320 321 322 321 321 323 323 324 325 336 342 338 344 347 345 346 346 346 345 345 344 344 344 345 346 347 347 346 346 347 348 349 349 349 350 346 341 343 345 344 345
318 318 320 321 322 322 323 323 323 324 323 324 329 337 336 338 343 342 342 344 345 346 345 344 344 344 344 345 345 346 347 347 347 348 348 349 348 349 348 343 345 345 346 346
320 321 319 320 322 322 323 324 320 322 319 323 324 331 332 340 339 338 337 342 343 344 344 344 344 345 345 345 345 346 347 347 347 347 347 348 348 347 349 345 345 348 349 347
320 320 321 322 321 321 321 318 320 319 320 323 321 327 328 331 338 338 337 337 342 343 343 344 343 344 345 346 346 345 346 347 347 347 347 348 348 347 346 347 343 349 348 348
322 324 321 320 321 321 319 320 317 320 320 321 322 326 327 331 334 338 339 339 338 341 342 343 343 343 344 345 345 345 345 346 347 347 347 347 347 348 348 346 343 347 345 345
322 323 323 323 321 322 319 320 319 316 320 319 322 324 328 330 331 333 337 339 339 339 342 342 343 343 343 344 344 344 345 345 346 346 347 347 347 348 349 346 344 346 344 344
319 322 321 323 322 320 321 316 319 310 320 320 319 324 327 330 331 332 336 339 340 339 340 341 342 343 343 343 344 344 344 344 345 346 346 347 347 347 349 348 341 343 345 346
316 317 321 322 321 324 319 319 316 316 314 319 318 321 322 327 330 332 335 339 340 340 340 340 341 342 342 342 343 344 344 344 345 345 346 347 347 347 348 350 339 341 342 346
317 312 320 322 321 323 322 320 315 317 317 315 320 320 323 325 324 327 333 339 341 342 341 339 341 341 342 342 343 343 344 344 344 345 345 346 347 347 348 349 344 339 342 346
318 317 316 317 317 317 321 321 320 320 314 320 319 319 319 321 324 328 331 333 337 341 342 341 341 340 340 342 343 343 343 343 343 345 346 346 347 347 348 349 348 338 340 344
314 313 317 319 318 319 319 321 322 319 320 322 321 321 322 322 321 325 332 335 336 340 342 342 341 340 340 340 341 343 343 343 343 344 345 346 347 346 348 348 349 342 337 339
312 315 315 317 318 319 321 321 322 320 322 322 323 319 319 319 321 324 330 334 337 338 340 341 342 341 341 341 341 342 343 345 345 344 345 346 347 346 348 348 348 346 342 338
310 315 314 318 319 320 321 321 322 323 323 320 320 318 317 320 321 321 325 327 333 338 339 340 340 342 342 342 342 342 342 343 345 345 344 344 347 346 347 348 348 348 346 345
311 314 315 317 318 319 322 322 323 323 323 323 322 319 318 318 318 319 322 325 328 331 337 339 340 340 341 340 341 341 342 343 344 345 344 345 346 345 346 348 348 348 347 346
311 313 314 316 317 323 322 322 324 323 322 321 321 319 320 321 323 325 327 326 328 331 335 339 340 339 339 339 340 340 342 344 345 345 345 346 346 345 346 348 348 348 348 346
311 313 315 318 319 321 322 324 323 321 323 323 323 321 320 323 325 326 328 329 330 330 336 338 339 339 338 338 339 341 344 344 345 346 346 346 346 346 347 347 347 348 350 349
311 312 317 316 320 323 324 329 329 327 324 323 322 322 321 322 323 324 330 329 329 329 333 338 338 336 339 340 340 343 344 346 346 344 345 345 346 347 347 346 346 346 348 348
314 315 318 319 321 320 323 331 333 326 325 330 329 323 321 321 325 328 334 333 331 329 328 333 333 333 333 340 342 343 344 345 343 346 346 346 347 347 347 347 350 350 350 353
320 323 320 319 326 325 330 333 339 333 337 336 334 330 327 330 328 334 335 334 333 332 334 334 333 333 332 335 341 343 342 340 339 339 344 347 347 347 349 351 351 354 354 354
318 322 322 323 326 326 329 331 330 333 338 341 337 337 335 338 338 336 337 336 334 333 333 332 332 332 333 333 335 341 341 338 339 342 344 345 345 348 351 352 350 355 355 354
317 319 323 327 329 330 331 330 331 334 336 341 345 346 342 345 346 346 346 346 343 342 339 338 336 335 334 336 337 333 337 340 344 343 343 343 344 347 350 352 354 356 359 359
315 319 321 327 329 328 331 328 327 331 336 342 344 348 350 352 354 352 353 351 349 347 347 349 349 351 353 354 352 351 348 341 347 349 347 347 348 350 353 356 358 358 359 359
315 321 323 326 328 329 328 326 327 328 332 337 345 347 348 351 352 353 353 353 354 354 354 353 354 353 350 349 350 352 356 359 356 355 352 352 353 354 357 357 355 356 359 354

GFSCGP_850_thetae_036.txt.gz
Theta_e
322 320 321 319 318 320 321 322 324 324 327 334 331 335 345 345 346 347 348 348 347 347 345 346 347 347 346 345 346 345 342 341 338 335 343 346 345 348 348 348 347 347 346 346
316 321 320 320 319 321 320 321 322 321 322 325 324 334 346 345 346 347 348 348 348 348 347 347 347 349 349 346 347 346 344 343 343 342 344 345 346 344 347 349 348 347 345 344
321 319 320 321 320 321 319 321 321 322 322 325 334 334 345 346 346 346 346 347 348 348 348 348 347 348 349 349 347 347 345 343 345 348 347 347 347 347 347 350 349 347 345 344
317 319 321 318 320 320 318 319 322 322 321 322 331 332 339 347 347 345 344 344 346 347 348 348 348 348 348 348 348 348 347 346 344 348 349 348 348 347 346 346 346 347 345 346
319 318 319 320 322 320 321 321 320 321 320 321 325 332 332 342 348 346 345 344 344 344 345 346 346 345 344 346 346 347 348 347 346 346 347 347 348 347 346 347 347 342 343 346
318 318 320 319 319 320 320 321 317 316 317 320 321 325 323 337 347 347 345 345 345 345 344 345 344 344 345 346 346 345 347 347 347 346 346 347 347 347 347 348 348 341 343 345
319 319 319 318 319 319 320 318 318 319 319 324 319 323 325 330 336 342 344 344 344 346 345 345 345 344 344 344 344 343 344 346 346 346 346 347 347 347 347 347 346 343 343 342
319 320 319 318 318 318 318 316 317 319 319 322 317 322 323 325 334 336 339 341 342 343 345 345 345 344 343 341 340 343 343 344 345 346 346 347 347 347 347 347 346 342 342 346
318 320 321 319 320 320 317 319 316 315 316 316 318 320 324 325 326 334 336 336 337 339 342 344 344 344 343 343 342 342 343 343 344 345 345 346 347 347 347 347 347 345 341 345
319 321 320 319 320 319 317 316 319 311 320 319 317 320 324 327 327 328 330 335 337 337 338 341 342 343 343 343 343 343 343 342 343 343 344 345 346 346 346 346 347 347 345 341
315 317 319 319 321 322 317 316 315 317 313 318 317 319 318 325 325 326 328 332 335 337 338 338 339 340 342 342 342 342 343 343 343 344 344 345 346 346 346 346 346 348 345 341
318 311 318 319 320 321 322 319 313 317 316 314 314 319 319 320 324 325 326 328 331 334 336 338 339 340 341 341 342 342 342 343 343 343 343 344 344 345 346 346 346 347 348 341
316 314 314 318 319 319 320 319 318 317 312 317 318 320 319 318 321 323 327 331 332 334 338 339 339 339 340 341 341 342 342 342 342 343 343 343 344 345 345 345 346 346 348 343
313 312 314 319 318 317 317 319 318 319 321 321 320 319 321 319 320 320 323 326 327 329 332 337 339 339 340 340 341 341 341 342 342 343 343 343 343 344 344 345 346 346 347 347
310 315 315 316 316 318 319 319 319 319 320 321 321 320 318 318 319 321 323 325 328 329 330 334 338 340 340 340 340 341 341 342 342 342 343 343 343 344 344 345 345 345 346 347
307 312 314 316 317 317 318 318 319 319 319 319 320 319 318 320 321 321 323 325 327 330 329 329 337 340 340 340 340 341 341 342 341 342 341 342 344 344 343 344 345 346 345 346
308 310 314 315 316 317 319 318 319 319 319 319 320 320 319 318 317 319 323 325 325 326 327 327 328 339 341 341 341 341 342 342 341 341 341 342 343 343 343 344 344 345 346 345
308 310 312 314 316 319 318 317 320 320 320 319 319 320 320 321 323 325 325 325 325 325 325 326 327 329 336 341 341 342 341 341 341 341 342 343 343 343 344 345 344 345 345 346
308 308 311 315 316 316 317 323 329 329 325 321 320 320 319 321 323 321 324 324 326 327 327 326 330 332 333 339 341 341 341 341 341 342 342 343 344 344 345 345 344 344 345 346
308 309 310 313 317 319 323 327 329 330 332 322 324 321 321 319 320 323 325 325 326 327 329 329 331 337 337 339 340 339 340 340 341 342 341 341 343 344 344 344 344 345 345 346
309 310 312 313 318 318 317 329 334 332 327 332 333 334 321 320 323 326 328 325 326 327 328 329 334 337 337 338 339 338 338 338 338 340 341 342 342 343 343 344 346 348 348 347
310 312 313 312 317 317 325 329 336 329 331 333 334 336 337 323 326 325 327 328 329 329 329 329 335 336 337 338 339 340 340 339 341 342 344 345 344 344 346 348 349 351 349 351
312 313 316 313 314 316 326 327 330 330 331 333 334 337 340 329 324 326 328 334 334 337 334 332 331 332 332 334 338 341 342 343 344 345 346 347 348 350 352 354 354 355 355 355
312 311 316 317 318 320 326 329 329 330 333 333 334 342 341 330 332 335 338 341 346 346 342 341 337 338 339 338 335 336 340 342 343 343 344 344 347 349 353 356 357 357 357 358
309 308 311 317 318 323 328 327 331 335 337 336 340 345 345 341 351 353 355 355 355 355 354 352 351 351 350 350 350 351 351 351 347 343 346 347 345 348 350 354 356 358 359 358
309 309 312 316 317 322 326 327 331 338 334 336 345 347 347 352 353 353 353 352 352 352 350 349 348 347 346 345 344 343 342 343 345 350 352 351 350 348 349 352 351 355 357 358

GFSCGP_850_thetae_039.txt.gz
Theta_e
323 323 325 324 323 324 324 326 329 330 329 331 336 340 339 343 348 349 348 346 345 345 345 346 347 348 348 342 341 342 340 336 336 336 332 331 338 342 346 346 347 347 346 346
321 323 323 323 323 322 322 325 328 328 326 327 330 333 335 343 346 348 349 348 347 346 346 347 347 348 348 341 342 344 341 336 335 334 333 332 338 344 346 347 347 347 347 345
322 322 322 323 323 324 323 323 327 328 326 326 330 332 338 345 345 346 348 349 348 347 347 347 348 348 348 344 343 344 344 341 338 338 336 333 340 344 344 344 347 348 348 346
321 322 323 322 323 324 324 323 323 325 327 331 331 336 338 342 348 348 347 348 348 348 348 348 347 349 348 345 345 345 346 345 342 342 337 337 343 345 345 345 344 346 348 347
322 322 323 323 323 324 324 323 324 325 327 328 329 331 334 342 349 349 347 347 348 348 348 348 348 345 344 344 346 347 346 347 345 343 344 343 344 346 346 346 343 344 347 349
322 320 323 324 323 324 324 325 324 324 326 328 329 330 333 337 345 347 347 346 346 348 348 348 349 348 347 348 347 347 347 347 347 346 344 345 347 348 347 347 346 346 346 344
322 321 322 323 323 323 324 324 326 325 326 327 329 329 331 332 339 339 346 346 346 346 346 347 348 348 348 347 343 343 345 346 347 348 346 345 345 347 347 346 347 347 348 342
323 323 322 322 324 323 324 324 324 325 325 325 327 329 331 330 330 335 339 342 345 346 346 346 346 346 345 344 343 341 341 343 345 346 347 346 346 346 346 346 347 347 348 346
324 324 322 322 323 324 324 326 324 323 322 324 326 327 328 329 330 335 338 341 344 345 346 347 346 345 344 344 344 342 340 339 341 342 344 346 346 346 346 346 346 347 347 346
324 325 323 322 322 323 323 324 323 324 324 324 325 327 329 333 332 333 337 338 339 342 344 346 347 346 344 344 344 343 342 339 338 339 340 343 344 345 345 346 346 346 347 346
321 324 324 323 323 323 321 324 323 324 323 323 323 325 328 333 336 334 333 334 336 337 340 342 344 344 344 344 345 344 343 342 340 340 340 341 343 344 345 346 346 346 346 347
320 320 327 325 324 325 323 324 324 325 326 324 324 324 326 329 332 333 333 333 334 336 336 336 339 342 344 344 344 343 343 343 342 342 341 341 342 343 344 345 345 346 346 346
319 322 327 326 325 322 325 325 324 325 325 329 324 324 328 327 327 327 329 330 331 332 337 339 338 339 340 340 342 342 341 341 341 342 342 342 342 343 343 343 344 345 346 346
317 319 324 327 326 322 324 324 325 325 327 326 327 326 326 327 328 329 327 327 330 331 333 334 334 336 337 339 340 340 341 340 340 341 342 342 342 342 342 342 343 344 345 346
315 319 318 318 318 318 320 321 322 324 326 329 327 329 327 327 327 329 330 331 328 329 330 328 330 332 335 338 339 340 340 341 342 341 341 341 342 342 342 343 343 343 344 345
313 315 318 316 316 317 319 321 321 322 322 323 324 326 326 327 326 327 327 327 328 325 325 327 327 329 334 337 339 339 340 340 341 341 341 341 342 342 342 342 342 342 343 345
312 314 316 316 316 318 320 321 321 322 322 323 325 325 326 326 327 327 328 327 329 326 327 327 328 328 329 331 337 340 340 340 340 341 341 341 342 342 342 342 342 342 343 344
311 315 317 315 316 319 321 321 321 323 324 323 323 324 325 326 326 326 324 325 327 326 326 326 326 326 326 327 332 337 340 340 340 341 341 342 342 342 343 344 343 342 342 343
309 311 314 313 316 317 317 319 325 329 328 330 326 324 325 324 325 328 326 325 325 326 327 327 327 326 327 326 326 335 339 340 340 340 341 341 341 342 342 344 343 343 343 343
309 310 312 313 313 317 320 321 321 327 329 330 336 335 328 325 328 328 325 325 325 325 326 327 328 326 327 328 328 333 336 339 340 340 341 341 341 341 342 342 342 345 345 344
313 311 312 311 313 314 317 320 333 332 330 335 337 337 338 339 330 327 327 327 325 325 325 326 326 328 329 333 334 334 336 339 341 341 340 341 342 342 345 348 349 351 352 354
312 314 314 311 312 311 315 320 322 331 333 333 334 336 338 338 339 338 330 325 327 326 325 326 327 328 331 335 335 336 337 339 339 340 340 340 341 344 350 349 349 350 351 352
313 312 315 313 311 312 315 317 320 323 328 329 334 335 337 338 339 340 338 331 330 330 328 328 328 330 335 336 338 337 336 336 337 339 341 342 343 345 348 348 345 338 337 353
311 312 315 314 313 314 313 315 317 321 329 331 334 336 338 338 341 343 337 341 336 337 336 332 333 333 333 334 337 339 341 341 342 343 343 345 346 348 351 354 353 352 352 353
310 311 312 313 312 312 312 314 316 318 325 328 333 338 341 342 346 342 344 346 346 346 342 343 349 350 351 351 349 349 349 346 342 341 343 343 344 346 349 352 354 356 356 355
308 311 313 312 312 313 316 319 321 323 327 329 335 338 341 346 346 348 350 355 357 356 353 349 346 345 344 343 342 342 341 342 343 344 346 347 347 347 348 349 351 355 355 355

GFSCGP_850_thetae_042.txt.gz
Theta_e
324 326 327 326 329 330 331 332 334 337 336 337 340 342 343 342 347 347 350 349 349 347 345 345 346 346 346 347 348 349 349 345 344 343 345 343 342 341 342 345 345 343 345 346
324 326 326 326 325 327 328 330 332 335 334 334 337 338 339 339 344 346 348 349 349 348 347 346 346 346 346 348 349 351 350 346 338 347 344 343 342 342 343 347 351 345 347 346
326 325 325 325 326 327 327 329 331 333 334 332 334 336 337 336 339 342 345 348 349 349 347 346 345 346 345 347 350 352 350 347 341 348 348 347 344 344 346 349 352 351 347 347
326 325 325 325 326 326 327 327 328 330 332 336 334 340 340 339 341 344 344 347 349 348 348 347 345 345 346 348 351 352 353 350 348 342 347 345 344 344 347 349 350 350 348 348
325 325 324 325 325 325 325 326 326 327 329 331 334 336 337 339 340 344 346 345 348 348 349 348 347 345 345 347 350 352 351 344 346 340 343 347 345 344 349 350 350 350 351 347
324 323 325 325 325 325 325 325 326 327 328 331 333 335 337 338 340 340 344 344 347 348 348 349 348 345 346 347 350 352 354 345 345 344 341 341 344 344 349 352 352 352 352 351
324 325 324 324 326 326 325 326 327 327 328 330 332 333 335 335 336 339 341 343 345 348 348 349 349 349 346 347 349 352 353 346 346 346 345 343 341 342 347 352 353 351 350 350
326 326 325 325 326 327 325 326 327 328 327 328 330 331 333 334 334 335 336 338 344 347 348 348 349 350 350 349 348 351 352 349 346 347 347 346 345 344 350 352 353 353 350 349
328 328 326 326 325 327 327 329 326 327 328 328 329 329 330 332 334 334 334 335 338 344 347 348 348 349 351 352 351 351 348 339 341 344 346 346 347 347 351 351 351 353 352 350
329 330 327 325 326 326 328 327 326 327 328 329 327 329 330 332 332 334 334 336 337 341 345 347 347 348 349 351 353 353 348 340 337 339 342 344 344 345 346 346 347 349 352 351
327 329 329 326 326 327 326 327 327 327 327 328 329 329 330 331 333 333 334 335 338 341 344 346 347 347 348 349 350 354 354 347 343 340 337 339 341 341 343 345 346 346 346 347
326 328 331 328 326 327 327 327 328 328 330 328 329 329 328 329 330 333 333 334 336 338 340 343 343 346 347 349 350 350 353 355 350 343 341 337 338 339 340 342 343 345 345 346
325 327 331 331 328 327 327 327 327 327 328 331 329 328 329 330 330 332 333 333 334 336 338 339 340 342 345 348 349 349 351 351 354 354 347 342 339 339 339 339 340 342 344 345
319 327 330 332 331 329 328 327 327 327 330 329 331 330 329 329 330 331 330 330 330 333 335 336 338 341 342 345 347 349 348 350 352 353 354 349 342 341 340 339 339 341 343 344
319 327 326 329 325 325 329 328 328 328 329 330 330 330 331 330 330 330 330 330 331 333 335 337 340 340 340 343 346 348 349 348 349 351 353 351 342 342 342 341 341 341 342 343
317 324 323 326 324 323 324 326 327 328 329 329 330 331 330 330 329 329 329 328 329 328 331 333 337 341 342 345 347 349 349 347 348 349 348 346 346 344 342 342 342 342 342 343
315 319 321 326 324 324 325 326 326 327 328 329 330 330 330 330 330 329 329 329 329 329 330 330 335 339 340 340 337 339 339 349 348 346 344 343 344 345 343 345 346 344 345 345
315 316 318 323 324 326 326 327 326 326 327 327 328 329 329 329 328 328 328 329 329 328 330 331 331 332 339 339 338 345 347 346 345 342 341 343 343 343 345 345 343 343 344 345
313 315 317 320 322 324 325 323 324 326 328 327 328 328 328 326 326 327 327 327 328 329 330 331 330 331 331 333 337 343 347 348 348 342 341 341 342 343 345 343 343 355 356 357
312 313 315 318 320 323 323 323 322 324 327 329 330 333 335 331 330 330 327 328 329 329 329 330 331 331 332 333 335 339 347 348 337 339 341 341 341 342 342 347 354 357 357 357
312 313 314 315 317 319 320 322 328 328 338 335 333 335 337 340 339 338 337 336 335 335 333 332 332 333 332 336 331 336 345 343 331 349 348 345 343 344 350 351 353 354 356 356
315 314 313 314 315 315 315 317 321 326 324 327 329 330 332 333 335 335 336 339 340 338 336 331 334 334 337 335 328 330 334 335 347 350 351 350 350 352 356 351 352 355 356 351
313 312 314 314 314 314 314 315 317 318 319 321 323 328 329 331 333 335 336 339 343 342 336 337 340 337 340 331 329 334 336 336 342 348 348 349 350 354 354 354 356 357 356 356
311 311 314 315 314 315 314 314 315 315 316 318 321 321 325 327 330 335 337 340 346 341 345 348 346 348 350 334 334 335 337 338 339 338 339 343 352 356 355 358 359 358 357 357
312 313 313 314 314 313 313 314 314 314 313 314 316 319 324 326 327 334 336 345 347 344 352 351 354 354 356 338 347 341 339 340 340 342 346 348 356 351 359 359 359 359 357 355
311 312 313 314 313 313 313 313 314 316 319 319 320 322 324 327 329 333 340 348 350 352 353 356 358 357 355 351 350 356 347 341 347 353 354 355 356 357 357 354 356 357 357 356

GFSCGP_850_thetae_045.txt.gz
Theta_e
332 335 336 332 337 337 335 334 336 338 340 340 342 342 344 346 347 346 349 350 349 347 345 345 346 345 345 347 348 350 350 349 349 349 349 346 345 345 344 343 346 349 351 354
332 335 332 331 331 335 335 335 335 335 338 340 341 344 344 344 346 346 347 350 349 349 346 345 345 345 345 347 348 350 351 350 349 349 347 345 344 344 343 343 345 350 353 355
329 331 330 327 328 331 335 335 334 335 336 340 339 342 341 342 341 345 344 349 349 350 349 346 345 345 345 346 348 350 350 350 349 348 348 347 345 343 344 344 347 352 354 356
328 328 327 327 328 328 328 331 333 333 336 341 338 342 341 340 341 342 342 346 349 349 350 348 346 345 345 345 348 350 350 349 349 345 350 348 346 344 343 345 347 351 354 355
328 327 327 327 327 328 328 329 331 332 334 337 338 341 341 341 341 341 342 342 346 348 349 349 347 345 345 345 346 349 351 351 348 348 345 350 348 346 346 346 348 350 353 353
329 327 328 328 328 328 328 328 329 330 332 335 337 340 341 340 342 341 342 342 343 348 349 349 348 346 344 344 345 348 354 354 350 352 340 347 349 347 345 348 350 351 352 354
328 329 328 328 328 328 327 327 328 329 332 333 333 336 339 338 338 340 341 342 342 346 348 349 348 347 344 344 347 349 353 355 354 353 351 339 345 347 346 348 352 351 350 350
328 328 329 327 328 328 328 327 328 331 330 330 332 335 337 337 336 337 339 340 342 344 347 349 349 349 346 345 346 348 352 353 352 348 346 343 340 350 350 350 353 352 351 349
330 330 329 328 328 329 329 329 328 329 330 330 330 332 333 335 336 336 336 338 341 343 346 348 349 349 348 346 347 348 350 354 352 348 347 346 344 343 352 350 350 355 353 350
330 332 330 328 328 328 330 329 328 329 332 332 331 332 333 334 334 335 336 338 338 342 345 348 349 350 349 349 347 349 350 354 345 341 342 344 345 345 345 351 352 355 354 353
330 333 334 331 329 329 329 330 329 329 329 331 333 332 333 334 334 334 336 335 336 338 344 346 347 349 351 350 350 350 352 352 355 346 341 342 343 344 345 346 348 347 350 354
329 331 334 332 329 329 329 330 331 333 333 330 332 333 333 333 333 334 334 335 335 337 340 343 346 348 349 351 352 353 354 355 354 349 343 339 338 341 343 343 346 346 345 346
329 331 334 335 331 330 330 329 330 330 330 333 331 333 332 332 332 333 334 334 335 337 339 341 344 347 348 349 351 353 354 356 358 359 358 352 342 340 338 340 341 343 343 345
322 329 333 336 335 331 330 330 330 331 333 332 333 332 332 332 332 335 335 334 336 338 339 341 343 345 346 348 349 352 352 353 356 359 360 359 356 342 339 338 337 339 341 342
324 330 331 332 334 332 331 330 330 331 332 332 332 333 333 332 333 333 333 334 334 335 337 338 339 341 343 346 348 352 351 352 352 355 358 358 358 355 352 344 338 337 338 339
322 326 330 333 332 331 330 331 330 330 330 331 331 333 334 333 331 332 332 332 331 332 334 335 337 339 340 342 347 350 354 350 352 353 355 357 358 358 356 352 345 342 339 340
319 324 330 333 332 330 331 331 332 331 331 331 332 332 333 333 333 332 331 332 332 332 331 332 332 336 340 343 344 347 351 354 352 352 355 356 357 356 355 354 353 345 342 346
317 321 324 328 331 334 331 331 330 330 331 331 331 332 333 333 332 332 332 332 332 332 332 331 332 333 336 339 342 345 348 352 353 353 352 357 357 357 355 353 352 356 357 354
315 318 322 325 330 330 330 329 330 330 331 330 331 331 331 330 330 331 330 330 330 330 331 331 332 332 332 333 337 339 345 349 354 351 352 349 359 357 357 352 358 359 355 357
314 316 318 323 327 332 329 328 326 328 331 330 330 330 331 331 332 332 330 333 335 336 336 338 334 332 333 334 334 335 339 345 349 341 348 354 357 358 355 354 350 351 351 350
314 316 317 319 323 325 326 327 326 328 340 335 332 331 333 337 340 340 339 338 338 339 341 340 339 337 336 336 335 335 336 340 333 353 355 356 356 358 355 352 352 352 354 360
318 316 317 318 320 322 322 322 325 327 330 329 330 331 333 334 335 335 336 338 338 339 342 342 341 338 335 337 338 338 338 333 343 347 353 356 357 356 360 356 355 357 356 357
314 317 317 317 318 319 319 319 319 320 321 322 323 324 326 327 327 330 333 336 339 340 345 346 342 340 344 342 344 348 335 343 344 348 352 356 358 356 358 359 359 362 360 361
314 314 315 316 317 317 316 316 316 317 317 318 319 320 320 321 322 326 329 331 337 339 346 347 345 349 346 350 353 349 343 354 351 352 354 358 359 358 357 362 363 362 361 361
313 314 314 315 315 314 314 315 315 315 316 316 317 317 319 323 323 325 328 330 335 338 348 348 352 351 351 355 358 357 355 357 357 357 359 359 361 361 362 361 362 361 361 361
312 313 314 314 314 315 315 314 314 315 315 315 316 318 319 320 320 322 325 329 336 343 351 352 355 360 361 359 358 362 359 359 359 358 358 359 360 362 362 361 360 361 361 360

GFSCGP_850_thetae_048.txt.gz
Theta_e
332 332 333 333 335 336 338 339 337 338 340 341 340 344 345 344 345 346 349 350 347 347 347 347 347 347 347 347 347 347 347 347 348 348 348 351 347 347 346 344 344 347 349 345
334 335 333 332 334 335 337 337 336 335 338 340 341 342 349 346 345 346 350 350 350 347 346 347 347 347 347 348 348 348 347 348 350 348 349 346 348 346 345 344 344 345 349 349
335 335 334 333 334 333 337 338 336 335 336 341 341 342 345 349 348 341 344 350 350 349 347 347 347 347 347 348 348 348 349 349 348 349 349 349 346 345 345 344 343 345 346 353
335 334 333 334 333 332 333 336 337 336 336 337 342 345 346 344 345 347 347 349 349 350 348 347 347 346 346 347 347 348 348 349 349 348 350 348 345 345 345 344 344 345 348 347
336 334 332 333 332 331 331 332 334 335 335 335 336 343 342 345 345 343 346 345 349 349 349 348 347 346 346 346 349 349 348 349 350 347 350 349 347 344 345 343 345 346 350 352
334 333 330 329 330 328 329 329 330 333 334 337 336 341 342 343 345 342 343 342 348 349 350 350 347 346 346 346 348 350 349 348 347 347 343 351 349 347 345 346 346 347 350 354
334 336 330 329 329 328 328 328 329 330 333 335 334 337 342 342 343 342 343 341 342 349 350 351 349 347 346 346 347 349 351 351 349 347 341 341 352 350 348 346 345 350 352 352
330 335 333 329 329 329 328 328 331 332 332 331 333 337 339 339 340 340 340 341 342 344 349 350 350 349 347 346 346 348 350 349 348 345 342 335 339 349 344 345 351 349 352 352
332 331 331 331 329 330 328 329 329 329 330 330 331 333 334 337 338 339 338 341 343 343 349 350 351 350 348 346 346 346 349 347 347 341 345 342 337 336 337 340 345 354 350 353
330 331 330 330 330 329 330 329 328 329 332 334 331 336 336 337 339 339 338 339 340 343 346 350 351 351 349 346 345 346 348 349 348 346 342 338 335 338 336 338 341 349 356 352
326 329 331 331 331 330 329 331 329 328 329 332 333 333 336 339 338 339 339 337 337 342 345 348 350 351 350 348 346 347 350 351 351 349 344 341 339 339 341 340 339 344 347 356
329 327 331 332 332 330 329 330 331 333 335 332 334 333 335 336 338 337 337 337 336 339 345 346 349 351 351 350 348 348 350 352 351 349 350 347 345 343 342 343 343 343 345 346
325 330 332 333 334 331 331 330 329 331 330 336 333 332 334 334 336 336 336 335 337 339 342 346 347 351 352 352 351 350 351 352 354 359 357 354 351 348 346 342 342 345 344 345
322 328 333 335 336 335 333 330 330 330 334 332 334 334 333 333 332 335 336 334 337 338 337 346 347 348 352 352 352 352 352 352 355 357 361 361 358 354 351 347 344 341 343 342
325 330 331 332 333 335 331 330 331 331 333 334 334 336 335 334 334 336 336 336 336 338 340 342 345 347 349 352 353 353 353 354 355 356 358 360 359 357 357 355 351 349 343 342
321 329 330 333 333 333 335 331 331 331 331 332 333 334 336 336 334 337 336 335 336 337 338 339 340 341 348 350 351 353 354 355 355 356 357 358 358 359 359 358 355 355 349 346
320 324 328 332 333 334 335 334 332 332 332 332 334 336 337 337 337 337 335 334 333 333 335 336 337 338 340 342 350 353 351 352 355 354 356 358 358 359 359 358 358 357 354 351
317 320 325 330 333 337 334 334 332 332 333 332 333 334 335 338 335 334 333 333 333 333 333 333 333 333 335 339 343 350 354 354 352 353 355 356 360 360 360 359 359 359 357 355
316 318 323 329 332 334 333 333 333 332 333 333 333 334 334 333 334 334 333 333 333 333 333 332 333 333 333 338 337 343 345 349 353 353 351 354 356 359 360 360 358 358 359 358
315 317 320 326 329 333 332 332 331 332 333 332 332 332 333 332 333 338 339 340 341 342 342 342 341 339 338 338 337 342 344 348 349 348 346 349 355 358 359 360 359 358 358 356
315 316 319 322 325 329 328 328 329 332 341 335 336 336 332 336 341 340 340 340 340 341 341 342 342 342 339 336 336 336 342 347 340 338 343 346 346 349 359 361 361 360 361 361
316 317 318 320 323 326 324 325 331 334 328 328 328 329 332 334 334 333 334 335 337 340 342 343 345 343 342 338 334 334 334 334 344 344 344 347 349 349 355 362 362 362 363 363
316 319 319 320 321 325 320 320 320 320 322 323 323 323 325 325 325 326 326 330 333 334 339 341 348 349 343 340 346 342 337 336 336 340 350 349 351 354 356 363 363 364 364 363
314 315 316 317 318 319 318 318 318 318 319 319 319 320 321 322 321 325 325 327 330 332 336 338 348 351 348 351 347 345 343 346 343 343 354 352 355 358 359 362 365 363 363 363
312 313 314 315 316 316 315 316 316 317 317 317 317 318 319 320 320 324 325 324 325 328 336 340 350 353 356 357 357 358 359 356 348 360 357 356 358 361 361 360 367 364 365 365
312 314 315 317 315 316 317 315 316 316 315 316 317 317 318 319 320 321 321 321 322 324 335 335 351 348 355 363 358 357 353 361 358 358 362 359 361 363 363 363 363 364 365 364

GFSCGP_850_thetae_051.txt.gz
Theta_e
326 326 326 326 327 330 334 337 338 337 338 340 341 347 346 346 342 344 347 346 348 348 351 351 350 350 351 345 344 343 346 346 347 347 340 338 338 345 345 344 344 343 345 347
330 330 329 329 329 330 333 335 337 337 336 337 341 346 347 346 346 346 348 348 347 348 348 350 351 350 348 346 345 344 345 346 346 346 345 337 337 345 344 343 344 344 347 347
331 332 332 330 329 331 332 333 334 336 334 333 337 347 345 342 344 343 346 341 346 346 347 348 347 348 347 347 346 345 345 345 345 346 346 345 343 345 345 343 341 344 344 344
332 332 332 332 330 330 332 332 334 336 335 333 335 340 347 344 346 344 344 341 342 343 347 348 346 347 348 347 346 346 346 345 345 347 347 346 338 344 344 344 343 341 343 344
328 334 333 332 333 331 332 331 332 335 335 333 335 338 344 348 349 345 344 344 343 344 347 347 347 347 347 348 347 347 347 347 346 347 345 343 340 341 344 347 345 343 343 346
326 331 333 332 332 332 332 331 329 331 333 334 332 335 338 347 350 347 342 342 342 346 348 347 348 347 348 348 348 347 347 347 347 346 346 343 339 341 344 343 346 344 345 345
329 329 332 333 332 331 330 328 328 329 331 332 329 330 331 338 341 344 344 343 347 349 348 347 348 347 347 347 348 347 347 347 347 346 345 345 341 343 339 341 343 343 346 346
328 332 330 333 330 329 330 327 324 326 327 328 326 330 331 333 336 341 344 347 349 349 348 347 347 347 346 347 347 348 347 346 346 346 343 342 342 340 342 338 343 345 346 347
327 329 332 331 331 327 326 326 324 324 327 325 325 327 328 329 331 335 338 341 349 349 349 348 347 347 346 346 346 348 348 347 346 345 340 338 338 340 336 336 340 345 347 350
323 324 329 332 333 328 325 324 324 324 325 327 327 327 328 328 329 331 332 338 343 348 350 350 348 347 347 346 345 347 347 346 345 345 344 338 331 332 334 334 336 342 345 348
320 322 324 327 332 332 325 325 324 323 323 325 329 329 328 329 329 330 331 337 340 348 350 350 349 348 348 347 346 346 347 347 346 346 345 341 333 333 334 337 333 336 342 350
317 322 324 324 326 330 327 326 325 325 323 324 323 327 332 331 330 331 332 335 340 345 350 350 350 349 349 347 346 346 346 346 345 344 344 345 343 339 337 337 335 334 335 341
317 322 326 324 324 325 329 326 326 323 324 325 325 326 331 329 331 332 333 335 337 343 350 350 351 350 349 348 347 346 345 345 344 344 345 346 347 345 340 335 336 338 337 336
317 320 322 327 325 326 328 328 326 324 326 325 327 329 331 331 332 332 334 335 336 336 348 350 351 351 350 349 348 347 346 345 345 344 345 346 346 345 344 338 337 339 340 341
313 317 323 328 328 329 330 329 328 326 325 328 326 332 333 333 334 338 335 335 338 339 345 349 350 351 351 350 349 348 348 347 347 347 347 345 345 345 343 342 341 339 339 341
311 317 321 331 330 330 332 330 329 328 327 327 327 327 331 334 338 336 337 339 342 340 341 347 349 351 351 351 350 350 349 348 348 349 349 350 349 348 347 344 343 341 337 339
310 314 318 330 331 332 334 332 329 328 328 327 328 328 334 335 336 335 336 333 336 337 337 339 342 349 352 352 352 351 350 350 350 350 351 351 353 354 354 354 355 352 346 344
311 312 318 327 329 336 332 333 333 329 330 328 327 334 333 334 337 333 332 334 333 333 333 333 336 337 344 353 352 351 351 352 352 352 353 354 354 355 355 356 357 357 355 353
311 314 318 325 330 332 334 331 331 333 334 334 335 334 334 335 340 341 339 339 341 340 340 341 340 339 339 337 350 354 352 352 353 353 355 355 356 356 357 357 357 357 357 357
312 315 318 322 331 336 329 325 325 331 338 329 336 339 334 339 343 341 340 341 341 341 341 340 341 339 338 337 339 342 348 349 353 353 353 355 355 355 356 356 357 358 357 357
314 315 318 320 324 329 320 321 330 336 336 325 326 328 331 331 333 330 334 336 340 341 342 342 340 344 346 341 337 336 350 356 351 348 350 351 351 352 353 356 358 359 359 359
317 318 318 318 324 328 320 321 324 329 324 323 322 323 324 323 324 325 327 332 333 335 338 342 344 344 345 343 340 334 334 339 345 352 351 346 345 345 348 352 357 360 361 360
315 313 313 316 319 319 319 319 320 319 320 319 319 319 320 321 321 325 326 325 327 329 335 335 346 351 347 343 350 345 344 339 336 334 345 350 350 348 348 349 355 361 362 362
311 312 311 313 314 315 315 317 316 317 317 317 318 318 318 319 319 323 324 322 322 323 327 331 342 352 352 357 358 350 349 346 345 344 342 342 351 353 353 353 355 358 363 364
311 312 310 312 313 312 314 314 314 315 315 317 316 316 317 318 318 320 321 321 320 320 322 325 328 340 349 349 358 361 359 355 354 348 344 342 348 356 356 358 359 361 363 363
309 309 310 310 309 309 310 310 312 312 312 315 316 318 317 317 317 319 319 319 319 320 320 321 322 326 343 344 343 355 356 356 355 352 354 361 362 358 358 358 359 362 364 365

GFSCGP_850_thetae_054.txt.gz
Theta_e
321 318 318 319 319 322 327 329 332 335 336 345 348 348 349 351 351 352 351 351 350 349 347 348 348 345 347 348 348 346 344 343 345 344 343 343 345 345 345 344 344 344 343 345
322 322 320 322 322 322 325 328 332 333 335 335 346 348 347 348 348 350 349 348 350 351 350 348 347 347 345 347 349 346 344 344 345 345 343 339 343 342 341 343 344 344 343 345
324 327 324 325 325 325 326 326 330 333 333 333 347 350 347 345 342 345 347 348 348 349 350 350 349 347 345 346 349 348 345 345 345 345 345 340 335 340 344 343 344 344 343 347
324 326 327 328 328 327 326 327 329 332 332 334 334 355 348 346 344 346 346 348 347 347 348 350 350 350 348 346 349 348 343 344 344 345 344 343 336 333 335 336 342 344 343 345
321 328 328 330 330 329 328 327 329 331 331 331 333 343 348 347 346 346 346 347 346 346 347 347 350 350 350 349 349 348 344 344 344 344 344 342 343 333 333 337 341 342 342 343
321 323 329 330 330 330 328 328 328 329 326 331 332 331 342 349 347 345 344 345 345 340 343 347 348 350 350 350 350 346 344 344 344 344 344 342 343 338 335 338 342 344 343 342
323 323 322 330 331 330 330 326 330 328 329 329 328 328 330 344 344 344 343 345 345 341 339 346 346 347 348 349 349 346 345 345 345 345 344 342 342 340 333 335 340 343 343 343
321 323 323 323 330 331 329 329 326 330 327 329 324 327 328 339 341 343 343 344 344 342 342 344 346 347 347 348 347 347 346 346 346 346 345 342 340 342 337 334 336 342 343 343
317 322 325 326 326 330 330 330 323 320 320 322 323 324 325 326 339 343 344 343 343 342 342 344 346 347 347 347 347 347 347 347 347 346 345 344 340 339 337 333 335 336 342 342
315 320 322 325 327 328 329 323 325 317 325 323 322 323 326 325 324 334 340 344 343 343 343 345 347 347 347 347 347 347 347 347 346 345 345 345 343 339 336 335 333 334 339 344
313 315 322 322 326 329 325 327 324 322 318 323 323 324 322 323 323 323 332 343 343 344 345 347 347 347 347 347 347 347 347 346 346 345 345 345 344 343 340 336 334 332 335 342
313 317 320 321 322 324 330 322 322 324 320 318 320 325 327 325 324 325 325 340 343 347 348 349 347 347 347 346 347 347 346 345 344 344 345 344 344 343 341 337 333 332 332 337
313 319 318 322 320 321 322 328 320 317 316 320 324 325 323 322 325 327 327 332 345 348 349 348 347 346 346 346 346 346 346 346 345 344 344 345 344 343 341 337 333 331 332 332
310 313 317 319 322 320 322 323 323 322 322 321 322 323 324 324 326 326 327 331 341 347 348 348 347 347 346 346 346 346 346 346 346 345 344 343 343 342 340 335 334 334 333 333
309 313 311 313 315 318 322 327 325 322 322 323 323 324 324 323 328 327 330 333 339 347 348 349 348 347 347 347 346 347 347 346 346 346 345 343 340 340 340 340 339 336 334 332
308 311 310 312 321 324 327 329 328 324 323 324 321 324 323 326 332 333 333 333 341 346 348 349 349 348 348 348 348 347 347 347 347 346 346 346 343 340 339 338 336 337 338 337
309 308 309 315 323 329 330 329 330 325 323 324 324 322 329 334 330 329 335 337 339 346 348 349 349 349 349 349 349 348 348 348 347 347 347 347 346 346 343 340 340 339 337 336
310 308 308 315 321 331 327 321 323 330 329 328 333 329 330 336 340 340 338 340 340 342 344 347 349 349 349 349 349 348 348 348 348 348 347 347 347 348 349 350 349 346 346 345
309 309 309 320 323 329 322 322 321 323 328 324 327 334 339 340 340 339 342 343 345 343 342 342 346 349 350 350 350 349 348 348 348 348 349 349 349 349 350 351 352 353 354 355
310 311 310 315 326 330 323 321 322 326 326 321 322 325 335 336 337 333 337 339 341 345 344 342 341 341 344 344 351 352 351 350 350 349 349 349 350 350 351 351 352 353 354 354
312 313 315 317 325 328 316 319 324 328 326 319 319 320 323 326 326 328 331 337 335 340 346 347 342 341 341 338 337 349 354 353 352 352 351 351 351 352 352 353 354 355 355 356
315 317 315 317 325 325 314 318 318 315 317 318 317 317 319 323 324 323 323 326 332 334 341 349 347 345 345 339 336 340 341 345 351 355 354 354 354 354 355 356 356 356 357 357
312 312 314 313 317 314 314 316 316 314 314 314 315 316 317 319 321 322 322 322 322 325 333 338 348 351 351 349 343 344 348 346 344 340 342 356 355 355 355 355 354 355 357 358
310 309 309 308 313 310 311 314 314 311 311 311 313 316 317 318 321 320 320 320 321 321 324 331 340 345 349 353 355 358 358 354 350 348 344 343 342 350 354 354 353 352 353 354
309 308 309 307 308 309 310 311 312 310 311 312 312 314 316 318 320 318 318 318 319 320 320 322 327 332 340 345 349 353 357 358 357 357 353 349 342 339 342 349 354 353 353 353
308 308 309 310 308 309 309 312 313 313 314 312 312 312 316 316 316 317 317 317 317 318 319 319 323 325 327 332 343 345 348 348 342 345 353 354 346 342 342 343 353 357 356 354

GFSCGP_850_thetae_057.txt.gz
Theta_e
317 314 316 316 317 320 322 327 331 332 338 345 346 348 354 351 350 349 348 347 346 348 348 347 348 348 347 344 344 344 342 341 340 343 344 344 346 344 344 344 344 344 344 345
317 317 316 316 317 318 320 321 324 328 332 343 345 347 352 352 350 350 349 349 348 347 347 347 348 348 348 347 345 346 345 344 342 342 343 343 344 345 344 344 344 344 344 344
321 321 319 319 318 320 319 321 322 327 331 337 340 348 352 351 351 351 350 349 349 348 347 347 347 347 348 347 345 347 346 347 345 343 343 344 342 344 344 344 344 343 343 343
320 322 322 320 320 320 320 322 323 326 329 332 342 351 349 349 351 346 350 351 351 349 348 347 347 347 347 346 345 347 347 347 346 343 343 344 343 341 343 343 342 342 344 342
321 322 322 322 322 322 323 324 324 325 327 328 335 348 346 346 350 348 344 349 349 350 350 349 348 347 345 346 346 346 346 348 345 343 343 345 344 339 336 339 339 343 344 343
316 320 322 323 324 325 326 325 325 326 324 329 329 332 330 347 346 345 344 344 346 348 349 349 349 348 347 345 344 344 345 347 347 344 344 344 343 342 336 333 334 339 341 342
319 320 320 323 324 326 327 323 325 326 326 330 326 329 331 342 343 343 343 343 344 346 347 346 349 349 349 347 344 344 346 347 347 345 344 344 344 343 339 335 332 335 341 341
317 322 320 321 324 327 327 323 324 328 328 328 325 327 328 333 342 343 343 343 343 344 345 344 346 349 349 349 347 344 345 347 348 346 344 344 344 343 339 339 336 334 340 341
317 319 316 318 322 326 328 329 324 323 317 325 328 323 324 328 337 341 342 342 343 343 344 342 343 346 348 349 349 349 347 347 348 348 344 344 344 344 341 337 337 333 337 340
314 316 315 317 320 322 328 323 328 321 325 323 321 322 328 326 331 336 340 342 342 342 343 343 341 343 347 348 349 349 349 349 349 348 345 344 345 345 343 337 336 333 333 337
312 315 317 318 320 322 323 328 325 326 322 330 321 323 319 323 326 334 338 341 342 342 343 343 342 342 346 346 347 348 349 349 349 347 345 345 345 345 344 341 337 335 333 335
313 315 319 319 320 318 319 324 320 331 325 317 321 327 322 321 321 324 336 340 341 342 342 342 342 343 345 346 346 347 347 348 347 346 346 346 346 345 344 342 339 337 334 334
312 316 315 320 318 318 319 324 326 323 317 319 328 327 320 320 322 321 323 330 339 342 342 342 342 344 345 346 346 347 347 347 346 346 346 346 346 345 344 343 340 337 335 335
311 313 313 317 317 314 315 316 318 322 326 321 323 325 322 321 321 321 324 326 328 338 341 342 343 344 345 346 346 346 347 347 346 346 346 346 346 344 343 343 342 338 334 334
309 313 311 311 312 312 313 315 316 318 321 324 324 319 320 319 321 322 330 332 327 336 341 344 345 346 345 346 346 346 346 346 347 346 346 346 344 343 343 342 341 339 337 334
308 312 312 311 311 312 314 316 318 320 322 319 319 320 319 321 330 332 330 328 329 339 343 345 346 346 346 346 347 346 346 346 346 346 346 345 344 342 341 341 339 339 337 335
309 312 310 310 315 320 324 322 322 325 323 324 321 323 321 337 339 338 338 331 333 342 344 346 347 347 347 347 347 347 347 346 347 346 346 346 345 344 340 338 338 338 337 338
309 311 309 308 314 331 321 319 321 322 320 320 322 325 336 338 337 335 337 340 338 342 344 345 347 347 347 347 347 347 346 347 346 347 347 346 346 346 345 343 341 339 339 339
308 311 309 312 320 324 323 319 319 321 319 318 322 330 338 339 339 335 335 340 343 343 345 346 347 347 346 346 346 346 346 346 346 347 347 347 347 347 346 346 346 346 345 344
308 309 313 314 327 332 321 317 317 320 321 317 316 320 326 333 336 329 331 337 347 346 344 346 348 348 348 347 347 347 346 347 347 347 347 347 347 347 347 347 348 348 349 350
313 312 316 316 322 324 317 315 318 322 320 314 314 314 320 322 322 321 325 335 344 353 353 348 347 348 348 349 349 349 348 348 348 347 347 347 347 348 348 348 349 349 350 351
314 315 318 319 323 326 314 318 317 314 314 312 311 312 314 321 320 320 320 323 333 345 353 355 347 343 345 346 350 350 350 350 349 349 349 349 349 349 349 349 350 350 351 352
314 311 314 311 317 314 312 316 312 311 311 311 311 312 313 318 318 319 319 320 321 328 336 342 351 354 355 352 351 352 352 350 349 349 354 355 355 355 355 355 354 354 354 355
309 309 310 310 312 309 309 311 311 312 312 312 313 313 313 317 317 317 317 317 318 319 327 334 338 343 349 356 356 354 352 350 349 347 349 352 355 357 358 358 357 357 358 356
308 307 308 310 309 310 312 312 313 314 314 314 313 313 313 313 316 317 316 317 317 317 320 323 329 330 334 343 352 355 355 354 353 349 347 347 347 345 344 348 354 356 356 356
308 310 310 312 310 309 310 314 314 314 315 315 315 314 313 312 316 317 317 317 316 317 317 320 324 324 324 328 339 343 345 346 344 344 347 347 349 349 345 341 339 341 344 349

GFSCGP_850_thetae_060.txt.gz
Theta_e
316 314 315 316 316 319 321 324 327 329 333 343 344 344 352 348 344 343 342 342 342 344 345 346 344 344 344 343 339 337 339 329 331 340 342 343 344 344 343 344 344 343 343 344
314 315 315 315 315 318 319 321 322 325 330 340 342 344 351 349 348 345 342 342 343 344 345 346 347 345 345 345 343 341 342 332 331 336 341 342 341 344 344 342 343 343 344 344
316 316 316 315 315 315 316 320 320 325 328 341 342 345 352 351 350 348 347 344 343 344 346 347 346 346 345 345 345 343 343 331 334 337 342 344 342 344 345 344 344 343 343 343
318 319 318 316 315 316 313 317 321 321 325 332 338 341 346 351 352 349 349 348 347 345 346 347 346 346 346 344 344 342 342 341 341 341 341 342 342 342 344 344 344 343 342 343
321 320 321 317 317 317 317 318 319 321 323 328 332 343 341 348 353 352 349 349 348 348 347 346 346 346 346 346 347 346 344 344 344 344 343 342 342 343 343 342 344 344 343 341
314 316 319 321 320 318 319 323 320 321 321 326 325 336 329 346 348 348 349 349 349 349 348 347 346 346 346 346 347 347 345 344 344 344 346 346 342 343 344 343 342 343 342 339
317 319 318 318 320 320 320 320 322 324 324 327 323 327 329 331 342 343 345 347 347 350 350 348 347 346 346 346 347 347 345 343 345 345 345 346 344 343 344 343 340 335 338 336
316 319 318 315 318 321 321 320 322 326 325 324 321 327 328 328 335 340 342 344 345 347 349 349 349 348 346 346 346 346 345 343 343 344 344 345 344 343 343 343 342 336 331 331
316 318 314 315 317 318 323 324 321 321 319 322 325 323 324 325 328 333 339 341 342 344 346 347 348 349 349 348 347 346 345 344 343 343 344 345 344 343 343 343 343 340 335 331
313 312 314 315 317 318 318 322 327 320 327 324 323 322 331 326 326 329 336 341 341 342 343 344 347 347 348 348 348 348 346 344 344 344 345 345 345 344 343 343 343 342 338 334
310 312 312 315 318 319 319 321 323 325 323 327 322 323 319 324 327 328 331 339 340 341 342 343 344 344 345 346 347 348 348 348 344 346 346 346 346 345 344 343 344 343 338 335
311 312 314 315 315 316 317 318 321 329 327 322 321 328 322 322 323 326 329 333 336 340 342 342 343 342 343 344 347 347 347 348 348 348 347 346 347 346 345 344 344 344 341 337
310 313 313 314 315 314 315 315 315 317 319 325 330 327 321 319 319 321 322 330 335 337 341 342 342 342 341 343 344 347 347 347 346 348 348 348 347 347 346 345 345 345 343 338
310 309 312 313 313 311 313 313 314 313 320 326 327 326 321 324 320 320 322 323 326 336 340 341 342 342 342 342 342 344 346 346 346 346 348 348 348 347 345 345 345 345 344 341
308 309 307 309 310 311 312 312 313 314 315 318 325 323 322 321 322 322 322 325 327 326 335 340 341 341 342 343 344 344 344 345 346 346 347 346 346 346 345 345 345 345 344 342
307 305 311 311 311 312 313 313 313 315 316 317 319 320 321 323 322 334 336 337 336 331 328 329 331 340 341 342 343 344 344 345 346 346 346 345 346 346 345 344 344 344 343 342
307 307 311 310 310 311 315 314 318 321 319 321 320 322 322 335 335 331 333 337 339 336 329 328 332 338 341 342 343 344 344 344 345 346 346 346 346 345 345 344 342 341 342 342
306 307 311 308 311 321 320 320 320 319 317 316 318 325 331 334 333 328 326 330 339 341 334 333 338 339 340 342 343 344 344 344 346 346 346 346 346 346 345 344 343 341 341 341
307 309 311 309 315 321 323 318 318 318 318 314 315 316 322 331 335 333 325 332 338 345 340 340 341 343 344 344 344 344 345 346 346 346 346 344 345 346 345 345 344 342 341 339
308 307 310 315 317 332 320 315 315 317 319 314 312 312 315 331 329 323 321 328 342 348 343 343 344 345 345 345 345 345 346 346 347 346 345 346 346 346 346 346 346 345 345 345
309 310 310 312 320 323 314 315 317 324 318 312 311 311 312 319 319 318 320 329 336 342 348 345 346 346 346 345 346 346 346 347 346 346 346 346 346 347 346 347 347 347 347 347
312 312 316 315 320 327 311 316 317 313 312 311 311 312 312 317 317 317 318 324 332 343 348 349 347 347 346 346 346 346 347 346 346 346 346 347 347 346 347 347 347 348 348 348
313 310 312 311 313 310 310 311 311 313 311 312 312 313 313 315 316 317 317 319 325 330 339 353 354 350 347 346 346 346 346 347 347 347 347 347 347 347 347 348 348 349 349 350
309 307 308 310 311 312 311 312 313 313 313 313 314 313 312 315 316 317 317 317 319 324 327 333 346 350 352 353 352 353 352 348 348 348 349 350 351 350 350 350 352 352 352 353
309 308 307 310 311 312 312 312 311 312 313 314 315 314 314 314 317 317 317 317 316 317 320 324 326 329 331 342 348 350 351 352 353 353 354 355 355 355 356 357 357 357 356 356
310 311 311 313 311 311 311 312 311 311 312 314 316 316 314 313 315 317 317 317 316 316 316 316 317 319 319 323 330 338 343 345 345 346 347 349 350 351 349 346 343 344 349 353

GFSCGP_850_thetae_063.txt.gz
Theta_e
318 317 320 319 320 321 323 326 324 330 330 339 343 344 350 348 348 347 347 346 345 345 345 345 346 347 346 336 334 331 329 328 328 331 334 340 343 344 345 344 345 344 343 344
317 318 318 318 317 319 320 324 326 328 331 340 342 344 344 350 349 348 346 346 345 345 346 346 346 346 346 342 336 334 331 329 328 336 338 341 342 343 344 344 345 344 343 344
322 320 318 317 317 318 320 320 323 327 327 335 340 342 347 351 349 347 347 346 344 345 346 346 346 346 347 345 342 338 333 332 330 329 340 341 342 343 344 343 343 343 343 343
323 323 319 319 318 318 319 320 321 323 326 332 338 344 346 350 353 351 348 346 345 344 345 346 346 346 346 346 343 342 336 336 338 330 332 339 340 340 342 344 344 344 343 342
324 323 322 320 319 318 319 318 319 321 324 327 330 340 340 346 354 354 351 349 346 345 345 345 346 346 346 347 344 344 342 339 342 333 333 337 342 342 340 341 344 344 344 343
319 317 322 324 321 319 319 321 320 320 320 322 329 334 339 345 349 352 351 350 349 348 346 346 347 347 347 347 346 344 344 343 343 335 332 338 340 342 342 342 342 343 344 344
319 320 319 320 323 321 319 320 322 324 323 321 323 329 331 336 344 344 349 350 350 350 349 347 347 347 347 346 347 344 343 343 342 341 339 341 341 342 342 343 343 343 342 342
319 319 320 317 321 323 323 323 323 325 325 323 322 328 331 331 330 341 344 347 350 350 350 349 348 347 347 346 344 344 343 344 345 344 343 343 344 345 345 343 343 343 343 339
319 320 316 317 318 321 324 324 323 324 325 327 324 325 327 330 332 332 335 343 347 349 350 350 349 349 347 346 345 344 344 343 346 346 343 343 342 344 345 343 342 343 344 342
313 308 311 316 317 319 322 324 325 325 326 327 327 327 326 329 332 333 334 336 341 346 348 350 351 349 348 347 343 343 344 343 344 345 344 343 341 342 343 342 342 343 343 343
311 311 308 311 317 323 322 323 326 327 327 327 327 328 329 329 332 333 334 333 338 341 344 346 349 350 349 348 347 344 345 345 344 343 342 342 342 343 343 344 343 343 343 344
312 312 310 309 310 315 316 321 324 328 330 331 329 329 328 330 330 332 332 333 335 338 341 343 345 349 350 349 348 348 347 346 346 345 344 343 343 344 344 345 344 344 343 344
313 313 310 310 314 316 316 318 319 320 324 330 332 329 330 330 329 328 330 331 334 339 341 343 344 346 348 349 348 346 347 347 346 346 346 345 344 344 345 346 345 345 344 344
312 312 310 307 310 310 313 315 316 317 324 326 329 332 331 330 331 331 329 327 326 336 340 342 344 345 346 347 348 347 345 345 346 346 346 347 346 345 346 346 346 346 344 344
311 311 310 309 308 308 310 311 313 316 318 324 327 329 330 332 332 333 332 328 330 329 340 342 343 344 342 344 346 347 346 344 344 345 346 346 346 347 347 347 346 346 345 345
310 310 310 309 308 310 310 312 313 315 317 318 321 325 326 327 336 332 335 337 338 339 334 339 335 342 342 342 342 345 344 344 344 343 344 345 346 346 347 347 347 346 345 345
309 310 309 307 309 313 315 313 315 316 320 320 324 325 329 331 338 332 331 332 334 338 342 339 337 337 337 339 341 343 342 344 344 343 344 345 345 345 346 346 346 345 344 344
308 308 309 309 309 312 314 320 318 319 320 320 322 324 327 336 335 332 329 329 331 334 338 342 340 334 337 336 343 344 345 343 343 343 344 344 344 344 345 345 345 345 344 342
309 309 309 309 311 314 322 320 320 322 320 317 319 321 323 332 338 337 326 326 329 334 339 342 341 332 337 341 341 343 345 343 343 344 344 344 345 345 345 345 344 344 344 343
308 310 311 309 313 322 321 317 315 319 325 316 316 319 321 333 341 332 322 324 331 336 340 346 339 339 340 341 345 343 344 343 343 344 344 345 345 345 345 345 345 343 343 342
309 310 310 310 310 312 313 312 315 326 322 315 315 316 319 324 323 320 322 326 331 336 342 347 346 344 342 343 344 343 343 343 344 344 345 345 345 344 344 345 345 345 345 344
309 310 310 310 310 314 308 312 320 316 314 314 315 315 316 317 317 319 321 324 326 331 337 345 349 346 346 344 343 343 344 344 345 345 345 346 345 345 346 346 346 346 346 346
313 310 313 313 314 310 308 312 314 315 315 314 315 315 315 316 317 317 317 319 320 324 332 332 341 345 346 346 345 344 344 344 345 346 346 346 346 346 346 346 346 347 347 348
308 307 310 311 311 310 309 313 313 314 315 314 314 314 314 315 316 318 317 316 316 316 316 324 339 346 348 346 345 345 345 345 345 345 345 346 346 346 347 347 347 348 348 349
309 309 310 310 310 311 310 312 313 313 314 314 315 315 315 314 315 317 318 317 316 315 315 314 314 315 320 338 349 351 352 349 346 345 345 346 346 346 347 348 348 349 349 351
310 309 310 312 310 312 312 313 314 314 314 314 314 315 315 315 314 314 316 316 315 315 315 314 314 314 314 315 320 330 341 348 352 356 355 352 352 351 351 353 353 353 354 355

GFSCGP_850_thetae_066.txt.gz
Theta_e
321 323 323 323 324 324 324 325 326 329 330 342 347 349 352 350 350 352 352 351 349 349 348 347 346 345 344 343 344 345 344 344 340 342 342 345 346 349 349 349 347 346 346 340
323 322 322 323 322 323 324 325 326 327 331 334 346 349 347 351 350 350 351 351 350 348 349 348 347 346 345 343 344 345 344 337 330 340 341 344 348 349 350 350 346 345 343 344
324 324 322 321 322 322 323 324 324 326 330 333 340 348 348 347 350 349 349 351 350 348 348 349 348 347 347 345 344 345 344 336 328 340 342 346 349 350 351 350 347 346 343 345
324 323 323 321 321 322 323 322 323 323 328 333 335 347 347 347 350 350 349 350 350 349 347 348 348 348 347 347 346 346 344 339 329 329 343 346 347 346 347 347 347 348 343 346
326 323 324 324 324 322 322 323 323 323 324 326 333 338 343 346 349 352 349 349 349 349 348 347 349 348 348 348 348 348 347 340 339 329 336 345 344 344 346 347 349 349 346 343
323 324 324 325 325 323 323 323 323 323 323 324 327 335 340 343 347 350 349 348 348 349 348 348 347 348 349 348 349 349 351 341 335 332 330 339 344 345 347 347 348 348 348 349
319 321 323 324 326 326 323 324 327 325 324 323 324 326 334 340 342 345 349 348 348 349 349 349 348 348 348 349 349 349 350 349 340 334 336 333 335 346 350 350 347 346 346 347
320 320 321 324 325 326 326 325 328 330 326 325 324 323 326 333 335 340 343 346 348 349 349 349 349 349 349 349 350 350 350 347 344 340 336 340 331 344 348 347 348 348 346 346
319 318 321 321 324 325 327 326 326 326 328 329 327 325 325 328 333 335 339 342 345 348 349 350 349 350 350 349 350 350 349 347 343 344 341 340 331 336 347 347 346 349 349 347
314 315 317 320 320 323 325 326 327 327 330 331 329 329 327 327 331 333 336 336 341 345 348 350 351 350 351 350 350 351 351 347 343 346 341 342 337 339 342 347 347 348 349 348
312 312 313 314 319 322 325 326 327 327 328 330 331 330 329 329 329 333 334 334 336 342 346 348 350 351 351 351 351 351 351 352 351 347 344 344 344 342 341 348 345 344 343 343
312 313 314 313 316 317 317 325 326 329 331 328 330 331 329 330 330 329 330 333 334 336 340 344 347 350 351 351 351 352 351 351 352 348 344 345 345 342 346 341 344 343 342 342
313 312 313 313 313 314 316 320 324 326 328 332 332 331 331 331 331 332 330 329 332 335 337 340 344 345 351 351 352 352 352 350 351 351 348 346 347 345 346 341 341 343 343 343
311 312 313 313 313 313 315 316 322 323 328 329 331 332 332 331 331 331 332 333 333 333 335 339 341 344 348 351 352 352 352 351 351 352 352 346 342 341 343 341 342 344 344 344
312 313 313 312 311 311 310 310 312 317 322 327 328 330 332 333 333 333 333 334 334 332 336 338 342 343 346 350 353 353 353 352 351 352 352 350 343 343 343 343 344 345 345 345
313 313 311 312 311 310 310 310 312 312 316 321 324 326 328 329 330 333 335 336 337 338 338 337 343 345 345 349 353 354 353 352 352 352 352 351 345 344 344 345 345 345 346 346
313 313 311 312 310 310 310 312 312 313 315 319 323 325 326 329 331 334 337 337 337 337 339 342 340 342 345 348 351 353 352 351 352 352 351 351 345 345 345 345 346 346 346 346
311 312 312 312 310 310 310 313 314 314 314 319 321 323 326 327 329 336 337 337 338 338 339 341 342 343 341 345 347 351 353 353 353 352 348 346 347 345 345 345 346 346 347 347
310 312 311 311 310 310 309 317 321 323 323 318 323 325 325 326 332 335 335 334 336 338 340 342 343 344 347 341 346 348 352 353 354 352 348 344 342 344 346 345 345 346 347 347
310 311 312 312 311 311 314 312 310 314 326 322 322 325 326 327 336 337 332 334 337 340 344 345 347 348 349 347 343 347 351 353 353 350 344 345 344 343 345 345 345 345 346 345
313 312 312 313 312 311 311 311 308 322 325 321 322 324 326 333 331 329 328 329 332 338 344 349 353 352 349 343 343 347 351 352 350 354 354 352 349 344 344 345 345 344 344 345
311 312 313 312 312 314 312 310 315 317 318 318 320 322 323 325 325 322 322 322 324 330 340 349 353 347 346 347 345 350 352 353 353 354 354 353 347 348 353 346 345 346 345 345
312 311 312 313 313 311 310 308 309 314 317 317 317 318 320 320 320 320 319 320 320 322 330 340 347 351 352 352 352 353 353 352 355 355 355 355 350 349 354 349 347 351 349 356
305 305 308 309 311 309 308 308 310 312 314 316 316 316 317 317 319 320 318 318 319 317 320 323 330 335 341 351 353 355 355 356 356 357 357 358 357 357 357 357 357 357 357 358
308 308 308 309 309 310 310 311 312 314 315 315 316 317 317 317 316 318 318 316 316 315 315 319 320 321 326 332 344 351 356 354 356 357 358 358 358 357 358 358 358 359 358 359
309 307 309 311 309 309 311 312 314 314 315 315 316 317 316 315 315 316 317 315 316 316 315 315 315 314 315 319 327 341 354 356 356 354 355 356 355 357 357 358 358 358 358 358

GFSCGP_850_thetae_069.txt.gz
Theta_e
326 329 327 329 329 327 327 327 326 330 333 337 338 348 355 351 351 353 353 352 349 350 349 348 346 346 344 343 342 343 343 344 345 347 347 347 347 347 349 348 352 351 352 350
327 326 327 326 327 327 326 327 328 328 331 333 339 344 351 352 351 352 352 353 351 350 350 348 347 346 345 344 344 344 344 344 345 345 344 346 346 347 348 347 351 351 351 352
329 327 326 326 326 326 326 327 327 328 329 332 333 344 348 351 351 350 352 353 352 349 351 349 348 347 346 345 344 346 345 345 345 343 343 345 347 349 348 350 350 351 352 352
326 326 326 326 325 326 327 326 327 326 328 332 333 338 347 348 353 351 350 352 352 351 349 350 349 349 347 346 345 346 346 346 345 341 342 345 347 347 348 348 347 350 352 352
326 325 325 326 326 325 326 326 326 325 326 329 333 336 341 349 351 353 350 350 351 352 349 349 350 350 349 347 346 346 347 345 343 339 342 344 346 346 347 347 347 348 350 352
323 325 326 325 326 326 326 325 326 326 326 326 327 332 337 344 350 349 349 349 350 351 351 349 349 350 350 349 348 347 347 346 339 336 335 343 345 346 345 346 350 349 350 351
319 321 324 326 326 326 326 327 328 328 328 327 327 326 333 337 341 346 349 348 349 350 351 350 349 350 351 350 350 349 347 348 340 338 332 339 344 342 347 348 349 348 347 347
319 321 321 323 325 327 327 327 329 332 330 328 327 327 327 332 336 339 344 347 348 349 350 351 350 350 350 351 350 350 350 349 345 335 335 331 333 344 348 350 347 347 345 346
319 319 323 323 323 325 328 328 327 329 331 331 329 328 328 329 331 336 341 345 348 348 348 351 351 351 350 351 351 351 351 352 350 342 336 333 331 333 344 347 346 350 347 347
318 320 322 322 323 325 326 328 329 328 331 334 332 331 329 329 328 333 339 343 345 348 348 349 349 350 351 351 352 352 352 354 353 351 344 340 332 332 337 345 350 350 350 348
315 316 318 319 322 323 324 327 329 329 329 331 332 332 332 331 329 330 334 339 342 345 347 348 349 349 351 351 352 352 353 354 355 354 353 347 342 341 340 340 346 351 350 351
316 315 317 317 317 319 320 324 326 331 331 329 331 332 333 332 331 330 331 332 335 338 344 347 348 350 351 352 352 352 353 354 356 356 354 350 346 344 345 332 347 351 353 349
317 316 317 317 317 317 320 322 323 325 329 332 331 331 334 332 332 332 330 331 333 335 338 343 345 350 351 351 352 353 353 353 354 356 355 354 352 346 341 340 337 348 351 346
313 317 317 317 318 317 317 318 322 325 327 328 330 331 332 333 333 332 333 332 331 333 335 338 343 346 350 352 352 353 353 353 353 354 354 354 354 351 345 345 343 340 347 341
314 315 315 316 316 315 315 317 320 323 327 329 329 331 333 333 333 332 333 335 334 335 335 337 339 341 345 351 353 354 353 354 353 353 353 353 355 354 353 348 348 341 341 339
314 316 315 316 316 315 314 314 314 316 319 322 324 327 329 329 330 333 334 336 337 339 337 337 337 340 343 346 353 356 354 354 354 353 353 353 354 355 355 348 343 340 339 340
315 316 316 317 314 315 315 314 314 315 316 317 319 323 326 328 329 330 333 339 339 339 338 340 342 343 344 345 349 354 356 355 355 354 355 354 356 356 353 346 341 339 340 341
314 315 316 318 314 316 315 315 314 316 318 317 318 319 322 324 325 327 329 337 339 339 340 341 342 341 342 345 347 352 357 355 356 355 357 356 357 357 355 349 344 343 342 343
312 315 317 316 315 313 314 314 318 319 320 321 321 319 318 321 324 326 327 329 337 338 339 343 344 343 344 344 344 349 354 358 356 357 356 357 357 359 358 353 346 346 345 344
312 312 317 315 315 314 313 317 315 317 318 320 320 320 319 321 325 328 328 337 338 340 343 344 346 348 348 347 346 346 351 357 357 358 357 358 358 359 359 353 351 347 346 345
315 314 316 315 315 313 314 314 312 317 318 317 322 323 321 325 327 329 332 333 334 337 342 346 350 355 355 351 348 346 350 353 358 357 359 359 358 359 359 359 355 348 346 355
314 315 316 314 315 315 314 314 314 316 314 313 320 322 326 327 329 328 327 329 331 334 341 347 353 358 358 354 353 349 351 351 356 357 358 359 359 358 360 358 358 356 350 351
314 313 315 313 314 314 313 313 313 313 312 311 314 320 321 323 324 323 325 326 328 328 332 340 345 347 353 353 349 346 354 353 356 357 358 358 359 359 358 359 358 360 358 358
308 306 310 312 311 309 309 309 310 310 311 312 316 317 319 320 321 321 321 323 324 326 327 328 333 336 344 351 355 357 358 356 356 356 358 358 358 359 359 362 362 360 360 360
307 307 307 309 307 306 308 309 310 311 311 312 317 317 318 318 317 318 319 320 322 322 324 326 327 328 332 340 352 356 356 358 357 357 358 359 359 359 358 359 360 360 359 358
309 308 308 310 307 305 307 306 310 315 315 315 316 316 316 316 317 318 319 320 321 322 323 323 324 326 327 332 339 352 355 357 357 358 359 361 360 361 360 359 360 360 359 358

GFSCGP_850_thetae_075.txt.gz
Theta_e
331 329 329 327 327 327 328 329 326 325 325 327 335 355 356 352 350 351 343 345 350 349 349 347 345 344 342 342 343 344 345 345 343 344 344 347 349 350 348 348 349 348 349 345
328 330 329 329 328 328 327 327 328 327 327 323 328 351 350 343 343 345 345 345 350 349 350 349 346 344 343 342 343 343 344 346 344 343 343 347 349 348 349 350 350 344 348 346
327 327 329 329 329 328 326 326 327 327 327 325 325 349 347 344 344 344 348 350 348 350 349 349 348 345 344 342 342 342 342 347 345 341 341 347 348 347 349 351 350 349 341 349
325 328 328 327 327 327 324 326 328 327 325 323 325 325 349 345 346 347 348 347 350 347 349 349 348 346 344 343 341 341 342 345 346 344 339 344 347 346 349 347 348 349 342 345
323 325 327 328 327 325 324 326 325 325 324 323 325 323 328 347 349 346 346 345 345 348 348 348 348 348 345 344 342 341 341 343 344 343 337 346 346 345 348 348 349 347 345 345
319 321 321 323 324 325 326 325 324 323 322 322 323 324 325 353 349 347 346 336 338 344 345 349 349 347 347 345 343 342 342 340 342 342 337 342 344 346 349 345 349 348 349 346
317 318 319 321 321 324 323 322 322 323 322 324 323 323 324 327 349 350 347 339 339 346 348 350 349 348 348 347 345 343 343 342 339 339 337 337 339 347 348 349 344 348 348 348
316 317 317 319 319 324 325 321 322 325 324 324 323 324 325 325 341 346 346 339 340 348 349 350 349 348 348 348 346 345 344 344 343 335 336 333 333 341 346 348 346 349 347 347
317 318 318 319 319 319 321 323 322 322 322 324 325 325 326 326 325 344 342 341 342 347 349 350 350 349 348 348 348 346 345 345 344 341 332 336 330 339 344 348 350 351 350 345
316 316 317 318 317 318 319 322 322 321 324 326 325 326 327 328 325 332 343 342 347 349 349 349 350 350 349 348 348 347 347 346 346 344 337 331 332 328 340 345 347 349 350 349
316 315 315 317 317 316 317 320 320 320 322 325 325 325 325 328 330 329 331 342 345 346 346 350 351 351 351 349 349 349 347 347 347 346 344 334 331 332 332 343 345 347 346 348
315 314 315 316 317 317 316 316 319 320 322 324 326 328 328 327 331 332 328 344 345 344 342 342 344 346 352 351 351 350 349 348 347 347 347 345 333 329 329 332 345 342 346 344
314 314 315 315 315 316 317 317 317 318 317 319 326 328 328 329 329 330 332 334 345 342 342 339 339 337 351 351 352 352 350 349 349 349 348 348 347 338 329 328 329 343 336 341
314 312 314 316 316 315 316 317 317 314 314 317 321 323 327 327 327 328 332 333 338 348 345 347 343 337 340 349 353 353 352 352 351 351 351 350 350 349 345 333 329 329 330 333
313 314 313 313 314 314 314 316 317 316 315 318 318 322 328 326 325 327 332 331 331 344 345 345 345 342 343 347 353 354 355 354 355 354 353 353 352 351 351 349 341 333 331 330
315 316 315 316 315 315 314 316 316 317 317 316 316 318 324 323 323 323 327 329 330 328 341 344 346 343 342 343 352 353 354 355 355 356 356 356 355 354 354 353 351 346 339 335
315 315 314 315 315 315 316 315 315 316 317 316 316 316 318 318 320 321 319 324 324 328 334 339 340 345 347 346 347 343 349 354 355 355 357 357 356 355 356 354 354 352 349 343
311 314 315 314 315 317 314 314 315 316 317 317 315 317 323 326 326 322 326 322 322 335 338 340 343 343 344 349 348 347 348 355 354 356 356 356 356 356 356 355 354 354 353 349
310 313 313 314 315 314 313 315 317 316 316 321 322 323 324 326 327 327 329 328 322 331 328 334 339 341 344 349 350 348 344 352 356 355 355 355 355 356 356 356 354 354 354 353
312 312 315 315 315 314 315 314 315 314 315 318 318 321 321 324 327 325 325 331 327 323 322 326 343 348 349 352 351 353 342 344 351 357 354 354 355 356 356 355 354 354 353 353
314 315 315 316 316 315 315 315 314 315 316 315 315 316 316 319 319 321 323 327 331 332 331 333 340 343 349 351 351 348 352 342 347 358 357 355 355 356 356 355 355 354 354 354
313 313 316 315 315 314 312 314 315 312 311 312 312 313 314 315 315 320 322 323 328 330 332 332 333 337 340 342 341 334 348 352 352 353 358 357 357 357 357 356 356 356 355 355
313 311 311 311 314 310 308 308 308 308 309 309 310 311 312 313 314 318 320 322 324 326 327 329 330 331 332 332 334 341 349 356 357 350 359 359 359 359 359 358 357 357 357 357
310 308 308 309 310 308 306 305 304 305 305 306 308 309 309 312 313 316 319 321 322 324 325 325 325 326 329 330 332 339 346 352 355 356 351 362 359 360 360 361 360 359 359 359
308 307 309 309 308 306 307 305 305 304 305 305 306 308 311 311 312 316 319 321 322 323 323 323 324 324 324 327 331 338 344 349 354 358 356 357 362 359 361 360 362 361 360 360
308 308 307 306 306 305 305 305 304 304 304 304 308 311 314 312 313 317 317 318 322 322 323 323 322 320 319 321 328 334 340 349 356 364 366 359 361 361 361 361 362 362 361 361

GFSCGP_850_thetae_078.txt.gz
Theta_e
325 325 327 328 326 325 326 326 326 326 326 323 335 354 349 345 349 350 350 349 349 348 347 346 344 341 340 346 346 345 345 343 342 347 347 347 347 348 347 348 349 344 344 347
327 328 327 326 327 326 326 326 325 324 326 324 349 356 351 346 342 348 345 348 349 348 349 347 344 340 340 344 346 346 344 340 337 342 345 346 345 348 349 348 349 348 345 348
327 327 328 329 327 328 326 325 324 324 326 324 350 356 355 349 344 343 343 346 348 348 349 348 345 341 340 341 345 344 343 342 339 335 344 348 347 349 348 349 349 345 344 343
326 328 327 327 327 326 326 325 325 326 323 322 322 329 352 351 348 348 346 346 347 348 348 348 346 343 342 341 342 343 343 342 338 340 342 346 345 346 348 350 350 347 348 344
316 323 326 327 326 325 325 325 323 324 321 321 322 320 325 345 345 344 346 349 348 349 349 348 347 346 344 343 341 343 342 341 339 343 338 343 345 345 346 349 349 349 346 343
316 319 319 321 322 322 324 323 321 318 318 320 320 321 328 347 346 345 345 348 348 350 350 349 348 347 345 343 342 343 342 341 340 342 343 339 343 344 346 348 347 348 345 344
314 316 316 317 318 318 322 317 319 321 320 320 319 320 320 342 342 344 345 348 347 348 349 349 348 346 345 344 343 343 342 341 341 339 342 339 340 344 346 347 348 349 349 347
313 314 315 316 315 316 317 317 318 323 322 321 320 322 322 325 337 343 344 346 344 345 347 348 348 348 346 346 345 344 343 342 342 340 338 338 338 343 345 349 348 345 348 346
314 316 316 316 316 315 316 319 317 319 318 320 321 322 323 323 323 341 343 340 339 338 341 345 348 348 348 347 347 345 345 344 343 343 339 336 333 340 345 349 349 345 347 347
312 314 313 316 315 315 313 314 318 315 323 323 322 324 323 324 330 333 346 344 339 340 339 343 348 348 347 348 348 347 346 346 345 344 343 338 332 335 344 347 348 346 348 348
311 311 312 314 313 315 313 312 311 313 316 320 321 321 321 326 327 329 330 332 343 340 340 346 348 349 348 348 348 347 347 346 345 345 344 343 335 330 338 344 347 349 349 351
312 309 312 314 314 314 314 313 311 313 316 318 319 322 326 326 325 328 330 332 335 344 343 345 349 350 349 348 348 348 347 347 346 346 345 345 343 331 330 339 346 347 349 351
312 309 311 312 311 312 314 313 312 311 309 315 317 319 322 324 326 329 330 337 340 342 346 349 349 350 349 348 348 348 348 348 347 347 347 346 345 339 328 329 340 345 347 348
313 307 310 312 312 312 313 314 312 312 310 312 313 316 320 322 325 327 329 328 343 342 345 348 348 348 343 350 349 349 349 349 348 348 348 348 347 345 338 328 328 341 345 346
309 311 312 313 313 314 314 315 314 312 313 314 313 313 320 317 321 324 325 325 333 335 341 342 340 341 340 340 350 350 351 350 350 349 349 348 348 347 346 342 331 327 334 345
309 313 312 313 313 312 313 313 314 314 314 314 314 314 316 323 324 326 323 321 328 336 340 344 343 344 346 342 342 342 351 351 351 350 350 350 349 348 348 348 347 342 330 329
309 310 310 311 312 312 312 312 313 313 314 315 316 313 321 323 325 325 327 327 324 328 329 327 334 342 345 343 344 345 348 352 352 352 352 351 351 350 350 350 350 349 348 340
306 309 308 309 311 312 309 311 312 313 319 320 321 320 320 320 324 325 324 325 327 326 326 328 326 345 348 344 342 344 344 351 353 354 354 355 354 353 353 353 353 352 351 350
307 307 309 309 310 310 311 312 315 314 318 315 315 315 316 318 324 324 323 324 329 330 330 325 331 330 342 346 347 348 348 346 344 353 354 355 357 356 355 355 354 354 354 352
308 308 308 311 313 313 314 312 314 313 317 312 312 313 313 316 319 320 316 321 326 329 331 332 336 337 342 343 345 345 348 341 347 352 352 355 356 356 355 355 354 354 355 353
307 309 308 314 316 313 310 310 311 314 314 310 310 311 311 311 314 313 313 317 322 325 327 330 331 332 335 334 333 333 334 346 340 340 351 352 354 355 356 355 354 354 355 355
312 309 311 311 317 315 308 308 311 308 306 306 307 307 308 309 309 312 312 311 320 323 325 326 327 327 327 328 329 329 329 334 349 344 342 347 353 357 356 356 355 355 356 356
312 306 306 307 309 309 308 306 306 304 304 304 304 305 306 308 308 308 311 310 313 321 322 323 324 324 323 323 323 325 329 331 332 348 353 351 355 356 357 357 356 356 356 356
308 307 308 307 307 306 306 306 305 304 303 303 303 304 305 306 307 308 310 310 312 320 321 322 322 323 322 321 322 326 328 332 335 340 347 353 356 359 359 358 357 356 357 356
306 306 306 305 306 305 306 304 304 304 303 304 303 304 306 308 311 310 311 310 316 318 320 320 321 321 322 321 320 324 330 332 337 340 346 349 354 355 360 360 359 358 358 357
307 306 305 303 305 305 305 305 304 304 305 303 303 305 308 311 313 313 313 312 317 318 320 321 321 320 319 318 318 319 328 332 337 342 349 359 359 357 360 361 360 360 360 359

GFSCGP_850_thetae_081.txt.gz
Theta_e
323 321 324 326 325 326 326 325 325 324 324 325 342 353 349 349 352 350 348 348 348 346 344 344 343 344 341 344 345 345 343 346 346 345 346 347 347 344 347 346 348 343 343 344
324 325 325 326 326 326 326 326 325 324 323 322 346 353 349 346 350 350 348 348 348 347 344 344 344 344 342 343 345 345 344 345 344 342 344 345 347 346 347 347 348 345 344 347
326 328 327 328 328 327 325 324 325 325 323 340 350 353 351 348 345 346 349 348 348 347 346 344 344 344 342 344 345 345 344 344 343 342 345 345 347 347 347 347 347 345 346 346
326 326 327 326 328 325 326 324 326 325 321 322 326 322 350 350 348 346 343 343 344 348 347 346 342 343 343 343 343 344 345 344 342 337 344 345 346 346 348 347 348 347 344 346
321 319 326 326 325 324 325 324 323 323 320 319 321 322 326 350 352 348 345 345 344 347 348 347 344 344 342 341 342 343 345 344 342 338 334 344 346 344 345 347 349 348 345 345
316 317 319 320 324 323 324 323 317 314 316 320 319 319 320 348 351 347 344 344 345 345 347 347 347 345 344 341 341 342 343 343 342 341 334 332 341 345 344 347 349 349 347 342
313 314 314 315 316 316 316 316 318 321 320 320 316 319 320 332 342 345 344 345 344 345 346 348 347 346 345 342 341 341 343 343 343 341 336 331 340 344 343 346 347 348 348 345
312 314 314 315 315 316 315 315 317 322 320 320 316 321 321 320 329 341 343 344 343 346 344 347 347 347 346 344 342 342 342 342 343 342 340 333 332 338 342 344 346 347 348 347
313 315 314 315 314 314 315 314 316 315 315 319 319 320 322 327 329 337 340 342 343 346 347 348 348 347 346 345 345 344 344 342 343 342 342 340 331 333 338 343 346 347 348 348
313 314 313 314 314 314 313 312 315 312 321 323 320 322 321 327 328 327 329 335 339 344 345 346 347 347 347 347 347 345 345 344 344 343 343 343 338 329 333 342 345 347 348 346
310 310 312 312 313 314 311 311 310 309 313 318 320 321 322 326 326 326 327 334 340 335 337 344 346 347 348 347 347 347 346 345 344 344 343 344 343 336 327 337 343 345 348 346
310 307 311 313 311 312 311 312 309 312 314 312 315 319 321 321 324 327 331 339 342 340 339 337 341 343 347 347 347 347 347 346 345 345 344 344 344 343 335 326 337 345 347 348
311 308 310 311 310 310 310 312 310 307 306 311 313 316 315 316 321 326 332 335 339 343 340 340 342 341 346 347 347 347 346 346 346 345 345 344 344 344 343 334 326 341 346 348
311 306 308 310 312 311 313 313 311 309 309 311 312 313 314 314 318 321 324 336 339 343 346 346 347 348 347 347 346 346 346 346 345 345 345 346 345 345 344 344 331 327 340 345
307 310 312 311 310 312 312 313 313 312 312 313 313 313 313 313 318 325 326 330 337 339 336 342 344 344 345 348 347 347 347 347 347 347 345 346 347 346 346 345 344 329 327 340
306 311 312 311 311 311 311 310 311 312 312 312 312 313 318 322 323 322 323 326 332 328 325 331 343 344 344 344 344 345 348 348 347 347 348 348 347 347 347 346 346 344 331 326
307 307 307 310 310 309 306 312 312 312 315 313 314 317 318 318 319 320 319 322 329 328 331 330 331 342 345 345 344 343 342 342 348 349 349 349 349 348 348 348 347 347 346 341
306 306 305 308 307 309 306 310 311 316 316 314 315 314 314 314 315 319 314 319 325 331 336 333 332 332 342 346 344 344 344 344 344 349 350 350 350 350 350 349 349 348 348 348
303 305 306 308 308 307 311 312 313 313 316 312 312 312 311 311 317 322 313 314 321 327 329 333 334 337 338 339 340 343 347 345 345 350 351 351 351 352 352 351 351 351 350 350
306 304 306 308 310 312 311 309 309 310 314 310 310 310 310 310 314 315 312 311 314 324 325 327 329 332 331 331 329 330 333 342 343 346 345 347 352 354 354 353 353 354 353 352
303 305 307 307 307 311 310 307 308 314 310 306 306 307 307 307 309 309 309 309 310 314 324 323 327 328 328 326 323 323 324 328 330 341 344 347 352 356 356 353 353 353 352 351
310 305 307 306 311 312 308 307 309 306 305 304 304 305 305 305 306 306 308 308 309 309 319 322 321 325 325 325 324 321 321 321 323 329 337 347 343 348 349 353 354 354 353 353
310 304 302 303 304 307 306 305 305 305 305 304 304 303 304 304 305 306 306 307 308 309 312 322 319 320 323 324 324 324 322 321 321 321 329 337 350 344 346 348 351 352 354 355
305 307 307 306 303 305 306 305 304 304 304 304 304 304 303 303 304 304 306 308 309 309 310 319 320 314 315 321 322 322 323 321 323 329 327 334 337 351 346 348 353 353 355 355
303 306 304 306 304 305 305 305 305 304 304 304 304 304 304 303 304 305 307 310 311 312 311 320 319 317 312 312 321 321 320 321 321 323 329 337 340 343 351 351 348 346 355 354
306 304 306 304 305 306 306 306 306 306 305 306 305 304 304 304 305 308 309 312 311 312 311 319 321 320 317 319 318 320 319 319 320 322 329 333 340 345 352 351 349 340 352 356

GFSCGP_850_thetae_084.txt.gz
Theta_e
321 319 320 322 324 325 326 325 325 324 324 324 327 344 347 349 350 350 349 347 347 347 346 345 345 343 339 339 339 340 341 341 342 344 346 345 345 345 347 347 347 346 346 342
321 321 321 323 325 325 325 326 325 325 323 322 330 339 347 348 349 349 349 348 347 347 347 346 345 344 342 341 342 343 343 342 343 341 341 345 344 343 345 347 347 343 343 344
323 325 324 326 326 326 325 324 325 326 323 341 345 336 350 346 346 349 349 348 347 348 346 346 345 344 343 341 343 343 344 342 343 342 342 343 344 346 346 345 348 345 345 346
325 326 327 326 328 326 327 323 325 325 321 321 324 320 338 347 346 345 346 348 348 347 345 344 344 344 343 342 341 342 344 344 343 344 344 342 342 343 344 345 347 346 344 346
326 321 326 325 325 324 325 323 323 323 319 319 320 318 320 345 348 346 346 345 348 348 347 343 344 344 343 343 341 342 343 344 343 344 344 343 344 343 343 347 347 348 345 345
315 316 319 323 323 323 323 318 314 313 314 319 319 318 319 347 348 347 345 346 346 348 348 347 343 344 344 344 343 342 343 344 344 344 342 342 341 343 343 344 346 347 347 345
312 314 313 314 315 315 316 315 317 319 319 320 314 318 319 320 324 342 344 345 346 347 347 346 347 343 343 344 343 342 342 344 343 344 341 337 337 340 340 341 344 347 348 345
311 314 313 314 314 315 315 315 316 322 319 319 315 320 327 325 328 333 340 344 344 346 345 343 347 346 345 344 344 343 342 342 344 344 342 340 337 335 332 339 340 344 346 345
312 314 312 314 312 312 314 313 313 314 313 317 317 320 319 325 327 327 330 339 342 343 344 343 344 347 347 345 346 344 343 342 343 342 343 342 339 334 332 337 339 343 344 346
311 313 312 312 313 312 311 311 315 313 320 322 318 319 322 324 324 325 328 332 340 337 343 343 345 346 347 347 347 347 346 344 341 342 343 343 341 335 332 333 336 340 344 345
309 309 313 311 310 310 311 311 309 309 312 318 319 324 316 316 319 323 326 333 336 342 341 341 346 345 345 347 347 347 347 347 343 342 343 343 342 340 335 331 332 337 343 343
309 306 309 311 309 310 309 310 308 311 315 310 314 321 313 312 315 321 323 327 340 345 341 338 339 346 347 347 346 347 347 347 346 344 343 344 344 342 340 332 329 334 340 342
311 307 309 312 309 310 311 311 307 305 305 311 315 317 313 316 319 324 324 327 336 341 343 341 337 336 345 346 346 345 346 347 346 345 344 343 344 343 343 342 331 328 336 341
310 306 308 309 310 310 312 313 310 307 310 311 311 313 312 321 323 322 322 325 330 332 342 343 345 342 343 345 346 345 344 345 346 345 345 344 343 344 343 343 343 333 327 336
306 311 311 310 311 311 312 312 312 312 311 312 312 313 312 320 321 320 320 323 328 328 337 343 344 344 344 346 345 344 344 344 345 345 345 346 345 344 343 343 343 343 338 326
304 311 310 310 310 310 310 309 310 311 311 310 310 312 317 318 318 317 316 318 323 329 335 338 341 344 344 344 345 346 345 345 345 345 346 346 346 346 345 344 343 343 344 341
306 305 305 308 308 308 311 311 311 311 316 315 311 314 312 313 313 315 314 317 317 322 328 334 334 336 345 345 344 343 343 345 346 347 347 347 347 346 346 346 345 344 344 344
306 304 303 307 305 306 305 310 312 314 315 313 314 312 311 311 311 314 312 312 315 319 324 326 329 328 330 337 344 343 343 342 343 345 347 348 348 347 347 347 347 347 346 346
302 303 305 307 306 306 312 309 309 311 313 310 310 309 309 308 312 317 314 310 310 309 316 323 325 325 323 323 328 336 344 344 344 346 345 346 348 349 349 348 348 348 348 347
304 302 305 306 310 311 310 309 308 308 313 306 306 305 306 306 310 316 317 311 310 310 309 318 324 324 324 322 322 322 322 330 341 344 347 349 349 350 350 349 350 350 350 349
301 303 306 307 306 308 309 307 307 313 310 305 304 304 304 305 307 307 307 310 308 309 309 309 318 322 323 323 324 324 324 323 322 324 334 343 345 347 351 353 350 350 351 352
304 302 305 308 311 311 308 306 307 306 305 305 305 304 304 304 304 304 305 306 308 309 310 309 309 316 320 321 320 324 324 324 322 321 323 324 336 346 346 350 353 350 350 352
304 302 301 302 303 306 306 305 304 304 305 305 304 304 304 304 304 304 304 305 306 308 309 309 309 310 315 320 320 319 323 323 323 323 323 323 324 333 347 345 348 351 351 351
303 306 307 302 302 305 305 305 304 304 304 304 304 304 305 305 304 304 304 304 305 306 308 309 309 309 311 317 319 318 319 320 320 320 319 323 321 322 331 346 348 346 347 347
302 306 304 301 303 304 305 305 305 305 305 305 305 305 305 305 304 304 304 304 305 307 309 311 311 311 310 315 318 319 318 318 318 319 318 318 320 322 322 331 347 352 350 349
304 302 302 303 305 305 306 307 307 307 306 305 305 305 304 304 304 304 304 305 307 308 311 312 311 312 311 317 318 317 318 318 318 318 318 318 318 320 322 322 330 349 353 353

GFSCGP_850_thetae_087.txt.gz
Theta_e
318 322 325 332 330 330 330 331 332 331 337 334 332 333 344 349 352 351 350 348 347 346 346 347 346 344 341 334 330 333 334 341 343 344 346 344 344 344 346 346 347 347 344 342
320 322 324 327 329 330 330 332 332 328 326 327 329 340 349 350 351 352 350 349 348 347 347 347 347 346 343 335 332 335 336 339 341 342 345 344 343 345 345 345 347 345 345 343
321 322 324 328 329 331 331 333 330 330 327 343 338 343 351 350 349 351 350 349 348 348 347 347 347 346 345 341 336 337 340 340 340 341 344 346 345 345 345 345 347 344 344 345
325 325 327 330 331 331 334 328 328 329 329 330 329 332 337 351 352 350 351 350 349 348 348 347 347 346 346 344 340 339 340 342 342 342 342 343 345 345 345 343 347 345 344 345
327 329 328 331 332 329 333 327 329 329 328 326 325 328 328 347 350 352 351 351 350 348 348 347 347 347 347 346 343 340 342 343 343 343 343 342 344 343 344 344 345 347 343 343
319 318 326 330 327 329 325 324 322 322 325 329 327 327 328 338 338 335 346 350 350 349 348 347 346 346 346 346 344 343 341 343 344 343 343 343 341 343 344 344 347 347 345 344
317 317 316 316 324 323 326 327 327 327 328 329 322 326 335 333 333 336 334 345 349 349 348 348 346 346 346 345 344 343 343 341 342 344 344 344 342 341 344 344 343 345 346 346
319 318 317 316 318 324 327 328 327 329 328 327 322 329 333 330 331 335 338 343 346 348 349 348 348 346 346 345 344 344 344 343 341 342 343 344 344 341 342 344 343 344 346 346
318 318 315 315 316 316 319 323 320 323 320 327 325 325 327 327 330 333 335 338 339 343 346 348 348 347 346 347 347 345 344 344 343 342 342 343 344 340 337 339 343 342 343 345
315 318 315 315 315 316 318 316 323 324 328 328 326 329 328 326 327 332 335 337 342 342 343 343 346 347 346 344 347 347 346 345 344 344 342 342 344 342 340 337 338 339 340 343
314 317 317 317 315 315 318 319 317 322 323 327 327 328 319 323 326 333 334 334 339 344 344 344 341 346 346 345 346 346 347 347 346 344 343 342 342 343 342 339 333 338 341 339
313 316 317 316 313 313 314 316 316 326 325 321 326 325 320 324 327 329 330 331 334 342 346 345 338 340 347 347 345 346 347 347 347 347 346 343 342 342 343 342 337 333 336 339
314 314 317 316 316 315 316 315 314 314 317 324 326 323 320 325 327 327 328 329 335 338 343 345 345 341 342 347 346 345 346 347 347 347 347 346 344 342 343 343 342 336 331 334
313 314 315 317 317 316 316 315 314 316 321 321 321 320 320 327 327 325 326 327 333 334 337 339 343 344 344 342 346 344 345 345 346 346 346 346 347 346 343 343 343 342 336 331
314 316 315 314 314 314 314 314 314 315 316 319 318 318 322 324 324 322 324 326 328 325 330 333 334 341 344 344 344 344 344 344 345 345 345 346 346 346 345 343 343 343 342 339
311 316 313 313 312 312 312 312 312 312 313 314 314 316 318 319 319 319 320 323 321 320 323 325 331 329 338 343 344 343 343 342 343 344 344 345 345 346 345 345 344 343 343 342
313 314 313 313 312 311 312 313 312 313 316 317 315 318 316 318 316 315 315 317 315 314 317 324 322 328 326 331 341 343 343 344 343 343 344 344 344 345 345 345 345 345 344 343
312 313 313 314 311 312 313 313 315 314 317 316 317 315 313 313 312 313 312 312 312 312 316 317 319 324 325 323 325 335 343 343 344 344 344 345 345 346 346 346 346 346 345 345
309 313 314 315 312 311 313 311 313 316 317 313 314 311 310 310 312 316 313 310 310 310 311 311 312 321 323 325 323 323 328 340 343 343 343 344 346 347 347 347 347 347 346 346
310 311 315 314 314 313 314 311 309 311 316 310 309 309 309 309 315 318 311 309 309 308 310 312 311 310 317 321 322 323 322 324 330 341 346 347 344 344 346 348 349 348 348 348
314 314 316 316 316 314 313 309 309 315 315 308 307 307 307 309 308 307 307 307 307 307 309 310 312 311 310 312 320 320 321 321 324 326 325 330 336 345 348 349 348 352 351 350
313 315 315 315 315 314 311 308 312 310 307 307 307 306 306 306 306 306 306 306 307 307 307 307 309 311 311 310 311 317 319 320 322 322 322 322 323 328 337 345 344 346 350 351
313 312 314 314 314 310 308 308 307 306 306 306 306 306 306 306 306 306 306 306 306 306 306 307 308 308 311 310 309 311 315 318 319 320 320 320 318 320 322 329 329 346 345 352
309 307 312 310 310 309 308 307 306 306 306 306 305 305 306 306 306 305 306 306 306 306 306 307 308 309 310 310 310 309 313 317 318 318 319 318 318 319 320 320 325 330 334 346
309 309 311 309 308 307 307 307 306 306 306 306 306 306 306 306 305 305 304 305 305 306 306 307 308 309 311 312 310 310 312 316 318 318 317 318 318 318 320 322 321 323 325 338
307 311 312 315 310 309 309 306 306 307 307 307 307 307 306 305 305 305 304 304 305 306 306 308 310 311 311 312 312 311 315 318 318 317 316 317 318 318 320 322 325 320 321 326

GFSCGP_850_thetae_090.txt.gz
Theta_e
321 323 324 327 331 333 336 342 339 341 344 344 348 343 353 352 353 353 352 349 346 343 342 345 346 345 342 342 343 345 346 347 347 347 346 348 350 348 352 352 350 344 343 342
323 324 324 328 332 334 335 338 340 335 332 333 334 336 341 350 350 353 353 352 348 346 344 347 348 348 346 343 342 344 344 341 346 350 350 349 350 351 345 351 349 348 343 342
324 324 324 329 334 333 333 337 336 336 332 337 337 340 345 348 349 351 353 352 351 348 345 347 348 348 348 346 342 340 335 340 343 351 351 348 351 351 347 349 350 348 346 345
323 324 326 329 333 332 333 333 335 333 333 338 336 339 340 349 350 352 353 353 351 350 348 346 348 349 348 348 343 343 337 338 341 344 351 352 350 350 349 350 352 352 348 348
326 324 327 330 333 333 333 332 333 334 335 333 334 334 340 341 349 352 351 352 351 350 349 347 348 348 347 348 348 344 337 339 343 341 347 351 346 348 350 350 350 350 345 348
328 325 327 331 332 332 331 332 332 332 334 333 333 333 338 341 340 339 341 351 353 351 350 349 348 347 348 348 348 348 346 339 341 342 342 345 352 349 348 350 349 345 352 351
325 327 325 326 333 332 332 331 332 332 331 332 333 333 340 337 340 341 336 344 351 352 350 351 350 349 348 349 349 349 350 345 341 342 343 343 343 352 351 351 347 345 350 350
325 324 324 322 328 332 333 331 331 332 331 331 331 332 339 336 338 340 342 345 347 351 351 350 351 349 349 349 350 350 350 347 343 341 341 343 344 349 349 348 348 350 350 350
324 322 319 319 321 323 332 332 329 329 330 331 331 335 333 334 338 341 343 345 346 348 350 351 351 351 349 349 350 352 351 346 344 344 342 341 343 344 350 348 348 348 350 352
322 322 320 319 319 321 326 330 329 328 331 331 331 335 335 335 340 340 340 342 346 347 347 347 349 350 351 350 350 351 352 351 346 344 344 343 342 342 343 347 349 347 349 350
320 323 321 320 322 323 323 327 327 328 329 331 332 332 327 333 339 338 339 341 346 347 349 348 343 346 350 351 350 349 351 352 353 352 346 344 344 343 343 343 344 345 347 349
319 323 323 322 318 319 321 325 327 329 330 330 331 329 328 332 336 336 337 342 340 342 342 344 348 345 346 348 349 349 350 351 352 353 353 350 345 344 344 343 343 345 343 343
319 321 323 321 320 320 322 321 323 325 327 330 329 329 329 331 334 334 336 337 336 335 337 338 338 338 346 349 351 350 348 350 351 352 352 353 353 351 345 343 342 343 342 338
318 320 322 322 323 322 322 320 320 323 327 329 329 330 330 329 331 332 333 334 332 331 330 334 334 334 338 342 345 350 349 349 350 351 351 352 353 353 350 348 344 342 343 342
319 323 321 320 318 319 319 319 318 321 324 326 327 328 329 328 327 328 330 331 328 327 327 328 330 332 332 341 345 347 349 348 350 350 351 352 353 353 353 351 349 344 343 343
317 320 320 319 316 317 318 318 317 317 318 322 323 325 323 323 322 323 325 325 325 323 323 324 325 326 331 330 334 343 345 348 349 350 350 351 352 353 353 353 351 349 344 343
317 318 319 318 315 315 316 318 317 316 318 319 321 324 320 321 320 319 321 321 321 320 319 320 321 321 323 330 329 332 342 344 348 350 351 350 352 352 352 352 352 351 348 347
316 318 317 318 316 315 319 317 316 316 320 319 320 319 318 318 318 319 318 318 317 317 318 318 318 318 319 321 328 327 328 341 343 346 348 348 350 350 352 353 352 350 350 351
315 316 317 318 316 316 315 315 316 317 320 318 319 317 316 316 317 320 318 315 315 315 315 315 316 316 317 317 318 327 327 326 333 342 343 344 345 347 348 349 351 349 353 350
314 316 318 316 317 316 319 315 314 315 319 315 315 315 315 315 317 323 315 313 312 312 313 313 313 314 316 316 315 315 325 326 326 327 333 338 344 346 345 348 349 349 349 349
318 318 319 319 319 318 317 313 314 316 320 313 312 312 312 314 313 311 311 311 311 311 312 312 312 313 314 315 313 312 312 321 322 321 322 326 326 328 338 344 347 347 348 350
319 321 320 320 320 320 315 313 316 315 311 310 311 311 311 311 311 311 310 310 311 311 311 311 311 312 313 314 314 315 313 311 311 314 320 321 320 321 325 336 334 340 345 347
319 317 320 318 319 316 313 313 311 310 311 310 310 309 309 309 310 310 310 309 310 310 310 310 311 311 312 314 315 314 314 313 311 311 313 318 320 319 320 332 333 337 339 343
314 313 316 315 313 314 312 310 309 309 309 309 309 308 308 308 309 309 309 308 307 308 308 309 310 311 311 313 314 316 313 317 318 311 311 313 317 318 318 323 331 334 336 337
315 313 316 315 313 311 311 311 310 309 309 309 309 309 308 308 308 308 307 307 307 306 308 309 309 309 310 311 313 315 316 313 320 320 312 311 313 316 318 319 323 327 332 334
312 315 317 319 313 312 313 311 310 310 310 309 309 309 308 308 307 307 306 307 306 307 305 306 307 307 308 311 312 314 316 317 318 319 319 318 318 316 313 317 317 322 323 321

GFSCGP_850_thetae_093.txt.gz
Theta_e
323 324 326 328 329 334 336 344 346 344 346 347 351 354 358 354 353 354 352 349 348 348 345 341 340 339 340 342 346 347 347 350 349 348 346 347 349 351 350 350 350 347 351 350
326 326 326 327 329 330 335 340 344 343 345 344 349 352 352 354 354 352 353 352 350 348 343 342 341 341 340 342 345 347 348 351 350 348 347 347 349 349 351 351 351 351 350 350
326 327 327 326 329 332 337 339 342 344 339 339 339 345 348 348 350 354 353 352 349 346 343 345 344 343 342 343 344 347 349 351 351 349 351 350 351 352 351 352 352 352 352 351
326 326 326 326 333 334 335 336 339 338 339 343 339 345 348 348 349 352 353 353 350 347 345 346 347 346 345 344 343 345 349 350 352 352 350 347 347 349 350 351 352 351 352 352
326 326 326 328 332 332 332 332 337 336 336 339 339 340 344 348 350 352 350 352 351 349 348 347 348 348 347 345 341 344 349 349 351 350 352 351 350 349 350 350 352 353 349 351
327 325 327 328 330 332 334 333 336 336 336 337 337 338 344 345 347 346 348 350 351 350 350 348 348 349 348 346 345 343 349 348 347 351 344 349 352 350 351 349 353 352 352 352
329 329 327 329 332 333 335 335 335 334 336 336 334 334 345 343 342 341 340 348 349 351 350 349 348 349 348 346 346 348 349 350 348 350 354 343 348 350 352 354 352 351 351 352
329 329 328 330 333 334 334 335 334 334 333 333 333 339 343 341 341 343 344 346 348 349 351 351 350 349 349 348 348 347 350 352 354 352 351 353 349 353 349 350 349 350 350 351
328 328 325 327 331 331 334 335 332 332 332 331 337 341 339 341 343 344 346 349 350 347 350 352 351 351 350 350 350 350 351 351 356 355 350 353 351 346 350 348 345 352 351 350
327 327 324 324 325 327 329 332 334 332 335 333 336 340 341 343 344 344 347 350 349 351 351 350 351 352 351 351 352 353 353 354 356 357 357 355 353 350 346 353 349 347 348 351
325 327 324 323 325 326 329 331 333 332 332 334 336 340 339 342 341 344 345 344 345 347 347 349 350 349 352 352 351 352 354 356 357 358 357 356 356 357 356 355 354 347 346 351
324 325 325 324 324 325 326 329 332 333 333 331 333 335 337 339 338 343 341 339 339 340 342 343 345 349 352 353 353 353 352 353 354 357 357 357 357 356 357 357 355 351 344 343
324 324 327 325 324 324 325 326 328 330 330 333 333 337 336 338 337 340 339 339 336 336 337 340 340 340 342 346 352 352 352 352 353 354 356 357 357 357 357 356 356 354 348 343
320 323 325 326 327 324 325 325 326 327 330 331 332 337 338 338 338 338 336 336 335 335 335 335 337 338 338 340 346 350 351 351 351 353 354 356 357 358 357 357 356 356 353 349
323 323 323 324 322 324 325 325 324 325 327 329 335 337 336 335 335 335 334 333 332 331 331 331 332 334 336 336 343 345 350 350 350 351 352 354 356 357 358 358 358 357 356 354
322 324 324 322 320 320 322 322 321 322 324 327 334 333 331 328 327 328 328 328 328 328 328 327 327 328 330 335 335 340 345 347 349 350 351 352 353 354 355 357 358 358 357 355
322 324 324 323 322 320 320 321 321 321 322 324 331 330 327 327 324 325 325 324 324 324 325 326 325 324 324 325 330 333 335 343 346 349 350 350 350 351 352 354 355 355 355 356
321 322 323 322 322 321 322 321 320 320 322 324 327 326 326 323 321 323 322 322 322 322 322 321 322 323 323 323 322 326 332 331 340 344 348 349 350 350 350 351 353 353 354 354
318 320 321 321 321 320 320 320 320 320 323 322 324 321 320 319 320 321 320 318 318 318 319 320 319 319 321 323 322 322 325 330 330 331 338 342 346 347 350 350 351 351 351 352
317 320 321 321 320 320 322 318 318 318 323 320 320 320 318 317 319 324 319 316 316 316 316 317 317 318 319 320 321 322 323 323 328 328 325 325 330 339 343 345 348 352 351 352
319 319 321 322 321 322 320 317 316 318 323 318 317 317 316 318 317 316 315 315 315 315 315 315 315 316 317 318 320 321 322 323 324 325 325 325 323 323 328 338 345 346 347 349
321 322 322 322 322 322 318 316 317 321 317 315 314 314 315 314 314 314 314 313 314 314 314 314 314 315 315 316 317 319 321 322 322 325 324 322 315 321 323 321 334 337 342 345
322 320 325 321 324 321 317 317 317 316 315 313 313 312 312 312 312 312 312 313 312 312 312 313 313 314 315 315 316 318 319 321 320 319 325 321 317 312 317 320 321 333 335 342
317 317 320 319 319 318 316 315 313 312 313 312 311 311 311 312 312 312 311 312 311 311 311 312 313 313 313 313 313 315 316 318 320 320 323 326 323 322 313 318 325 326 332 336
319 318 318 318 317 315 315 312 312 312 312 311 311 311 311 311 311 310 310 310 310 310 310 309 309 310 310 312 312 313 315 316 319 320 321 323 324 322 321 318 320 322 324 327
315 317 319 321 316 315 315 313 313 313 312 312 311 311 311 311 310 310 309 309 309 309 308 308 308 308 309 309 311 312 312 315 318 320 320 321 322 322 321 319 319 319 316 317

GFSCGP_850_thetae_099.txt.gz
Theta_e
327 322 321 322 323 326 331 334 338 348 352 353 353 350 354 352 349 346 344 343 342 342 342 344 345 345 345 346 344 347 348 347 343 349 349 347 344 345 348 349 347 345 342 347
324 323 324 323 325 326 329 331 348 349 347 350 349 354 354 353 350 347 345 344 342 342 342 343 346 344 345 347 343 348 347 347 340 347 348 349 347 348 349 348 349 349 345 343
324 325 326 324 324 325 326 326 344 350 348 348 349 352 347 350 352 348 346 345 343 343 343 343 344 343 345 347 344 347 348 348 339 345 348 349 349 346 347 345 346 350 348 347
323 325 326 324 324 324 323 327 333 347 345 358 353 355 345 349 355 350 347 346 345 345 344 343 343 342 344 346 345 345 346 348 340 347 347 350 348 347 346 348 347 351 349 348
323 323 323 325 325 325 325 328 342 342 343 346 349 354 346 347 353 353 352 349 347 345 346 342 341 341 342 343 343 343 345 345 347 349 348 346 345 344 352 350 350 349 350 350
323 325 323 324 326 325 327 328 339 341 341 345 340 350 352 351 353 346 349 353 350 349 346 344 342 340 342 341 342 343 341 341 347 350 348 346 343 347 349 351 347 347 346 347
324 325 324 325 325 325 328 330 330 339 341 342 334 344 351 350 345 342 342 341 351 351 349 346 343 342 342 342 343 344 343 338 344 349 349 348 348 346 348 348 345 346 344 345
325 326 325 326 326 326 326 328 330 339 339 338 339 353 349 343 346 345 343 344 347 348 347 345 345 344 344 343 344 343 342 334 335 344 346 347 348 349 349 348 349 347 350 347
328 327 327 325 326 325 327 329 327 329 332 330 345 345 345 341 341 348 341 345 347 343 345 349 348 347 347 345 344 343 339 333 335 336 340 343 344 342 348 345 349 349 350 350
326 326 327 327 326 327 331 331 330 329 335 335 345 345 346 350 354 353 352 352 350 347 347 348 348 349 347 348 346 347 342 336 339 339 339 339 340 342 344 346 346 347 350 350
323 325 327 327 328 329 330 329 330 328 332 332 347 349 347 351 348 347 346 347 348 344 346 346 340 344 347 345 349 350 347 346 341 341 340 341 341 342 344 348 351 346 349 350
325 324 324 326 325 326 327 329 329 329 332 342 345 346 344 346 343 342 341 341 344 344 344 341 338 337 339 340 344 347 346 349 348 347 347 344 342 342 343 345 346 350 347 347
323 324 327 327 324 324 324 324 323 324 328 338 338 340 344 342 341 341 340 339 340 342 342 342 344 346 345 339 339 341 341 344 348 349 349 349 351 349 346 344 346 347 348 342
322 323 325 326 326 326 323 324 324 323 326 334 340 348 346 343 342 340 337 336 335 336 337 340 338 338 339 343 345 345 338 341 342 342 340 349 350 351 351 347 349 347 350 350
321 324 324 325 326 322 322 324 324 325 333 337 335 344 342 339 337 335 333 332 331 330 329 329 330 335 336 336 339 342 345 347 347 343 341 341 346 350 349 350 351 352 353 352
320 324 322 324 324 322 322 322 324 325 335 334 340 341 338 336 335 333 332 331 330 328 327 326 327 325 330 332 335 333 337 343 347 348 348 344 342 337 339 349 350 351 353 354
323 325 326 323 323 323 322 322 322 334 338 339 340 336 335 334 332 331 328 327 327 325 325 325 325 326 325 326 328 331 332 332 336 344 347 348 347 344 339 338 346 350 352 352
320 324 323 323 324 324 323 321 322 326 332 333 334 332 332 329 327 326 325 325 324 323 322 322 322 323 323 323 325 326 328 328 330 330 334 342 348 347 345 345 339 348 350 353
317 319 321 323 322 323 324 322 321 326 333 332 331 330 329 325 323 322 322 321 320 320 319 319 320 321 322 322 323 325 326 326 326 327 327 327 328 338 343 347 349 349 349 350
317 319 321 323 325 323 321 320 319 322 326 329 327 326 325 324 324 322 320 319 318 318 318 318 318 318 319 319 319 321 323 324 325 325 325 324 322 324 329 331 335 341 344 346
318 319 321 321 323 324 321 318 318 321 327 326 325 324 324 320 322 320 319 318 317 317 316 316 317 317 317 317 317 319 320 321 322 322 322 325 323 321 322 321 322 323 327 337
324 322 321 320 322 325 321 318 323 323 319 320 321 320 320 319 318 318 317 317 316 315 315 316 316 316 317 317 317 317 317 317 318 318 318 320 321 324 323 321 320 319 323 332
322 322 324 323 324 321 321 321 320 318 318 317 317 318 318 317 317 316 315 315 314 314 313 314 315 315 315 314 313 313 313 312 311 312 314 315 316 318 321 323 322 321 320 322
320 320 320 321 322 321 320 319 318 317 316 316 315 315 314 314 315 314 315 314 313 313 313 312 311 311 311 311 310 310 310 310 310 311 314 316 320 320 320 323 324 323 322 321
321 319 319 320 320 319 318 317 317 317 315 315 314 313 313 313 313 313 313 313 312 312 312 311 309 309 309 309 308 308 309 309 309 310 312 314 317 320 321 322 324 325 323 323
319 320 319 319 319 319 318 315 314 315 315 313 313 313 313 313 312 312 312 312 312 311 311 310 308 307 306 306 307 308 308 307 307 307 308 310 311 313 314 318 321 322 322 323

GFSCGP_850_thetae_102.txt.gz
Theta_e
326 319 321 321 320 321 323 326 351 354 351 351 349 347 348 347 349 351 344 342 342 345 345 347 346 347 348 345 347 343 341 341 345 348 347 347 347 345 344 344 343 342 342 342
320 320 320 321 322 322 323 328 352 350 349 350 351 353 352 349 350 349 343 342 342 344 344 344 345 346 347 345 346 347 346 343 342 347 347 344 346 346 346 345 345 342 344 343
321 322 323 323 323 322 321 323 348 350 348 347 349 350 351 348 348 345 344 342 342 344 345 345 344 344 345 345 345 346 346 345 344 347 349 348 349 347 345 348 345 345 344 344
322 323 324 323 323 321 319 321 341 349 350 355 347 348 347 345 349 347 344 342 341 342 345 345 345 344 344 345 345 346 346 346 344 347 347 348 348 344 345 346 345 345 345 345
321 322 322 323 323 322 322 323 336 346 344 349 351 350 345 346 352 351 348 344 342 341 343 345 345 345 344 344 345 343 344 345 342 345 346 349 349 347 346 348 346 348 348 347
320 323 320 320 322 322 324 336 338 338 340 345 344 349 351 351 353 351 348 345 345 344 343 344 345 344 343 344 344 343 342 340 342 343 345 347 347 343 343 350 349 347 349 349
323 323 321 322 322 321 324 323 327 341 347 343 343 347 343 348 350 350 351 349 346 346 346 342 343 343 343 344 343 343 343 340 339 346 346 346 346 343 347 348 349 347 348 347
323 323 323 324 322 322 325 324 326 336 337 337 341 349 348 343 343 347 347 349 349 349 348 346 341 343 341 341 341 341 342 342 338 345 347 345 345 345 346 349 346 345 344 342
323 324 325 324 325 322 324 325 323 327 327 336 344 345 341 345 344 343 342 345 345 350 348 346 343 342 345 346 345 342 343 341 336 340 347 349 347 344 347 348 348 347 348 349
323 325 324 326 324 324 323 325 330 324 332 339 345 346 346 346 354 351 345 346 347 346 346 347 347 345 345 345 347 346 346 343 340 335 339 345 340 341 346 344 347 346 347 351
320 321 323 323 324 324 326 327 325 324 324 334 346 346 349 351 350 350 349 347 347 345 345 346 347 347 346 345 346 347 348 346 344 340 339 338 338 338 338 342 348 349 346 348
322 318 321 323 323 323 326 327 324 327 329 338 338 350 345 343 343 344 345 345 344 344 344 340 337 344 347 342 337 345 346 346 344 344 342 341 339 340 340 340 345 347 349 346
319 319 324 323 319 319 321 322 319 319 326 331 336 345 343 342 341 341 343 343 343 344 343 344 343 337 345 342 337 335 340 344 346 345 345 342 342 342 342 342 343 347 348 346
321 316 321 324 321 322 321 320 322 318 323 335 340 345 345 342 341 340 339 338 339 339 339 339 340 342 342 341 341 339 340 341 341 339 346 346 345 346 345 344 343 344 345 345
318 320 319 319 321 321 320 321 321 323 327 329 342 344 345 342 337 334 332 331 331 334 336 337 336 336 340 345 344 342 341 340 339 342 341 342 343 340 346 346 346 347 346 346
315 319 320 320 321 320 320 321 328 332 338 339 340 341 337 334 332 330 329 327 327 327 325 329 331 335 333 333 339 344 345 345 346 345 340 340 340 338 338 345 346 347 348 349
319 319 321 323 320 319 319 320 324 336 336 339 341 338 334 332 330 329 328 327 326 325 326 325 325 327 329 332 330 331 336 345 347 346 346 346 343 339 338 339 344 346 349 350
314 318 317 321 318 321 319 318 325 335 335 335 335 334 332 330 327 326 324 323 322 322 323 323 323 323 325 328 329 328 330 331 335 339 340 341 344 344 343 339 340 340 341 346
312 313 317 319 320 319 322 319 322 331 332 333 331 326 324 323 323 322 323 322 320 320 320 321 321 322 323 325 326 326 326 328 329 330 330 332 333 335 340 344 345 345 347 345
312 311 315 317 322 322 320 319 321 323 332 330 326 323 322 322 322 319 319 319 318 318 318 318 319 319 319 320 322 324 325 325 325 326 326 325 325 328 329 328 328 329 334 340
315 315 317 317 319 321 318 318 322 323 321 328 327 323 323 320 320 318 317 317 317 317 317 317 317 317 317 317 317 317 319 320 322 322 324 324 323 322 321 319 318 319 323 330
320 317 319 317 319 322 321 320 320 318 318 324 325 323 323 320 318 317 317 316 317 316 316 315 316 316 316 316 316 315 315 314 314 315 317 320 321 322 323 323 322 320 320 327
318 317 319 319 319 319 318 318 317 319 319 319 321 319 319 317 317 317 316 316 315 315 314 315 315 315 314 313 311 311 310 310 310 310 311 313 314 316 318 320 321 322 322 322
315 317 317 318 318 319 318 317 317 316 317 317 318 319 319 317 316 315 315 314 314 313 313 312 310 311 310 310 310 309 309 308 309 310 311 313 314 315 316 318 320 321 324 323
315 316 314 315 317 319 318 317 316 316 316 315 314 315 315 315 315 315 314 314 313 313 312 311 309 307 308 307 307 307 307 307 307 307 308 310 311 313 315 318 319 321 323 322
316 315 313 313 316 316 318 317 316 316 314 314 314 313 313 313 314 313 313 312 312 312 311 309 308 306 306 306 306 306 305 305 304 304 305 306 307 308 309 309 311 318 320 321

GFSCGP_850_thetae_105.txt.gz
Theta_e
320 320 320 320 320 320 322 324 355 353 348 346 347 349 348 347 348 349 349 340 343 345 346 346 344 346 347 347 343 343 343 343 345 345 345 344 345 342 341 343 342 342 342 342
319 320 319 320 320 321 322 339 352 350 349 349 346 350 348 347 348 349 349 341 343 345 347 345 345 347 348 346 344 342 344 341 342 345 344 345 345 345 343 343 343 343 342 340
321 322 321 322 322 322 320 325 348 351 348 349 350 351 350 347 346 348 349 341 343 345 346 345 346 348 347 345 345 344 342 345 340 346 347 344 345 345 345 345 343 342 342 343
321 322 323 322 323 321 321 320 343 348 347 348 347 351 348 350 350 348 347 340 344 344 345 345 347 348 346 345 345 344 345 346 341 345 347 346 346 345 344 346 345 343 343 343
322 322 322 322 322 320 321 321 337 346 347 348 352 346 344 350 352 350 347 340 342 344 345 346 346 345 344 344 343 344 345 346 344 344 347 346 348 346 345 346 345 345 345 343
320 321 320 320 321 321 323 336 338 336 338 344 348 347 348 349 350 349 347 343 340 344 344 344 345 344 344 344 344 344 345 345 345 343 344 346 348 348 347 346 345 344 345 346
320 322 320 320 320 320 322 330 336 344 344 345 339 346 340 345 346 347 347 345 341 341 344 344 345 344 344 344 343 344 343 343 343 339 342 345 346 346 344 343 348 344 347 345
321 323 321 320 320 319 319 324 326 340 342 339 340 343 343 343 344 346 348 346 345 342 343 344 342 345 344 344 343 342 343 342 342 340 337 344 345 346 344 347 348 348 346 347
320 323 323 322 320 320 322 323 321 324 324 339 342 342 341 344 342 346 347 347 347 344 342 344 343 345 345 345 345 345 344 343 343 340 338 340 343 345 345 346 348 346 345 345
319 323 323 324 322 325 320 321 326 322 328 340 344 347 346 350 347 341 346 346 347 347 345 343 343 343 345 346 346 345 346 345 344 342 339 342 345 346 343 347 348 348 346 347
319 320 323 322 321 323 326 327 322 320 323 338 344 345 347 348 350 348 346 344 347 347 346 346 345 342 343 346 346 346 345 345 344 345 341 344 346 347 343 346 346 347 348 347
319 316 321 323 321 319 323 325 323 325 331 332 338 347 344 346 345 345 344 343 345 346 347 346 346 345 346 346 345 339 342 345 344 347 346 343 341 343 344 341 340 345 346 347
319 317 322 322 319 319 318 318 319 319 324 332 339 346 343 343 343 343 343 342 343 342 341 342 345 347 345 345 344 340 345 344 344 345 346 345 341 341 341 340 341 341 343 345
318 315 319 321 320 320 320 319 318 317 321 332 337 349 347 344 340 338 340 340 340 342 343 341 338 339 345 344 337 336 337 342 344 343 343 344 343 340 341 341 341 341 343 346
316 319 319 320 319 319 320 324 321 320 323 329 343 347 345 343 339 334 335 338 337 336 338 340 341 341 340 341 341 340 338 339 339 342 340 339 341 344 343 343 346 343 342 343
315 319 321 322 321 319 320 319 330 335 339 338 342 344 340 338 332 330 330 329 332 333 334 334 335 339 341 343 342 343 342 342 340 339 339 337 336 337 337 340 345 344 344 344
319 318 319 324 319 319 320 319 320 336 336 340 344 341 335 332 330 328 327 326 327 328 330 334 334 331 332 335 337 339 342 342 342 339 341 338 343 339 338 339 337 338 342 345
313 317 316 320 321 323 319 320 334 336 335 334 336 335 331 330 327 326 326 326 325 325 325 326 327 331 330 329 330 330 331 333 335 339 340 341 345 344 342 339 339 337 340 344
310 313 315 318 322 322 323 318 319 329 336 334 333 331 327 325 325 322 323 324 324 324 324 323 325 326 328 327 327 328 329 328 329 329 330 332 333 337 339 341 343 343 340 340
311 309 313 316 320 322 325 321 322 328 336 328 329 326 325 325 324 320 321 321 321 322 322 322 322 322 323 324 325 325 325 325 327 327 326 325 327 328 325 324 324 328 330 337
313 312 314 316 318 320 318 319 320 324 322 327 325 325 324 324 322 319 319 319 319 319 319 319 319 318 318 317 317 317 318 321 322 323 323 324 324 323 323 320 319 320 326 328
318 314 316 314 318 322 319 318 320 318 319 325 324 323 322 321 320 318 319 318 318 317 317 317 316 316 316 316 315 314 314 313 313 314 316 318 320 321 322 323 322 320 320 325
316 315 317 316 316 317 316 317 318 318 321 325 322 322 323 320 318 317 317 317 317 316 316 315 315 314 314 314 313 311 310 309 309 309 310 311 313 315 317 319 320 322 322 321
314 315 316 316 317 317 316 317 319 319 320 324 323 322 319 317 317 316 316 316 316 316 315 313 311 310 310 309 308 307 307 307 307 309 310 311 312 313 315 317 318 319 321 322
313 313 312 313 316 317 316 315 317 318 319 320 320 320 318 317 316 316 316 315 314 313 312 311 310 309 307 307 306 306 306 306 306 306 307 308 309 310 312 314 316 317 319 319
314 312 312 313 315 315 317 316 315 315 315 317 318 318 318 317 316 315 314 313 313 312 312 310 308 306 305 306 306 306 305 304 304 304 305 305 305 305 306 307 307 308 311 315

GFSCGP_850_thetae_108.txt.gz
Theta_e
319 321 323 319 319 320 322 348 353 352 346 348 347 346 347 347 347 347 342 343 345 346 346 345 345 343 346 346 346 343 344 345 345 345 345 345 345 344 344 343 342 343 343 342
318 322 321 320 319 321 330 349 352 350 349 344 346 348 348 347 347 347 347 339 343 345 346 346 346 343 346 346 346 342 342 340 343 343 342 343 345 343 341 343 341 341 341 340
323 324 319 320 320 320 320 342 349 349 349 346 347 350 350 348 346 347 347 342 341 344 345 346 346 344 346 346 345 342 341 340 340 344 343 344 345 344 344 344 343 343 341 340
322 322 321 321 322 320 321 321 347 349 344 349 344 350 351 349 348 347 347 346 343 343 343 344 346 344 346 346 344 343 342 343 339 343 346 343 344 344 345 345 343 342 341 341
322 320 322 322 322 319 321 321 345 344 344 345 351 344 341 349 350 348 346 345 342 343 342 344 345 344 346 347 344 344 342 344 343 340 345 344 345 345 344 346 344 342 343 343
320 320 320 320 321 320 328 338 337 336 339 345 345 345 347 351 349 347 344 345 342 343 343 342 344 344 346 347 344 345 344 345 344 341 342 346 344 345 346 345 345 345 344 343
320 321 320 319 319 318 323 332 340 343 344 343 336 346 340 342 346 346 345 344 343 343 343 344 345 345 346 346 345 345 345 345 345 344 343 342 345 345 345 346 347 345 343 343
319 321 320 318 319 319 321 327 335 343 343 341 340 346 339 342 342 345 344 345 344 342 343 344 345 346 347 346 345 344 344 345 345 345 344 340 345 345 345 344 344 347 345 346
318 321 321 318 317 319 320 326 323 327 322 339 340 341 339 343 345 345 345 346 342 341 343 344 345 346 345 345 345 344 344 345 345 345 344 341 343 344 343 344 346 346 346 345
318 320 321 323 322 323 320 318 324 320 328 336 343 345 344 348 346 347 347 348 345 342 343 344 344 343 343 345 344 345 345 344 344 345 344 343 342 342 344 343 346 346 346 346
317 318 321 320 320 323 325 324 319 320 323 339 343 343 346 346 343 347 346 347 345 343 343 344 344 343 343 342 344 345 345 345 345 345 345 344 342 342 344 345 346 345 345 346
318 314 320 323 320 318 322 324 321 324 333 332 335 342 346 346 347 343 344 345 346 344 342 343 343 342 343 342 344 346 345 344 343 342 344 344 340 343 344 343 342 342 344 345
317 316 320 321 317 317 317 317 318 319 326 334 337 341 344 344 344 344 342 342 343 345 345 345 344 344 343 345 346 345 343 341 339 343 343 345 344 341 340 340 340 339 340 341
318 315 318 320 319 318 320 320 317 317 321 328 333 345 348 344 344 343 343 343 343 342 342 344 345 345 344 346 344 341 339 338 342 344 343 344 344 343 341 340 339 339 340 341
316 319 318 319 318 318 318 321 325 320 321 329 333 343 344 343 340 340 340 342 342 342 342 339 339 342 345 344 344 341 339 339 340 343 342 342 340 343 343 341 341 341 341 341
315 320 320 322 320 318 318 326 321 336 333 337 340 343 341 338 335 337 337 336 336 337 338 340 340 340 340 342 340 338 338 339 341 340 341 340 337 336 342 341 338 338 342 345
317 318 319 323 319 321 323 324 320 333 335 339 341 339 337 334 334 331 331 333 332 335 336 336 338 338 339 340 340 341 339 341 340 339 336 333 336 338 337 337 338 338 339 342
314 317 316 320 319 323 320 325 332 334 334 334 337 339 334 329 327 327 329 331 330 332 332 330 331 331 331 332 335 337 340 340 341 339 339 340 338 340 341 341 340 337 338 338
310 313 316 320 321 321 322 320 323 331 335 333 337 334 327 324 325 322 327 329 329 329 329 331 330 329 328 328 329 330 333 333 338 339 339 338 339 340 340 340 340 338 341 340
310 309 314 315 321 324 321 319 319 321 332 331 330 326 326 326 329 323 324 325 324 324 325 326 327 327 326 325 325 325 327 328 329 328 330 332 333 337 340 341 341 340 339 336
313 312 313 316 316 317 316 318 319 322 320 329 327 326 326 326 325 322 323 324 324 323 322 322 322 322 321 320 319 320 320 322 323 323 325 325 325 325 324 322 320 323 327 329
316 313 314 312 317 321 317 317 321 317 318 329 327 326 326 324 323 321 321 322 321 321 320 319 318 317 316 315 315 314 313 313 313 313 315 319 321 322 323 323 322 321 322 330
315 314 316 315 314 315 316 316 317 318 318 326 327 325 325 323 321 319 319 320 319 319 318 317 316 315 314 313 312 311 310 309 309 309 310 311 312 314 317 320 321 322 323 322
313 314 315 316 316 316 315 318 319 321 319 324 325 324 322 322 320 319 319 318 318 317 316 315 314 313 312 310 309 308 307 307 307 307 308 310 311 312 313 314 315 317 320 321
311 312 312 313 315 316 316 316 319 320 322 323 322 323 321 322 320 319 318 317 316 316 315 313 311 310 308 307 307 306 306 306 306 306 306 307 308 309 311 312 313 314 315 316
314 311 312 313 315 315 315 314 316 318 319 324 323 321 322 323 321 318 316 316 316 315 313 312 310 308 305 305 305 306 305 304 304 304 304 304 304 305 305 305 305 306 308 309

GFSCGP_850_thetae_111.txt.gz
Theta_e
320 326 332 333 329 325 328 340 353 352 349 351 349 346 347 347 346 346 346 346 346 346 346 346 346 343 344 345 344 343 344 345 345 344 343 343 342 342 342 342 343 343 340 341
323 324 329 327 323 326 350 351 354 351 346 347 347 350 348 347 347 346 346 346 346 347 347 346 346 345 344 345 345 343 343 345 345 344 344 344 344 344 344 343 342 342 343 342
324 325 327 326 324 325 333 342 352 351 348 346 350 352 352 348 347 347 345 344 345 346 347 347 347 346 344 346 345 343 343 342 344 345 345 343 345 343 342 342 343 341 341 341
327 323 328 324 326 325 328 330 348 348 346 352 345 352 348 350 349 347 346 345 342 345 347 347 347 346 343 345 345 343 342 340 342 345 343 343 343 343 344 344 343 343 342 341
327 324 324 325 326 324 327 327 347 345 348 347 347 349 346 349 352 349 347 346 343 343 346 346 347 346 344 345 345 343 343 342 342 341 344 344 343 343 345 345 344 341 341 341
324 321 325 326 324 324 331 344 345 345 348 340 343 348 350 352 350 349 346 346 345 343 344 346 343 348 345 344 346 344 343 343 343 340 343 345 343 344 345 345 344 342 343 342
325 323 322 322 323 324 332 336 343 346 348 338 342 350 343 348 347 347 347 346 345 345 344 346 347 348 345 344 346 345 344 343 344 343 341 344 344 344 344 344 346 345 343 343
327 326 324 322 324 324 338 333 334 337 339 340 346 350 347 346 344 346 346 345 345 345 344 346 346 348 346 344 346 345 344 344 344 345 343 344 344 345 345 344 344 346 345 342
324 324 322 322 323 324 324 327 331 337 335 342 348 346 344 347 345 346 346 345 344 344 345 345 347 347 345 344 346 346 345 345 344 345 343 344 341 344 344 345 344 346 346 345
322 325 323 323 322 322 325 326 327 329 343 341 348 349 350 351 350 346 347 345 345 344 345 345 347 345 345 346 345 344 345 345 346 346 344 343 342 342 342 344 345 346 344 345
322 324 326 323 324 325 325 326 327 329 332 338 346 349 346 349 349 349 347 347 346 344 345 344 344 345 345 344 343 344 345 345 345 346 346 345 344 343 341 344 344 344 345 345
321 323 326 326 323 321 326 327 330 329 338 342 346 349 346 348 347 348 347 348 346 345 345 344 344 345 343 343 342 342 343 344 343 344 346 345 343 343 341 342 343 344 345 344
322 323 327 326 324 322 325 323 327 333 338 345 340 345 346 347 346 347 345 345 345 345 344 344 343 344 343 343 343 339 341 345 344 343 342 342 342 343 340 342 342 341 340 343
319 321 326 327 326 324 325 326 326 328 332 339 340 348 348 347 349 344 344 343 344 344 343 343 343 343 343 343 343 343 343 343 342 342 341 343 342 346 344 341 339 340 338 337
322 324 323 322 322 325 329 328 326 325 329 332 338 346 347 347 346 345 343 342 342 343 343 343 343 343 343 343 344 345 344 340 339 339 342 343 344 344 343 342 340 340 340 340
322 326 324 325 323 322 329 330 333 334 332 340 341 346 345 343 343 342 341 340 339 339 339 340 343 345 344 345 345 342 342 340 339 340 342 341 339 341 343 342 341 341 341 342
324 326 328 327 324 323 327 334 336 336 338 341 344 343 343 342 341 339 337 336 334 335 337 338 339 339 342 342 342 342 338 338 338 339 339 339 339 340 340 341 340 338 338 339
323 323 325 328 326 328 324 330 331 339 338 338 341 342 341 338 333 334 334 332 331 333 335 336 337 339 340 339 339 339 339 340 343 341 339 335 338 341 340 338 339 339 338 338
317 321 322 325 325 325 324 328 329 330 337 337 340 337 331 328 329 328 329 332 333 332 332 333 332 333 333 335 335 338 338 340 339 338 337 338 337 338 339 340 340 339 339 340
318 318 322 322 325 326 326 321 320 320 328 334 337 332 328 329 337 331 325 330 331 330 330 330 329 329 328 328 329 331 331 331 337 337 337 337 336 336 335 332 333 334 333 335
321 320 320 322 323 322 320 319 320 327 329 333 334 332 329 334 333 325 328 328 328 329 329 327 326 325 324 323 323 324 324 325 328 329 328 329 329 328 326 325 322 326 331 334
323 322 321 320 323 322 318 320 325 322 320 327 331 331 331 327 324 324 324 324 324 325 325 324 322 321 319 317 316 315 314 315 317 319 322 323 324 325 325 324 323 321 323 330
325 322 326 322 322 319 317 318 318 317 318 323 330 329 327 324 323 323 322 322 322 321 320 319 317 316 315 314 313 311 310 310 310 310 311 311 313 316 321 322 322 323 322 321
318 316 323 323 321 319 318 317 318 320 320 320 326 325 324 323 322 321 321 320 321 319 318 316 315 314 313 311 310 308 308 307 307 307 308 309 310 310 311 313 317 319 320 321
318 317 321 322 320 319 317 317 317 318 320 323 323 325 325 322 320 320 320 320 319 317 316 315 313 311 310 308 307 306 306 306 306 306 306 307 308 309 311 311 312 313 314 314
317 320 322 320 319 319 319 315 315 317 318 321 322 322 323 324 323 320 320 319 317 316 315 314 312 310 307 306 305 305 305 305 305 305 305 305 305 306 306 306 307 307 308 309

GFSCGP_850_thetae_114.txt.gz
Theta_e
319 324 327 336 339 333 335 337 352 352 351 352 351 349 350 347 346 344 343 344 345 345 347 346 346 346 347 348 349 350 350 342 348 348 347 347 347 348 348 347 347 337 342 340
322 324 326 334 337 330 338 338 352 352 352 351 352 352 350 348 345 345 345 344 345 345 345 348 347 347 348 350 349 350 350 345 345 347 349 349 348 348 348 349 346 349 345 340
323 323 328 334 333 331 345 344 349 351 351 349 350 355 354 348 346 345 344 345 345 345 346 348 348 348 348 350 351 350 350 347 344 349 348 346 348 348 348 348 348 347 348 348
323 326 328 334 335 332 336 336 346 352 351 354 351 353 355 352 351 347 345 345 345 344 344 346 348 348 348 349 351 351 350 349 344 345 350 345 347 347 348 348 349 349 349 349
324 326 330 334 336 331 333 335 343 346 346 349 350 346 351 353 354 349 347 344 343 343 342 345 346 348 348 349 350 350 350 349 350 346 344 345 348 348 349 349 348 349 345 348
328 327 331 331 331 329 329 336 340 341 344 343 345 348 355 356 354 352 347 346 343 342 341 344 344 347 350 349 349 350 349 342 347 343 344 343 349 347 345 349 344 349 347 348
327 328 328 329 331 330 333 339 341 341 342 343 341 342 346 347 347 349 348 346 346 342 341 342 345 348 350 349 349 349 351 346 343 346 349 349 347 348 346 346 349 347 349 349
327 328 328 326 327 330 332 337 338 342 343 342 344 344 346 344 344 345 347 347 347 345 342 342 345 348 350 350 351 350 352 349 348 346 346 342 342 345 346 348 350 350 348 347
326 328 326 326 326 326 331 335 335 337 338 341 344 345 346 347 347 346 347 348 347 347 344 344 345 348 350 350 351 351 352 351 350 350 345 343 342 342 344 347 343 350 352 350
326 326 325 325 325 326 327 333 336 336 340 342 344 343 350 352 350 348 348 348 347 346 346 345 346 348 350 349 352 347 352 346 350 350 345 349 346 341 342 343 344 345 349 349
326 326 325 325 325 326 326 328 330 332 334 339 341 343 350 353 351 350 348 346 346 346 345 347 348 350 351 351 350 350 352 352 346 349 346 349 350 348 340 345 343 345 345 343
325 326 329 326 325 326 326 326 328 332 335 335 340 354 349 350 350 348 349 348 346 346 346 348 350 351 351 348 346 345 345 351 351 351 351 348 347 350 349 349 349 344 344 344
327 326 329 328 327 327 327 327 328 329 331 335 335 341 350 350 350 350 351 350 349 347 349 350 348 348 347 347 344 343 342 346 350 350 350 347 350 350 349 350 347 345 343 344
322 328 329 329 328 327 328 328 328 329 332 332 335 345 352 352 351 348 348 348 349 349 349 346 346 345 346 346 344 343 342 342 343 349 350 350 350 350 350 349 348 343 341 340
326 329 328 327 328 328 328 328 328 329 329 331 332 334 345 350 351 346 346 348 348 348 348 347 344 342 339 343 343 343 341 341 343 344 344 346 345 347 347 348 347 346 346 347
326 328 328 327 325 330 330 330 329 330 330 331 332 342 347 347 348 347 345 345 345 346 345 345 347 345 345 344 343 342 342 343 337 340 341 341 342 346 346 347 346 342 344 346
326 328 329 329 327 326 333 335 334 335 336 338 332 345 346 347 346 344 342 340 340 339 341 343 344 344 344 344 344 343 340 338 340 341 341 342 342 343 345 344 343 343 343 346
326 327 328 330 328 330 330 330 330 336 338 338 340 343 345 344 341 340 338 338 335 336 336 340 340 341 342 344 343 343 342 342 341 339 340 340 341 340 341 342 342 342 339 344
325 325 325 328 329 329 327 329 329 330 337 336 341 343 341 339 337 335 334 335 335 333 336 337 338 339 339 339 340 340 339 338 339 342 341 337 337 336 336 339 340 341 341 340
323 323 325 324 329 330 329 325 323 325 335 336 339 340 338 339 345 337 333 332 331 335 335 335 335 334 335 335 336 337 338 339 338 336 338 337 335 338 338 338 338 339 339 340
324 325 324 324 326 328 324 322 323 331 332 327 337 338 337 339 339 333 329 329 331 332 332 331 330 330 329 329 329 330 330 331 333 334 334 334 330 331 329 328 330 332 334 336
325 325 323 324 324 326 322 324 328 326 325 325 333 335 335 333 332 332 332 333 329 329 328 326 324 323 323 323 322 322 323 325 326 325 326 327 327 325 324 323 324 328 331 332
326 325 328 325 327 323 321 322 322 323 325 325 329 333 334 333 331 331 329 330 329 328 326 324 322 320 319 317 316 317 313 313 314 316 319 321 322 323 323 323 322 322 324 325
322 323 326 325 324 323 321 321 321 322 324 327 328 332 332 331 330 329 327 326 325 323 322 320 319 318 315 313 311 310 309 308 308 309 310 311 312 314 317 319 320 321 322 322
321 321 323 324 323 323 321 321 321 322 322 325 328 329 329 329 329 327 325 324 322 321 319 319 318 317 313 310 309 308 307 306 307 307 308 309 310 312 311 313 314 313 315 318
320 321 321 321 322 321 323 321 320 320 322 323 325 327 327 328 327 326 324 321 319 318 317 317 314 313 309 308 306 305 305 305 307 306 309 309 309 309 310 309 309 310 310 311

GFSCGP_850_thetae_117.txt.gz
Theta_e
322 324 328 333 342 341 340 342 354 354 352 349 350 351 347 345 343 342 340 341 342 343 343 342 344 344 344 346 349 352 349 350 349 346 347 348 346 345 344 345 347 349 348 349
323 324 327 330 340 341 338 340 357 353 350 347 351 353 348 340 340 346 341 341 343 343 345 344 346 345 344 345 348 350 351 350 348 350 348 347 347 346 346 348 345 347 347 349
325 325 326 329 338 341 338 344 354 356 352 348 350 356 353 343 338 341 345 343 343 345 345 344 346 346 347 346 347 348 350 350 349 351 351 351 350 349 348 349 349 349 347 347
323 326 325 328 336 339 339 345 349 352 357 359 351 361 357 353 344 343 345 344 344 345 342 347 347 346 347 346 348 348 350 349 349 348 348 347 349 349 348 348 348 348 348 348
323 326 326 330 336 337 337 336 346 349 351 353 353 353 358 353 346 344 343 345 344 344 345 345 346 347 346 347 348 349 349 351 350 350 349 348 351 349 347 348 350 348 349 349
325 325 328 329 333 337 334 334 342 345 346 354 350 349 362 353 348 344 346 345 344 345 342 345 344 346 348 345 347 348 349 351 353 350 350 350 353 351 351 350 350 348 350 349
325 329 328 330 332 335 334 336 345 347 346 346 349 345 353 353 349 349 347 345 343 341 343 343 343 346 348 346 346 348 350 352 350 351 352 352 353 352 348 352 351 348 346 348
324 329 329 330 332 334 335 338 345 348 344 345 343 343 352 349 348 348 346 347 344 344 342 341 344 347 344 347 345 347 352 353 352 350 350 352 352 352 351 351 350 348 348 348
325 327 328 328 329 331 334 339 341 342 342 343 348 352 349 346 348 348 349 347 345 345 341 341 343 346 344 347 348 347 352 354 351 351 350 350 350 351 351 351 354 351 351 348
328 327 329 328 327 328 329 334 339 341 344 342 348 349 352 350 349 348 348 349 348 347 346 340 343 344 348 350 350 350 352 353 351 350 352 352 351 350 348 351 347 351 353 353
327 328 329 327 327 328 327 329 334 337 337 339 341 348 352 351 350 349 348 348 349 349 345 346 343 349 346 350 353 352 353 353 351 349 350 350 349 349 350 351 348 352 351 349
326 327 328 328 327 326 328 327 332 337 341 337 336 347 351 350 349 348 348 350 349 348 346 347 346 347 351 353 353 351 353 353 352 351 353 352 350 349 349 349 352 352 347 348
328 327 329 331 327 326 326 328 328 330 332 335 335 353 345 351 350 349 349 348 348 347 347 345 347 350 352 353 352 352 351 352 353 353 353 353 352 351 349 350 350 353 350 346
325 328 328 331 330 329 327 328 328 328 330 331 335 354 354 353 355 354 352 351 349 349 349 348 352 353 354 353 353 350 347 348 350 352 351 351 353 352 350 348 350 351 353 354
327 329 330 330 331 330 327 326 328 328 330 331 332 340 351 352 354 351 352 352 350 350 352 352 352 351 347 348 345 345 343 342 342 344 346 351 351 351 350 351 351 350 351 352
329 331 331 331 329 330 328 327 327 328 329 330 332 335 349 350 350 350 349 351 350 351 350 351 351 347 343 341 338 343 343 342 341 343 345 349 348 348 348 347 347 349 350 351
328 331 332 330 328 330 330 330 330 329 329 331 338 346 347 352 350 348 347 346 348 348 349 349 348 347 346 346 342 342 342 343 342 342 341 342 343 344 343 344 347 348 347 347
327 330 331 334 334 330 336 333 334 337 337 337 338 344 349 349 345 345 345 342 339 340 343 346 347 347 346 345 344 343 343 343 341 339 341 342 341 340 340 343 346 347 347 347
326 327 332 333 333 332 332 330 332 334 339 337 340 346 346 345 343 341 341 341 340 337 339 341 342 343 344 344 344 343 343 340 340 341 341 340 340 341 340 340 342 343 342 344
325 326 329 329 330 336 335 329 326 328 338 333 339 341 341 341 345 343 338 338 336 333 338 338 338 339 339 340 341 342 341 341 340 340 340 340 339 338 336 335 335 339 341 343
327 326 326 326 328 332 327 325 324 331 336 329 338 339 340 341 341 338 337 336 335 333 329 334 334 334 335 336 337 338 338 339 337 337 337 336 337 337 337 338 337 338 339 340
328 328 326 326 328 333 325 326 330 330 329 328 334 336 338 337 337 336 335 334 333 331 328 327 327 327 326 327 329 331 331 331 332 333 331 333 332 330 331 332 335 338 335 335
325 329 333 330 332 326 325 325 325 326 328 329 329 333 336 335 335 334 332 332 330 328 326 325 324 322 321 319 319 320 322 326 327 327 325 326 327 328 326 325 327 331 332 333
324 324 325 327 326 325 324 324 324 325 326 328 329 332 334 334 334 333 332 332 331 329 327 324 322 321 317 315 316 313 312 313 317 317 318 319 321 323 325 326 326 327 327 327
324 324 324 326 327 325 324 323 323 323 324 326 329 331 331 332 332 331 331 330 329 327 325 323 322 321 320 319 317 315 312 317 319 318 318 317 315 318 319 320 320 321 324 324
321 321 323 325 324 324 325 323 321 321 322 324 326 330 330 331 330 329 329 327 326 324 322 321 321 320 318 317 315 310 309 313 316 316 315 315 315 316 315 313 312 311 311 314

GFSCGP_850_thetae_120.txt.gz
Theta_e
324 325 326 331 336 341 343 347 354 351 348 348 349 349 346 348 341 339 340 340 341 341 341 341 343 346 349 345 345 347 348 347 344 342 343 341 345 345 347 347 345 351 346 349
324 324 325 329 332 339 343 353 355 352 350 348 348 349 346 345 345 343 340 341 341 342 342 341 343 345 349 347 346 347 348 345 345 347 346 348 343 343 347 349 347 343 347 344
324 325 325 326 330 337 344 349 352 354 348 344 347 350 350 344 340 342 345 344 342 344 341 346 344 343 345 349 348 348 347 345 346 347 348 348 347 346 346 347 344 345 345 347
323 326 326 325 329 333 343 347 349 352 350 354 349 360 353 346 342 341 344 346 343 345 343 344 344 345 345 345 348 347 345 345 345 350 351 346 347 346 346 347 347 347 345 345
322 323 326 326 328 333 342 348 350 351 352 353 354 357 356 348 344 342 340 346 344 342 344 346 346 346 345 346 347 349 347 344 346 346 347 344 348 349 347 348 348 348 346 346
324 324 327 327 328 333 337 345 347 347 350 350 350 357 362 357 354 345 342 346 346 344 345 343 346 344 348 347 348 348 346 344 346 345 347 348 348 349 348 348 349 347 348 346
323 324 327 328 328 332 337 337 349 356 356 356 349 355 355 354 351 344 344 345 344 343 345 343 346 346 345 347 349 349 346 347 348 347 347 348 350 349 349 346 349 349 350 345
323 323 329 328 330 331 338 337 344 350 349 354 348 352 350 352 348 342 342 344 345 344 343 343 345 346 345 347 349 350 346 346 349 348 349 346 351 348 348 346 349 349 347 349
327 325 328 329 330 331 335 336 337 344 344 346 352 350 353 350 346 341 343 346 345 346 343 345 347 347 340 346 350 349 347 342 348 350 347 348 345 352 353 350 348 348 349 348
327 330 327 329 329 330 333 334 337 339 348 349 349 353 355 352 349 346 348 348 346 344 344 346 348 344 343 345 347 349 349 344 347 350 347 346 348 347 350 349 348 352 347 351
327 329 330 329 329 328 329 330 332 336 338 342 354 354 352 348 346 352 350 347 347 345 344 345 348 346 346 345 346 353 351 348 346 353 348 348 345 347 344 350 345 348 350 351
328 328 330 331 329 328 328 328 330 333 338 339 340 348 340 340 346 347 349 350 347 345 346 348 348 346 350 349 346 352 351 351 351 350 351 349 350 350 347 347 349 345 346 346
329 328 329 330 330 328 327 328 327 328 332 339 341 349 341 342 349 348 348 350 348 350 348 347 345 349 347 347 346 348 352 349 351 348 351 347 349 348 350 350 348 353 348 345
326 328 329 330 332 332 327 326 328 327 330 333 335 350 350 346 353 351 351 351 353 351 349 342 340 349 346 339 338 351 350 346 340 352 351 348 350 349 347 349 350 347 351 348
327 329 330 330 331 331 332 327 326 328 328 330 337 346 351 345 351 350 351 351 351 350 350 346 341 349 347 338 346 352 352 351 349 346 350 350 349 350 351 350 349 350 347 351
329 331 332 332 332 331 332 332 327 328 328 328 330 348 336 336 341 349 353 351 350 350 349 352 350 350 347 343 347 350 349 346 344 343 343 344 345 341 346 346 347 348 350 347
330 334 336 336 333 332 332 337 336 331 329 330 338 350 336 334 333 335 348 352 352 353 353 352 350 350 347 346 347 346 344 343 340 341 342 343 343 344 345 346 346 345 344 345
328 332 332 335 336 336 335 334 334 336 340 341 346 347 338 336 342 346 346 344 346 348 346 350 350 348 347 346 344 343 343 343 342 342 341 341 341 342 343 343 343 344 345 344
325 328 331 336 336 334 334 333 331 331 341 334 344 335 341 345 344 344 343 342 343 345 346 346 347 346 345 346 345 344 344 343 344 341 341 341 340 340 341 340 341 342 345 346
324 329 329 332 336 337 334 331 329 328 338 333 333 339 342 344 346 342 341 340 338 339 343 343 343 344 344 344 342 342 342 343 343 341 341 341 341 340 340 340 338 341 342 341
328 327 329 328 331 333 328 329 326 332 337 331 338 341 333 340 341 339 338 337 334 337 338 338 339 339 339 338 341 342 342 342 341 340 340 340 339 338 337 336 335 336 336 338
327 330 330 330 331 335 326 328 332 331 331 330 335 339 339 340 339 338 337 334 332 331 332 333 334 334 334 335 336 338 338 338 339 339 339 339 338 337 337 338 338 338 338 339
328 322 332 333 332 327 327 327 327 328 330 330 330 338 336 337 336 335 334 333 331 329 328 327 326 326 326 327 329 331 332 332 333 334 335 333 331 331 332 335 336 337 336 335
324 324 331 331 328 326 325 325 325 326 327 328 330 334 336 336 335 334 333 332 330 328 326 325 324 323 322 318 316 317 320 323 325 328 328 328 330 329 328 327 329 330 331 332
326 325 323 329 328 326 325 325 324 324 325 326 328 330 334 335 334 332 331 331 328 326 324 321 320 319 317 315 313 311 313 315 316 315 316 316 319 319 325 325 326 327 328 328
321 322 322 328 328 327 326 325 323 322 323 324 326 328 332 334 332 331 332 331 329 327 325 324 322 320 317 316 316 313 312 315 318 317 316 318 318 317 315 318 322 321 318 325

GFSCGP_850_thetae_123.txt.gz
Theta_e
325 323 323 323 325 328 343 350 354 352 348 348 348 347 345 344 346 341 340 340 340 341 342 344 344 345 345 343 346 345 345 343 342 346 345 344 345 346 346 345 342 340 341 343
322 322 323 324 327 330 347 351 353 351 348 347 348 348 347 345 344 345 340 339 340 341 341 344 346 346 344 344 344 347 345 344 341 346 343 345 345 346 346 346 344 343 341 342
320 322 324 323 323 329 347 352 350 352 348 345 346 348 347 344 343 344 343 342 341 341 341 344 347 345 346 344 344 343 344 344 342 341 340 343 344 346 346 347 345 345 339 346
320 321 323 322 323 325 347 349 348 350 347 351 346 354 349 346 344 342 341 344 343 341 341 344 345 347 346 344 344 343 347 342 343 339 343 343 342 343 345 347 344 344 342 347
318 320 321 323 323 324 349 340 350 349 348 348 348 352 350 346 347 345 340 344 344 342 343 343 346 348 347 345 346 342 344 343 344 345 343 344 345 345 343 347 346 345 344 343
321 323 321 323 325 331 344 347 347 347 346 350 348 350 353 347 347 345 340 342 345 343 344 344 343 347 346 345 346 346 343 344 343 348 347 346 347 348 347 346 349 347 345 344
322 320 321 324 327 331 345 343 347 349 351 348 344 346 347 346 344 344 339 340 345 344 344 344 344 344 346 349 347 347 344 341 343 344 346 343 348 349 349 346 348 347 345 345
320 319 321 327 326 326 331 339 343 352 353 354 346 352 348 346 348 345 339 340 343 345 344 345 346 345 347 347 347 346 346 339 342 345 346 346 346 347 342 345 348 348 349 345
325 324 323 326 326 326 327 336 335 341 348 348 352 350 351 350 349 346 343 341 345 346 344 344 344 343 348 347 348 348 347 338 339 344 344 346 348 345 345 346 349 349 349 348
324 326 327 327 327 327 328 330 332 329 348 354 351 352 353 353 347 344 342 342 344 344 344 344 345 342 347 349 349 348 347 340 333 341 347 346 347 350 350 348 349 348 349 349
325 325 325 327 327 326 326 327 328 326 332 340 347 349 350 348 347 344 343 343 342 344 345 344 344 346 347 349 350 349 348 345 339 334 344 346 344 346 349 349 347 350 348 348
326 325 325 326 328 326 325 325 326 327 329 332 340 345 348 346 337 337 340 343 344 345 345 345 346 346 345 347 351 349 348 347 342 342 346 344 341 343 343 345 348 344 349 349
325 326 326 325 326 327 325 324 324 322 322 325 335 345 341 345 340 338 340 340 343 348 347 347 347 346 346 347 347 350 351 347 342 349 350 347 347 348 349 345 343 348 346 344
326 323 325 329 328 328 330 329 324 323 322 323 328 341 341 340 341 340 341 344 347 349 346 347 349 348 345 343 347 349 351 347 345 348 348 348 347 348 347 348 349 347 349 347
327 325 326 331 328 329 329 330 331 323 323 325 340 347 346 346 339 335 334 342 347 348 346 349 348 347 346 346 345 348 348 341 340 341 347 346 343 340 348 349 348 349 349 346
326 329 333 333 332 331 331 334 337 337 346 343 347 344 339 342 336 333 337 339 343 348 343 344 347 346 345 341 339 339 344 341 346 338 343 347 346 337 337 342 348 347 350 348
328 332 332 335 334 333 334 334 337 338 346 347 349 338 336 335 333 329 332 331 346 351 350 345 343 344 344 341 340 342 344 344 346 346 346 344 343 343 344 339 343 344 345 347
325 332 330 332 334 335 334 331 331 336 339 340 341 337 335 340 335 333 339 344 345 347 350 350 347 345 345 341 338 344 344 344 342 341 340 341 343 344 344 344 345 344 343 342
325 326 330 333 335 335 333 333 330 329 336 338 340 337 346 344 341 342 342 342 343 344 345 344 347 348 347 347 347 344 342 343 343 342 342 341 340 341 341 341 341 341 340 341
325 325 328 330 331 336 334 331 328 328 335 336 338 338 340 340 342 341 339 339 339 341 342 345 345 346 346 345 344 344 343 343 344 343 341 341 340 340 340 341 340 340 340 340
328 328 327 330 333 335 330 328 328 335 335 338 332 329 332 338 340 339 338 336 335 336 338 340 341 342 343 343 343 343 342 344 344 342 341 340 339 339 339 338 336 336 340 340
329 329 331 331 332 334 325 328 334 332 331 335 334 336 334 336 338 338 337 335 334 336 335 335 337 337 337 337 337 340 341 340 339 339 339 339 338 338 338 337 336 337 339 339
324 326 329 329 331 329 326 327 328 329 329 330 337 337 337 338 338 337 334 333 333 333 333 332 334 335 335 335 334 336 337 336 336 337 338 339 337 336 337 338 338 337 336 335
326 324 323 329 328 327 325 325 325 325 327 328 336 336 335 336 335 334 333 331 328 328 330 329 328 328 326 327 329 331 331 332 333 334 334 333 333 331 333 335 335 336 337 336
325 325 323 328 328 326 325 324 324 324 325 327 331 335 333 334 334 333 332 330 328 327 325 325 323 319 317 315 315 315 316 318 321 325 327 329 329 328 327 328 329 329 332 332
324 323 324 329 328 328 325 323 322 322 323 324 330 334 335 331 332 331 331 329 327 324 322 320 318 317 316 314 312 312 313 314 313 313 315 317 316 316 317 323 325 325 326 327

GFSCGP_850_thetae_126.txt.gz
Theta_e
323 321 321 321 321 324 332 343 349 350 348 347 348 347 345 344 345 340 340 339 343 344 345 344 345 344 344 343 345 343 339 342 341 342 345 343 344 343 344 341 340 342 341 342
319 321 322 322 324 325 330 349 351 350 347 347 348 347 347 344 344 343 340 340 342 343 346 345 345 344 343 343 345 344 342 341 342 345 346 346 343 343 345 344 342 338 343 342
319 320 323 324 324 324 347 350 349 350 348 344 347 348 346 344 343 342 343 341 341 343 345 345 345 344 344 343 344 343 343 342 341 344 344 345 345 344 346 346 344 342 339 344
317 319 321 321 322 331 348 348 341 343 348 352 346 352 348 344 343 342 342 343 342 342 343 344 345 345 344 344 343 343 343 345 343 342 344 344 344 343 346 344 345 344 341 343
316 318 318 319 320 333 345 340 346 349 348 348 348 352 346 345 345 342 340 342 343 340 343 344 344 344 346 343 342 343 341 344 341 340 341 343 344 344 345 344 344 344 342 347
319 321 319 318 327 337 340 343 346 347 345 349 347 352 352 347 343 340 339 342 342 340 343 343 344 344 346 343 343 343 344 343 342 339 341 341 342 344 345 345 346 344 344 342
320 320 319 323 343 343 337 336 348 350 349 347 344 347 344 342 340 340 340 341 342 341 343 345 344 346 346 345 344 343 343 343 341 345 342 344 344 345 345 344 345 344 346 344
320 321 320 322 330 343 338 339 345 351 351 351 345 348 345 341 341 340 340 341 341 343 343 344 344 344 346 345 344 343 343 341 341 342 345 344 345 346 347 347 345 347 345 344
321 322 323 322 324 338 332 337 336 342 344 347 347 345 346 347 347 344 341 340 342 344 343 344 344 345 346 345 345 344 344 341 342 341 343 342 343 347 347 344 347 346 348 348
323 323 322 324 324 324 322 325 333 333 346 348 351 349 349 348 348 345 341 339 342 344 344 344 344 345 344 344 345 346 346 343 338 342 345 343 346 347 344 344 344 349 349 348
321 322 323 323 324 323 323 324 324 323 333 344 351 348 343 344 346 344 341 339 340 344 344 344 344 344 345 346 346 347 346 345 338 343 344 344 345 347 345 346 345 349 346 349
323 319 323 324 322 322 321 323 321 324 326 331 337 335 345 343 345 342 343 342 342 341 345 344 344 345 345 347 347 347 347 346 338 338 341 344 345 343 348 349 348 347 348 347
323 319 322 323 324 323 325 326 321 318 316 320 325 329 345 340 338 340 339 340 342 342 343 344 344 343 345 345 348 349 348 346 343 340 342 340 339 340 342 342 343 346 345 346
324 319 321 323 325 324 326 329 335 320 318 319 321 341 343 343 342 339 340 341 342 342 343 343 345 344 345 346 348 349 349 347 345 343 346 348 344 344 344 346 346 343 343 346
323 325 324 324 329 330 336 338 340 341 338 321 323 341 340 340 339 336 338 341 344 347 346 346 342 345 345 346 345 346 347 348 344 344 344 347 346 345 348 347 348 349 348 346
321 326 330 331 332 332 336 335 336 341 343 345 343 343 337 337 334 335 338 338 342 346 348 347 346 346 346 346 346 347 345 345 345 345 346 347 347 344 346 346 344 348 349 349
323 327 328 333 332 332 336 333 334 339 340 339 338 335 335 333 331 333 336 342 343 345 348 344 344 346 347 347 347 346 344 345 343 343 344 341 345 345 344 343 342 342 344 346
322 322 325 328 328 335 331 331 329 336 340 336 337 334 332 334 338 342 342 343 339 342 344 344 344 344 345 344 345 344 343 343 342 339 344 345 345 343 342 343 344 343 345 344
319 320 325 327 329 332 332 332 330 329 335 336 339 344 342 340 340 338 339 340 342 342 343 344 345 344 341 341 341 340 341 341 341 341 342 343 341 341 343 343 342 339 338 338
321 319 323 325 328 332 331 328 327 329 336 334 339 341 341 339 338 338 336 338 341 340 342 344 345 344 344 340 341 345 344 343 343 343 342 342 342 341 341 341 341 341 341 341
323 321 322 326 329 329 327 327 328 332 334 335 335 335 336 337 336 337 335 335 338 340 342 343 344 345 345 339 341 344 344 342 341 340 340 341 340 340 340 340 340 339 339 340
322 323 324 326 327 329 326 326 328 328 333 333 329 332 338 338 337 336 335 335 335 337 337 339 341 342 343 344 344 343 343 337 341 342 342 341 340 338 338 338 336 336 337 338
321 322 325 326 327 325 326 328 330 329 335 334 334 335 338 337 335 334 332 333 334 334 335 335 336 337 337 337 338 340 340 341 340 339 339 339 339 338 338 337 336 338 338 338
322 323 322 324 324 326 324 325 325 326 331 334 335 335 333 335 336 333 331 331 330 329 329 331 332 333 334 335 335 336 336 336 336 337 337 337 337 337 337 337 337 337 335 333
322 323 321 322 325 326 324 324 324 325 326 333 335 333 333 333 334 332 331 330 328 328 327 327 326 324 324 326 329 331 332 332 332 333 334 334 333 333 335 335 335 335 334 335
323 319 322 323 325 323 323 322 323 323 327 330 332 332 331 330 332 332 330 329 328 327 324 321 318 315 314 314 314 315 316 317 321 326 328 329 329 328 328 328 329 328 327 326